[[{"header":{"parameterUnit":"m.s-1","parameterCategory":1,"la1":31.0,"la2":29.5877,"lo1":-88.7671,"lo2":-86.6584,"dy":0.0162,"dx":0.0185,"nx":115,"ny":88,"refTime":"2023-11-20T18:00:00:Z","depth":0,"parameterNumber":2,"parameterNumberName":"U-component_of_WINDS"},"data":[0.0,0.0,0.0,0.0,0.0,0.0,0.0,0.0,0.0,0.0,0.0,0.0,0.0,0.0,0.0,0.0,0.0,0.0,0.0,0.0,0.0,0.0,0.0,0.0,0.0,0.0,0.0,0.0,0.0,0.0,0.0,0.0,0.0,0.0,0.0,0.0,0.0,0.0,0.0,0.0,0.0,0.0,0.0,0.0,0.0,0.0,0.0,0.0,0.0,0.0,0.0,0.0,0.0,0.0,0.0,0.0,0.0,0.0,0.0,0.0,0.0,0.0,0.0,0.0,0.0,0.0,0.0,0.0,0.0,0.0,0.0,0.0,0.0,0.0,0.0,0.0,0.0,0.0,0.0,0.0,0.0,0.0,0.0,0.0,0.0,0.0,0.0,0.0,0.0,0.0,0.0,0.0,0.0,0.0,0.0,0.0,0.0,0.0,0.0,0.0,0.0,0.0,0.0,0.0,0.0,0.0,0.0,0.0,0.0,0.0,0.0,0.0,0.0,0.0,0.0,0.0,0.0,0.0,0.0,0.0,0.0,0.0,0.0,0.0,0.0,0.0,0.0,0.0,0.0,0.0,0.0,0.0,0.0,0.0,0.0,0.0,0.0,0.0,0.0,0.0,0.0,0.0,0.0,0.0,0.0,0.0,0.0,0.0,0.0,0.0,0.0,0.0,0.0,0.0,0.0,0.0,0.0,0.0,0.0,0.0,0.0,0.0,0.0,0.0,0.0,0.0,0.0,0.0,0.0,0.0,0.0,0.0,0.0,0.0,0.0,0.0,0.0,0.0,0.0,0.0,0.0,0.0,0.0,0.0,0.0,0.0,0.0,0.0,0.0,0.0,0.0,0.0,0.0,0.0,0.0,0.0,0.0,0.0,0.0,0.0,0.0,0.0,0.0,0.0,0.0,0.0,0.0,0.0,0.0,0.0,0.0,0.0,0.0,0.0,0.0,0.0,0.0,0.0,0.0,0.0,0.0,0.0,0.0,0.0,0.0,0.0,0.0,0.0,0.0,0.0,0.0,0.0,0.0,0.0,0.0,0.0,0.0,0.0,0.0,0.0,0.0,0.0,0.0,0.0,0.0,0.0,0.0,0.0,0.0,0.0,0.0,0.0,0.0,0.0,0.0,0.0,0.0,0.0,0.0,0.0,0.0,0.0,0.0,0.0,0.0,0.0,0.0,0.0,0.0,0.0,0.0,0.0,0.0,0.0,0.0,0.0,0.0,0.0,0.0,0.0,0.0,0.0,0.0,0.0,0.0,0.0,0.0,0.0,0.0,0.0,0.0,0.0,0.0,0.0,0.0,0.0,0.0,0.0,0.0,0.0,0.0,0.0,0.0,0.0,0.0,0.0,0.0,0.0,0.0,0.0,0.0,0.0,0.0,0.0,0.0,0.0,0.0,0.0,0.0,0.0,0.0,0.0,0.0,0.0,0.0,0.0,0.0,0.0,0.0,0.0,0.0,0.0,0.0,0.0,0.0,0.0,0.0,0.0,0.0,0.0,0.0,0.0,0.0,0.0,0.0,0.0,0.0,0.0,0.0,0.0,0.0,0.0,0.0,0.0,0.0,0.0,0.0,0.0,0.0,0.0,0.0,0.0,0.0,0.0,0.0,0.0,0.0,0.0,0.0,0.0,0.0,0.0,0.0,0.0,0.0,0.0,0.0,0.0,0.0,0.0,0.0,0.0,0.0,0.0,0.0,0.0,0.0,0.0,0.0,0.0,0.0,0.0,0.0,0.0,0.0,0.0,0.0,0.0,0.0,0.0,0.0,0.0,0.0,0.0,0.0,0.0,0.0,0.0,0.0,0.0,0.0,0.0,0.0,0.0,0.0,0.0,0.0,0.0,0.0,0.0,0.0,0.0,0.0,0.0,0.0,0.0,0.0,0.0,0.0,0.0,0.0,0.0,0.0,0.0,0.0,0.0,0.0,0.0,0.0,0.0,0.0,0.0,0.0,0.0,0.0,0.0,0.0,0.0,0.0,0.0,0.0,0.0,0.0,0.0,0.0,0.0,0.0,0.0,0.0,0.0,0.0,0.0,0.0,0.0,0.0,0.0,0.0,0.0,0.0,0.0,0.0,0.0,0.0,0.0,0.0,0.0,0.0,0.0,0.0,0.0,0.0,0.0,0.0,0.0,0.0,0.0,0.0,0.0,0.0,0.0,0.0,0.0,0.0,0.0,0.0,0.0,0.0,0.0,0.0,0.0,0.0,0.0,0.0,0.0,0.0,0.0,0.0,0.0,0.0,0.0,0.0,0.0,0.0,0.0,0.0,0.0,0.0,0.0,0.0,0.0,0.0,0.0,0.0,0.0,0.0,0.0,0.0,0.0,0.0,0.0,0.0,0.0,0.0,0.0,0.0,0.0,0.0,0.0,0.0,0.0,0.0,0.0,0.0,0.0,0.0,0.0,0.0,0.0,0.0,0.0,0.0,0.0,0.0,0.0,0.0,0.0,0.0,0.0,0.0,0.0,0.0,0.0,0.0,0.0,0.0,0.0,0.0,0.0,0.0,0.0,0.0,0.0,0.0,0.0,0.0,0.0,0.0,0.0,0.0,0.0,0.0,0.0,0.0,0.0,0.0,0.0,0.0,0.0,0.0,0.0,0.0,0.0,0.0,0.0,0.0,0.0,0.0,0.0,0.0,0.0,0.0,0.0,0.0,0.0,0.0,0.0,0.0,0.0,0.0,0.0,0.0,0.0,0.0,0.0,0.0,0.0,0.0,0.0,0.0,0.0,0.0,0.0,0.0,0.0,0.0,0.0,0.0,0.0,0.0,0.0,0.0,0.0,0.0,0.0,0.0,0.0,0.0,0.0,0.0,0.0,0.0,0.0,0.0,0.0,0.0,0.0,0.0,0.0,0.0,0.0,0.0,0.0,0.0,0.0,0.0,0.0,0.0,0.0,0.0,0.0,0.0,0.0,0.0,0.0,0.0,0.0,0.0,0.0,0.0,0.0,0.0,0.0,0.0,0.0,0.0,0.0,0.0,0.0,0.0,0.0,0.0,0.0,0.0,0.0,0.0,0.0,0.0,0.0,0.0,0.0,0.0,0.0,0.0,0.0,0.0,0.0,0.0,0.0,0.0,0.0,0.0,0.0,0.0,0.0,0.0,0.0,0.0,0.0,0.0,0.0,0.0,0.0,0.0,0.0,0.0,0.0,0.0,0.0,0.0,0.0,0.0,0.0,0.0,0.0,0.0,0.0,0.0,0.0,0.0,0.0,0.0,0.0,0.0,0.0,0.0,0.0,0.0,0.0,0.0,0.0,0.0,0.0,0.0,0.0,0.0,0.0,0.0,0.0,0.0,0.0,0.0,0.0,0.0,0.0,0.0,0.0,0.0,0.0,0.0,0.0,0.0,0.0,0.0,0.0,0.0,0.0,0.0,0.0,0.0,0.0,0.0,0.0,0.0,0.0,0.0,0.0,0.0,0.0,0.0,0.0,0.0,0.0,0.0,0.0,0.0,0.0,0.0,0.0,0.0,0.0,0.0,0.0,0.0,0.0,0.0,0.0,0.0,0.0,0.0,0.0,0.0,0.0,0.0,0.0,0.0,0.0,0.0,0.0,0.0,0.0,0.0,0.0,0.0,0.0,0.0,0.0,0.0,0.0,0.0,0.0,0.0,0.0,0.0,0.0,0.0,0.0,0.0,0.0,0.0,0.0,0.0,0.0,0.0,0.0,0.0,0.0,0.0,0.0,0.0,0.0,0.0,0.0,0.0,0.0,0.0,0.0,0.0,0.0,0.0,0.0,0.0,0.0,0.0,0.0,0.0,0.0,0.0,0.0,0.0,0.0,0.0,0.0,0.0,0.0,0.0,0.0,0.0,0.0,0.0,0.0,0.0,0.0,0.0,0.0,0.0,0.0,0.0,0.0,0.0,0.0,0.0,0.0,0.0,0.0,0.0,0.0,0.0,0.0,0.0,0.0,0.0,0.0,0.0,0.0,0.0,0.0,0.0,0.0,0.0,0.0,0.0,0.0,0.0,0.0,0.0,0.0,0.0,0.0,0.0,0.0,0.0,0.0,0.0,0.0,0.0,0.0,0.0,0.0,0.0,0.0,0.0,0.0,0.0,0.0,0.0,0.0,0.0,0.0,0.0,0.0,0.0,0.0,0.0,0.0,0.0,0.0,0.0,0.0,0.0,0.0,0.0,0.0,0.0,0.0,0.0,0.0,0.0,0.0,0.0,0.0,0.0,0.0,0.0,0.0,0.0,0.0,0.0,0.0,0.0,0.0,0.0,0.0,0.0,0.0,0.0,0.0,2.2754,0.0,0.0,0.0,0.0,0.0,0.0,0.0,0.0,0.0,0.0,0.0,0.0,0.0,0.0,0.0,0.0,0.0,0.0,0.0,0.0,0.0,0.0,0.0,0.0,0.0,0.0,0.0,0.0,0.0,0.0,0.0,0.0,0.0,0.0,0.0,0.0,0.0,0.0,0.0,0.0,0.0,0.0,0.0,0.0,0.0,0.0,0.0,0.0,0.0,0.0,0.0,0.0,0.0,0.0,0.0,0.0,0.0,0.0,0.0,0.0,0.0,0.0,0.0,0.0,0.0,0.0,0.0,0.0,0.0,0.0,0.0,0.0,0.0,0.0,0.0,0.0,0.0,0.0,0.0,0.0,0.0,0.0,0.0,0.0,0.0,0.0,0.0,0.0,0.0,0.0,0.0,0.0,0.0,0.0,0.0,0.0,0.0,0.0,0.0,0.0,0.0,0.0,0.0,0.0,0.0,0.0,0.0,0.0,0.0,0.0,2.5494,2.5535,2.4839,2.4176,2.3449,0.0,0.0,0.0,0.0,0.0,0.0,0.0,0.0,0.0,0.0,0.0,0.0,0.0,0.0,0.0,0.0,0.0,0.0,0.0,0.0,0.0,0.0,0.0,0.0,0.0,0.0,0.0,0.0,0.0,0.0,0.0,0.0,0.0,0.0,0.0,0.0,0.0,0.0,0.0,0.0,0.0,0.0,0.0,0.0,0.0,0.0,0.0,0.0,0.0,0.0,0.0,0.0,0.0,0.0,0.0,0.0,0.0,0.0,0.0,0.0,0.0,0.0,0.0,0.0,0.0,0.0,0.0,0.0,0.0,0.0,0.0,0.0,0.0,0.0,0.0,0.0,0.0,0.0,0.0,0.0,0.0,0.0,0.0,0.0,0.0,0.0,0.0,0.0,0.0,0.0,0.0,0.0,0.0,0.0,0.0,0.0,0.0,0.0,0.0,0.0,0.0,0.0,0.0,0.0,0.0,0.0,0.0,0.0,0.0,0.0,0.0,0.0,2.5566,2.4713,2.3702,0.0,0.0,0.0,0.0,0.0,0.0,0.0,0.0,0.0,0.0,0.0,0.0,0.0,0.0,0.0,0.0,0.0,0.0,0.0,0.0,0.0,0.0,0.0,0.0,0.0,0.0,0.0,0.0,0.0,0.0,0.0,0.0,0.0,0.0,0.0,0.0,0.0,0.0,0.0,0.0,0.0,0.0,0.0,0.0,0.0,0.0,0.0,0.0,0.0,0.0,0.0,0.0,0.0,0.0,0.0,0.0,0.0,0.0,0.0,0.0,0.0,0.0,0.0,0.0,0.0,0.0,0.0,0.0,0.0,0.0,0.0,0.0,0.0,0.0,0.0,0.0,0.0,0.0,0.0,0.0,0.0,0.0,0.0,0.0,0.0,0.0,0.0,0.0,0.0,0.0,0.0,0.0,0.0,0.0,0.0,0.0,0.0,0.0,0.0,0.0,0.0,0.0,0.0,0.0,0.0,0.0,0.0,0.0,0.0,0.0,2.6816,2.6785,2.622,0.0,2.3101,0.0,0.0,0.0,0.0,0.0,0.0,0.0,0.0,0.0,0.0,0.0,0.0,0.0,0.0,0.0,0.0,0.0,0.0,0.0,0.0,0.0,0.0,0.0,0.0,0.0,0.0,0.0,0.0,0.0,0.0,0.0,0.0,0.0,0.0,0.0,0.0,0.0,0.0,0.0,0.0,0.0,0.0,0.0,0.0,0.0,0.0,0.0,0.0,0.0,0.0,0.0,0.0,0.0,0.0,0.0,0.0,0.0,0.0,0.0,0.0,0.0,0.0,0.0,0.0,0.0,0.0,0.0,0.0,0.0,0.0,0.0,0.0,0.0,0.0,0.0,0.0,0.0,0.0,0.0,0.0,0.0,0.0,0.0,0.0,0.0,0.0,0.0,0.0,0.0,0.0,0.0,0.0,0.0,0.0,0.0,0.0,0.0,0.0,0.0,0.0,0.0,0.0,0.0,0.0,0.0,0.0,0.0,0.0,0.0,0.0,2.7431,2.7595,2.6535,2.5408,0.0,0.0,0.0,0.0,0.0,0.0,0.0,0.0,0.0,0.0,0.0,0.0,0.0,0.0,0.0,0.0,0.0,0.0,0.0,0.0,0.0,0.0,0.0,0.0,0.0,0.0,0.0,0.0,0.0,0.0,0.0,0.0,0.0,0.0,0.0,0.0,0.0,0.0,0.0,0.0,0.0,0.0,0.0,0.0,0.0,0.0,0.0,0.0,0.0,0.0,0.0,0.0,0.0,0.0,0.0,0.0,0.0,0.0,0.0,0.0,0.0,0.0,0.0,0.0,0.0,0.0,0.0,0.0,0.0,0.0,0.0,0.0,0.0,0.0,0.0,0.0,0.0,0.0,0.0,0.0,0.0,0.0,0.0,0.0,0.0,0.0,0.0,0.0,0.0,0.0,0.0,0.0,0.0,0.0,0.0,0.0,0.0,0.0,0.0,0.0,0.0,0.0,0.0,0.0,0.0,0.0,0.0,0.0,0.0,0.0,2.7968,2.8013,2.8063,2.6968,2.5923,2.5037,0.0,0.0,0.0,0.0,0.0,0.0,0.0,0.0,0.0,0.0,0.0,0.0,0.0,0.0,0.0,0.0,0.0,0.0,0.0,0.0,0.0,0.0,0.0,0.0,0.0,0.0,0.0,0.0,0.0,0.0,0.0,0.0,0.0,0.0,0.0,0.0,0.0,0.0,0.0,0.0,0.0,0.0,0.0,0.0,0.0,0.0,0.0,0.0,0.0,0.0,0.0,0.0,0.0,0.0,0.0,0.0,0.0,0.0,0.0,0.0,0.0,0.0,0.0,0.0,0.0,0.0,0.0,0.0,0.0,0.0,0.0,0.0,0.0,0.0,0.0,0.0,0.0,0.0,0.0,0.0,0.0,0.0,0.0,0.0,0.0,0.0,0.0,0.0,0.0,0.0,0.0,0.0,0.0,0.0,0.0,0.0,0.0,0.0,0.0,0.0,0.0,0.0,0.0,0.0,0.0,0.0,0.0,0.0,0.0,2.8685,2.856,2.8126,2.7497,2.6481,0.0,0.0,0.0,0.0,0.0,0.0,0.0,0.0,0.0,0.0,0.0,0.0,0.0,0.0,0.0,0.0,0.0,0.0,0.0,0.0,0.0,0.0,0.0,0.0,0.0,0.0,0.0,0.0,0.0,0.0,0.0,0.0,0.0,0.0,0.0,0.0,0.0,0.0,0.0,0.0,0.0,0.0,0.0,0.0,0.0,0.0,0.0,0.0,0.0,0.0,0.0,0.0,0.0,0.0,0.0,0.0,0.0,0.0,0.0,0.0,0.0,0.0,0.0,0.0,0.0,0.0,0.0,0.0,0.0,0.0,0.0,0.0,0.0,0.0,0.0,0.0,0.0,0.0,0.0,0.0,0.0,0.0,0.0,0.0,0.0,0.0,0.0,0.0,0.0,0.0,0.0,0.0,0.0,0.0,0.0,0.0,0.0,0.0,0.0,0.0,0.0,0.0,0.0,0.0,0.0,0.0,0.0,0.0,0.0,2.8717,2.8951,2.8965,2.8817,2.7826,2.6968,0.0,0.0,0.0,0.0,0.0,0.0,0.0,0.0,0.0,0.0,0.0,0.0,0.0,0.0,0.0,0.0,0.0,0.0,0.0,0.0,0.0,0.0,0.0,0.0,0.0,0.0,0.0,0.0,0.0,0.0,0.0,0.0,0.0,0.0,0.0,0.0,0.0,0.0,0.0,0.0,0.0,0.0,0.0,0.0,0.0,0.0,0.0,0.0,0.0,0.0,0.0,0.0,0.0,0.0,0.0,0.0,0.0,0.0,0.0,0.0,0.0,0.0,0.0,0.0,0.0,0.0,0.0,0.0,0.0,0.0,0.0,0.0,0.0,0.0,0.0,0.0,0.0,0.0,0.0,0.0,0.0,0.0,0.0,0.0,0.0,0.0,0.0,0.0,0.0,0.0,0.0,0.0,0.0,0.0,0.0,0.0,0.0,0.0,0.0,0.0,0.0,0.0,0.0,0.0,0.0,0.0,0.0,0.0,0.0,2.9203,0.0,2.95,0.0,2.857,2.771,0.0,0.0,0.0,0.0,0.0,0.0,0.0,0.0,0.0,0.0,0.0,0.0,0.0,0.0,0.0,0.0,0.0,0.0,0.0,0.0,0.0,0.0,0.0,0.0,0.0,0.0,0.0,0.0,0.0,0.0,0.0,0.0,0.0,0.0,0.0,0.0,0.0,0.0,0.0,0.0,0.0,0.0,0.0,0.0,0.0,0.0,0.0,0.0,0.0,0.0,0.0,0.0,0.0,0.0,0.0,0.0,0.0,0.0,0.0,0.0,0.0,0.0,0.0,0.0,0.0,0.0,0.0,0.0,0.0,0.0,0.0,0.0,0.0,0.0,0.0,0.0,0.0,0.0,0.0,0.0,0.0,0.0,0.0,0.0,0.0,0.0,0.0,0.0,0.0,0.0,0.0,0.0,0.0,0.0,0.0,0.0,0.0,0.0,0.0,0.0,0.0,0.0,0.0,0.0,0.0,0.0,0.0,0.0,2.8467,2.9925,3.0132,3.0275,3.037,2.9731,2.8742,0.0,0.0,0.0,0.0,0.0,0.0,0.0,0.0,0.0,0.0,0.0,0.0,0.0,0.0,0.0,0.0,0.0,0.0,0.0,0.0,0.0,0.0,0.0,0.0,0.0,0.0,0.0,0.0,0.0,0.0,0.0,0.0,0.0,0.0,0.0,0.0,0.0,0.0,0.0,0.0,0.0,0.0,0.0,0.0,0.0,0.0,0.0,0.0,0.0,0.0,0.0,0.0,0.0,0.0,0.0,0.0,0.0,0.0,0.0,0.0,0.0,0.0,0.0,0.0,0.0,0.0,0.0,0.0,0.0,0.0,0.0,0.0,0.0,0.0,0.0,0.0,0.0,0.0,0.0,0.0,0.0,0.0,0.0,0.0,0.0,0.0,0.0,0.0,0.0,0.0,0.0,0.0,0.0,0.0,0.0,0.0,0.0,0.0,0.0,0.0,0.0,0.0,0.0,0.0,0.0,0.0,0.0,0.0,0.0,3.0132,3.0654,3.0751,3.0464,2.984,2.8862,0.0,0.0,0.0,0.0,0.0,0.0,0.0,0.0,0.0,0.0,0.0,0.0,0.0,0.0,0.0,0.0,0.0,0.0,0.0,0.0,0.0,0.0,0.0,0.0,0.0,0.0,0.0,0.0,0.0,0.0,0.0,0.0,0.0,0.0,0.0,0.0,0.0,0.0,0.0,0.0,0.0,0.0,0.0,0.0,0.0,0.0,0.0,0.0,0.0,0.0,0.0,0.0,0.0,0.0,0.0,0.0,0.0,0.0,0.0,0.0,0.0,0.0,0.0,0.0,0.0,0.0,0.0,0.0,0.0,0.0,0.0,0.0,0.0,0.0,0.0,0.0,0.0,0.0,0.0,0.0,0.0,0.0,0.0,0.0,0.0,0.0,0.0,0.0,0.0,0.0,0.0,0.0,0.0,0.0,0.0,0.0,0.0,0.0,0.0,0.0,0.0,0.0,0.0,0.0,0.0,0.0,0.0,0.0,0.0,3.1628,3.1817,3.181,3.1564,3.0943,2.9713,2.7881,0.0,0.0,0.0,0.0,0.0,0.0,0.0,0.0,0.0,0.0,0.0,0.0,0.0,0.0,0.0,0.0,0.0,0.0,0.0,0.0,0.0,0.0,0.0,0.0,0.0,0.0,0.0,0.0,0.0,0.0,0.0,0.0,0.0,0.0,0.0,0.0,0.0,0.0,0.0,0.0,0.0,0.0,0.0,0.0,0.0,0.0,0.0,0.0,0.0,0.0,0.0,0.0,0.0,0.0,0.0,0.0,0.0,0.0,0.0,0.0,0.0,0.0,0.0,0.0,0.0,0.0,0.0,0.0,0.0,0.0,0.0,0.0,0.0,0.0,0.0,0.0,0.0,0.0,0.0,0.0,0.0,0.0,0.0,0.0,0.0,0.0,0.0,0.0,0.0,0.0,0.0,0.0,0.0,0.0,0.0,0.0,0.0,0.0,0.0,0.0,0.0,0.0,0.0,0.0,0.0,0.0,0.0,0.0,3.4203,3.3638,3.3423,3.3477,3.2863,3.1309,0.0,0.0,0.0,0.0,0.0,0.0,0.0,0.0,0.0,0.0,0.0,0.0,0.0,0.0,0.0,0.0,0.0,0.0,0.0,0.0,0.0,0.0,0.0,0.0,0.0,0.0,0.0,0.0,0.0,0.0,0.0,0.0,0.0,0.0,0.0,0.0,0.0,0.0,0.0,0.0,0.0,0.0,0.0,0.0,0.0,0.0,0.0,0.0,0.0,0.0,0.0,0.0,0.0,0.0,0.0,0.0,0.0,0.0,0.0,0.0,0.0,0.0,0.0,0.0,0.0,0.0,0.0,0.0,0.0,0.0,0.0,0.0,0.0,0.0,0.0,0.0,0.0,0.0,0.0,0.0,0.0,0.0,0.0,0.0,0.0,0.0,0.0,0.0,0.0,0.0,0.0,0.0,0.0,0.0,0.0,0.0,0.0,0.0,0.0,0.0,0.0,0.0,0.0,0.0,0.0,0.0,0.0,0.0,0.0,3.526,3.6219,3.6115,3.4833,3.427,3.2692,0.0,0.0,0.0,0.0,0.0,0.0,0.0,0.0,0.0,0.0,0.0,0.0,0.0,0.0,0.0,0.0,0.0,0.0,0.0,0.0,0.0,0.0,0.0,0.0,0.0,0.0,0.0,0.0,0.0,0.0,0.0,0.0,0.0,0.0,0.0,0.0,0.0,0.0,0.0,0.0,0.0,0.0,0.0,0.0,0.0,0.0,0.0,0.0,0.0,0.0,0.0,0.0,0.0,0.0,0.0,0.0,0.0,0.0,0.0,0.0,0.0,0.0,0.0,0.0,0.0,0.0,0.0,0.0,0.0,0.0,0.0,0.0,0.0,0.0,0.0,0.0,0.0,0.0,0.0,0.0,0.0,0.0,0.0,0.0,0.0,0.0,0.0,0.0,0.0,0.0,0.0,0.0,0.0,0.0,0.0,0.0,0.0,0.0,0.0,0.0,0.0,0.0,0.0,0.0,0.0,0.0,0.0,0.0,3.5174,3.6538,3.8091,3.8341,3.7275,3.5742,3.3625,0.0,0.0,0.0,0.0,0.0,0.0,0.0,0.0,0.0,0.0,0.0,0.0,0.0,0.0,0.0,0.0,0.0,0.0,0.0,0.0,0.0,0.0,0.0,0.0,0.0,0.0,0.0,0.0,0.0,0.0,0.0,0.0,0.0,0.0,0.0,0.0,0.0,0.0,0.0,0.0,0.0,0.0,0.0,0.0,0.0,0.0,0.0,0.0,0.0,0.0,0.0,0.0,0.0,0.0,0.0,0.0,0.0,0.0,0.0,0.0,0.0,0.0,0.0,0.0,0.0,0.0,0.0,0.0,0.0,0.0,0.0,0.0,0.0,0.0,0.0,0.0,0.0,0.0,0.0,0.0,0.0,0.0,0.0,0.0,0.0,0.0,0.0,0.0,0.0,0.0,0.0,0.0,0.0,0.0,0.0,0.0,0.0,0.0,0.0,0.0,0.0,0.0,0.0,0.0,0.0,0.0,0.0,0.0,3.6383,3.7652,3.9303,4.015,3.9963,3.7144,3.4374,0.0,0.0,0.0,0.0,0.0,0.0,0.0,0.0,0.0,0.0,0.0,0.0,0.0,0.0,0.0,0.0,0.0,0.0,0.0,0.0,0.0,0.0,0.0,0.0,0.0,0.0,0.0,0.0,0.0,0.0,0.0,0.0,0.0,0.0,0.0,0.0,0.0,0.0,0.0,0.0,0.0,0.0,0.0,0.0,0.0,0.0,0.0,0.0,0.0,0.0,0.0,0.0,0.0,0.0,0.0,0.0,0.0,0.0,0.0,0.0,0.0,0.0,0.0,0.0,0.0,0.0,0.0,0.0,0.0,0.0,0.0,0.0,0.0,0.0,0.0,0.0,0.0,0.0,0.0,0.0,0.0,0.0,0.0,0.0,0.0,0.0,0.0,0.0,0.0,0.0,0.0,0.0,0.0,0.0,0.0,0.0,0.0,0.0,0.0,0.0,0.0,0.0,0.0,0.0,0.0,0.0,0.0,0.0,3.6723,3.7556,3.9769,4.0618,4.0025,3.8087,3.5963,0.0,0.0,0.0,0.0,0.0,0.0,0.0,0.0,0.0,0.0,0.0,0.0,0.0,0.0,0.0,0.0,0.0,0.0,0.0,0.0,0.0,0.0,0.0,0.0,0.0,0.0,0.0,0.0,0.0,0.0,0.0,0.0,0.0,0.0,0.0,0.0,0.0,0.0,0.0,0.0,0.0,0.0,0.0,0.0,0.0,0.0,0.0,0.0,2.2104,0.0,0.0,0.0,0.0,0.0,0.0,0.0,0.0,0.0,0.0,0.0,0.0,0.0,0.0,0.0,0.0,0.0,0.0,0.0,0.0,0.0,0.0,0.0,0.0,0.0,0.0,0.0,0.0,0.0,0.0,0.0,0.0,0.0,0.0,0.0,0.0,0.0,0.0,0.0,0.0,0.0,0.0,0.0,0.0,0.0,0.0,0.0,0.0,0.0,0.0,0.0,0.0,0.0,0.0,0.0,0.0,0.0,0.0,0.0,3.6969,3.7984,4.0013,4.093,4.0493,3.8466,3.6353,0.0,0.0,0.0,0.0,0.0,0.0,0.0,0.0,0.0,0.0,0.0,0.0,0.0,0.0,0.0,0.0,0.0,0.0,0.0,0.0,0.0,0.0,0.0,0.0,0.0,0.0,0.0,0.0,0.0,0.0,0.0,0.0,0.0,0.0,0.0,0.0,0.0,0.0,0.0,0.0,0.0,0.0,0.0,0.0,0.0,0.0,0.0,0.0,0.0,0.0,0.0,0.0,0.0,0.0,0.0,0.0,0.0,0.0,0.0,0.0,0.0,0.0,0.0,0.0,0.0,0.0,0.0,0.0,0.0,0.0,0.0,0.0,0.0,0.0,0.0,0.0,0.0,0.0,0.0,0.0,0.0,0.0,0.0,0.0,0.0,0.0,0.0,0.0,0.0,0.0,0.0,0.0,0.0,0.0,0.0,0.0,0.0,0.0,0.0,0.0,0.0,0.0,0.0,0.0,0.0,0.0,0.0,3.5891,3.7246,3.8508,4.02,4.1055,4.093,3.856,3.633,3.4132,0.0,0.0,0.0,0.0,0.0,0.0,0.0,0.0,0.0,0.0,0.0,0.0,0.0,0.0,0.0,0.0,0.0,0.0,0.0,0.0,0.0,0.0,0.0,0.0,0.0,0.0,0.0,0.0,0.0,0.0,0.0,0.0,0.0,0.0,0.0,0.0,0.0,0.0,2.0103,2.1753,0.0,0.0,0.0,0.0,0.0,0.0,0.0,0.0,2.3616,0.0,0.0,0.0,0.0,0.0,0.0,0.0,0.0,0.0,0.0,0.0,0.0,0.0,0.0,0.0,0.0,0.0,0.0,0.0,0.0,0.0,0.0,0.0,0.0,0.0,0.0,0.0,0.0,0.0,0.0,0.0,0.0,0.0,0.0,0.0,0.0,0.0,0.0,0.0,0.0,0.0,0.0,0.0,0.0,0.0,0.0,0.0,0.0,0.0,0.0,0.0,0.0,0.0,0.0,0.0,0.0,3.4475,3.6353,3.7707,3.8508,4.02,4.0836,4.0181,3.8653,3.6654,3.4085,0.0,0.0,0.0,0.0,0.0,0.0,0.0,0.0,0.0,0.0,0.0,0.0,0.0,0.0,0.0,0.0,0.0,0.0,0.0,0.0,0.0,0.0,0.0,0.0,0.0,0.0,0.0,0.0,0.0,0.0,0.0,0.0,0.0,0.0,0.0,0.0,0.0,0.0,0.0,2.2582,2.3744,0.0,0.0,0.0,0.0,0.0,0.0,0.0,0.0,2.3742,0.0,0.0,0.0,0.0,0.0,0.0,0.0,0.0,0.0,0.0,0.0,0.0,0.0,0.0,0.0,0.0,0.0,0.0,0.0,0.0,0.0,0.0,0.0,0.0,0.0,0.0,0.0,0.0,0.0,0.0,0.0,0.0,0.0,0.0,0.0,0.0,0.0,0.0,0.0,0.0,0.0,0.0,0.0,0.0,0.0,0.0,0.0,0.0,0.0,0.0,0.0,0.0,0.0,0.0,0.0,3.4414,3.6107,3.7492,3.8508,4.0101,4.0608,3.9893,3.8245,3.6193,0.0,0.0,0.0,0.0,0.0,0.0,0.0,0.0,0.0,0.0,0.0,0.0,0.0,0.0,0.0,0.0,0.0,0.0,0.0,0.0,0.0,0.0,0.0,0.0,0.0,0.0,0.0,0.0,0.0,0.0,0.0,0.0,0.0,0.0,0.0,0.0,0.0,0.0,0.0,0.0,2.3178,2.3956,2.4222,0.0,0.0,0.0,0.0,0.0,0.0,2.4336,2.4443,0.0,0.0,0.0,0.0,0.0,0.0,0.0,0.0,0.0,0.0,0.0,0.0,0.0,0.0,0.0,0.0,0.0,0.0,0.0,0.0,0.0,0.0,0.0,0.0,0.0,0.0,0.0,0.0,0.0,0.0,0.0,0.0,0.0,0.0,0.0,0.0,0.0,0.0,0.0,0.0,0.0,0.0,0.0,0.0,0.0,0.0,0.0,0.0,0.0,0.0,0.0,0.0,0.0,0.0,0.0,3.4414,3.5922,3.7277,3.8508,3.991,4.0256,3.9575,3.7591,3.5548,0.0,0.0,0.0,0.0,0.0,0.0,0.0,0.0,0.0,0.0,0.0,0.0,0.0,0.0,0.0,0.0,0.0,0.0,0.0,0.0,0.0,0.0,0.0,0.0,0.0,0.0,0.0,0.0,0.0,0.0,0.0,0.0,0.0,0.0,0.0,0.0,0.0,0.0,0.0,0.0,0.0,2.4329,2.4727,2.4887,0.0,0.0,0.0,0.0,2.4668,2.508,0.0,0.0,0.0,0.0,0.0,0.0,0.0,0.0,0.0,0.0,0.0,0.0,0.0,0.0,0.0,0.0,0.0,0.0,0.0,0.0,0.0,0.0,0.0,0.0,0.0,0.0,0.0,0.0,0.0,0.0,0.0,0.0,0.0,0.0,0.0,0.0,0.0,0.0,0.0,0.0,0.0,0.0,0.0,0.0,0.0,0.0,0.0,0.0,0.0,0.0,0.0,0.0,0.0,0.0,0.0,0.0,3.4445,3.6384,3.7738,3.8508,3.9446,3.9606,3.8924,3.6786,3.4966,0.0,0.0,0.0,0.0,0.0,0.0,0.0,0.0,0.0,0.0,0.0,0.0,0.0,0.0,0.0,0.0,0.0,0.0,0.0,0.0,0.0,0.0,0.0,0.0,0.0,0.0,0.0,0.0,0.0,0.0,0.0,0.0,0.0,0.0,0.0,0.0,0.0,0.0,0.0,0.0,0.0,2.5255,2.5335,2.5667,2.5985,0.0,0.0,2.5603,2.5697,2.5404,0.0,0.0,0.0,0.0,0.0,0.0,0.0,0.0,0.0,0.0,0.0,0.0,0.0,0.0,0.0,0.0,0.0,0.0,0.0,0.0,0.0,0.0,0.0,0.0,0.0,0.0,0.0,0.0,0.0,0.0,0.0,0.0,0.0,0.0,0.0,0.0,0.0,0.0,0.0,0.0,0.0,0.0,0.0,0.0,0.0,0.0,0.0,0.0,0.0,0.0,0.0,0.0,0.0,0.0,0.0,3.1989,3.4296,3.5953,3.7269,3.8177,3.8984,3.9014,3.8371,3.6287,3.4515,0.0,0.0,0.0,0.0,0.0,0.0,0.0,0.0,0.0,0.0,0.0,0.0,0.0,0.0,0.0,0.0,0.0,0.0,0.0,0.0,0.0,0.0,0.0,0.0,0.0,0.0,0.0,0.0,0.0,0.0,0.0,0.0,0.0,0.0,0.0,0.0,0.0,0.0,0.0,0.0,0.0,0.0,2.5322,2.5678,0.0,0.0,0.0,2.5935,2.5673,0.0,0.0,0.0,0.0,0.0,0.0,0.0,0.0,0.0,0.0,0.0,0.0,0.0,0.0,0.0,0.0,0.0,0.0,0.0,0.0,0.0,0.0,0.0,0.0,0.0,0.0,0.0,0.0,0.0,0.0,0.0,0.0,0.0,0.0,0.0,0.0,0.0,0.0,0.0,0.0,0.0,0.0,0.0,0.0,0.0,0.0,0.0,0.0,0.0,0.0,0.0,0.0,0.0,0.0,0.0,0.0,0.0,3.4147,3.537,3.6618,3.7977,3.8311,3.8341,3.7977,3.5819,0.0,0.0,0.0,0.0,0.0,0.0,0.0,0.0,0.0,0.0,0.0,0.0,0.0,0.0,0.0,0.0,0.0,0.0,0.0,0.0,0.0,0.0,0.0,0.0,0.0,0.0,0.0,1.8852,0.0,0.0,0.0,0.0,0.0,0.0,0.0,0.0,0.0,0.0,0.0,0.0,0.0,0.0,2.5648,2.5598,2.6064,2.6369,0.0,0.0,2.6312,2.5887,2.5735,2.5468,0.0,0.0,0.0,0.0,0.0,0.0,0.0,0.0,0.0,0.0,0.0,0.0,0.0,0.0,0.0,0.0,0.0,0.0,0.0,0.0,0.0,0.0,0.0,0.0,0.0,0.0,0.0,0.0,0.0,0.0,0.0,0.0,0.0,0.0,0.0,0.0,0.0,0.0,0.0,0.0,0.0,0.0,0.0,0.0,0.0,0.0,0.0,0.0,0.0,0.0,0.0,0.0,0.0,0.0,0.0,3.4117,3.4912,3.6131,3.7916,3.743,3.74,3.7946,3.5332,3.3849,0.0,0.0,0.0,0.0,0.0,0.0,0.0,0.0,0.0,0.0,0.0,0.0,0.0,0.0,0.0,0.0,0.0,0.0,0.0,0.0,0.0,0.0,0.0,0.0,0.0,0.0,0.0,0.0,0.0,0.0,0.0,0.0,0.0,0.0,0.0,0.0,0.0,0.0,0.0,0.0,0.0,2.6365,2.6733,2.7184,2.7459,0.0,0.0,2.6929,2.703,2.6614,2.6054,2.5468,0.0,0.0,0.0,0.0,0.0,0.0,0.0,0.0,0.0,0.0,0.0,0.0,0.0,0.0,0.0,0.0,0.0,0.0,0.0,0.0,0.0,0.0,0.0,0.0,0.0,0.0,0.0,0.0,0.0,0.0,0.0,0.0,0.0,0.0,0.0,0.0,0.0,0.0,0.0,0.0,0.0,0.0,0.0,0.0,0.0,0.0,0.0,0.0,0.0,0.0,0.0,0.0,0.0,3.2272,3.3969,3.4668,3.5816,3.7315,3.6843,3.6776,3.7297,3.4698,3.333,0.0,0.0,0.0,0.0,0.0,0.0,0.0,0.0,0.0,0.0,0.0,0.0,0.0,0.0,0.0,0.0,0.0,0.0,0.0,0.0,0.0,0.0,0.0,0.0,0.0,0.0,0.0,0.0,2.1336,2.2046,2.2857,0.0,0.0,0.0,0.0,0.0,0.0,0.0,0.0,0.0,0.0,2.6321,2.6839,2.7223,0.0,0.0,2.7406,2.7144,2.6933,2.667,2.639,2.5871,2.5792,0.0,0.0,0.0,0.0,0.0,0.0,0.0,0.0,0.0,0.0,0.0,0.0,0.0,0.0,0.0,0.0,0.0,0.0,0.0,0.0,0.0,0.0,0.0,0.0,0.0,0.0,0.0,0.0,0.0,0.0,0.0,0.0,0.0,0.0,0.0,0.0,0.0,0.0,0.0,0.0,0.0,0.0,0.0,0.0,0.0,0.0,0.0,0.0,0.0,0.0,0.0,0.0,3.24,3.3909,3.4334,3.5413,3.703,3.6327,3.623,3.6821,3.4375,3.3051,0.0,0.0,0.0,0.0,0.0,0.0,0.0,0.0,0.0,0.0,0.0,0.0,0.0,0.0,0.0,0.0,0.0,0.0,0.0,0.0,0.0,0.0,0.0,0.0,0.0,0.0,0.0,0.0,2.2115,2.3139,2.3837,0.0,0.0,0.0,0.0,0.0,0.0,0.0,0.0,0.0,0.0,2.6275,2.7012,2.734,2.7546,2.7758,2.7821,2.7717,2.7262,2.7183,2.6987,2.6317,0.0,0.0,0.0,0.0,0.0,0.0,0.0,0.0,0.0,0.0,0.0,0.0,0.0,0.0,0.0,0.0,0.0,0.0,0.0,0.0,0.0,0.0,0.0,0.0,0.0,0.0,0.0,0.0,0.0,0.0,3.4068,0.0,0.0,0.0,0.0,0.0,0.0,0.0,0.0,0.0,0.0,0.0,0.0,0.0,0.0,0.0,0.0,0.0,0.0,0.0,0.0,0.0,0.0,3.2859,3.3909,3.397,3.4961,3.6971,3.5844,3.5748,3.6792,3.4375,3.2989,3.296,0.0,0.0,0.0,0.0,0.0,0.0,0.0,0.0,0.0,0.0,0.0,0.0,0.0,0.0,0.0,0.0,0.0,0.0,0.0,0.0,0.0,0.0,0.0,0.0,0.0,0.0,2.2224,2.3334,2.4149,0.0,0.0,0.0,0.0,0.0,0.0,0.0,0.0,0.0,0.0,2.6136,2.6369,2.734,2.7488,2.7704,2.8307,2.856,2.862,2.8386,2.8333,2.7968,0.0,0.0,0.0,0.0,0.0,0.0,0.0,0.0,0.0,0.0,0.0,0.0,0.0,0.0,0.0,0.0,0.0,0.0,0.0,0.0,0.0,0.0,0.0,0.0,0.0,0.0,0.0,3.6918,3.627,0.0,0.0,0.0,0.0,0.0,0.0,0.0,0.0,0.0,0.0,0.0,3.8331,3.8175,0.0,0.0,0.0,0.0,0.0,0.0,0.0,0.0,0.0,0.0,0.0,0.0,3.3349,3.3909,3.4395,3.5383,3.6832,3.568,3.5486,3.647,3.4455,3.2796,3.1569,0.0,0.0,0.0,0.0,0.0,0.0,0.0,0.0,0.0,0.0,0.0,0.0,0.0,0.0,0.0,0.0,0.0,0.0,0.0,0.0,0.0,0.0,0.0,0.0,0.0,2.2823,0.0,0.0,0.0,0.0,0.0,0.0,0.0,0.0,0.0,0.0,0.0,2.6001,2.6585,2.6564,2.6725,2.7419,2.7874,2.8144,0.0,0.0,0.0,0.0,0.0,0.0,0.0,0.0,0.0,0.0,0.0,0.0,0.0,0.0,2.0948,2.0041,1.9163,1.8462,1.7852,0.0,0.0,0.0,0.0,0.0,0.0,0.0,0.0,0.0,0.0,0.0,0.0,0.0,0.0,0.0,0.0,3.8408,0.0,0.0,0.0,0.0,0.0,0.0,0.0,0.0,3.8236,3.8649,3.9471,3.9503,3.9029,0.0,3.7954,3.7006,0.0,0.0,0.0,0.0,0.0,0.0,0.0,0.0,3.3842,3.4243,3.4667,3.5374,3.6379,3.5427,3.5234,3.5909,3.4138,3.2518,3.1216,3.0338,2.9547,0.0,0.0,0.0,0.0,0.0,0.0,0.0,0.0,0.0,0.0,0.0,0.0,0.0,0.0,0.0,0.0,0.0,0.0,0.0,0.0,0.0,0.0,0.0,2.3635,0.0,0.0,0.0,0.0,0.0,0.0,0.0,0.0,0.0,2.6148,2.6115,2.6383,2.6839,2.679,2.687,2.7445,0.0,0.0,0.0,0.0,0.0,0.0,0.0,2.9379,2.8734,2.849,2.8099,2.7232,2.5931,2.4566,2.3142,0.0,0.0,1.9996,1.9032,1.8223,1.7669,1.707,1.6491,1.5947,1.5505,1.515,0.0,0.0,0.0,0.0,0.0,0.0,0.0,0.0,4.0642,4.0642,0.0,4.0545,0.0,0.0,0.0,0.0,0.0,3.8745,0.0,0.0,3.9597,3.9566,3.9598,3.9598,3.9566,3.9503,3.8902,3.8239,3.748,3.6153,0.0,0.0,0.0,0.0,0.0,0.0,3.4394,3.4788,3.4785,3.516,3.5819,3.5288,3.5028,3.5339,3.3529,3.2315,3.1801,3.0453,2.9726,2.9841,2.8671,0.0,0.0,0.0,0.0,0.0,0.0,0.0,0.0,0.0,0.0,0.0,0.0,0.0,0.0,0.0,0.0,0.0,0.0,0.0,0.0,2.3744,0.0,0.0,0.0,0.0,0.0,0.0,0.0,0.0,0.0,0.0,2.6612,2.6277,2.6275,2.6918,0.0,0.0,0.0,0.0,2.8853,2.9248,3.0241,3.0764,3.0241,3.009,2.9907,2.9119,0.0,0.0,2.6939,2.602,2.4974,2.3557,2.2241,2.1136,2.0288,1.9251,1.846,1.789,1.7026,1.6281,1.584,1.5408,1.4889,4.7464,0.0,0.0,0.0,0.0,4.278,4.3103,4.3557,4.3557,4.3265,4.2747,4.2229,0.0,0.0,0.0,0.0,0.0,0.0,3.9879,4.0357,4.0293,4.0546,4.0988,4.0988,4.0767,4.0293,4.0103,3.9629,3.8902,3.8049,3.6753,3.511,0.0,0.0,0.0,0.0,3.4942,3.4971,3.5142,3.5478,3.5878,3.5154,3.4718,3.469,3.3703,3.289,3.2315,3.1409,3.0539,2.9726,2.9319,0.0,0.0,0.0,0.0,0.0,0.0,0.0,0.0,0.0,0.0,0.0,0.0,0.0,0.0,0.0,0.0,0.0,0.0,0.0,2.4476,2.4639,2.4937,0.0,0.0,0.0,0.0,0.0,0.0,0.0,0.0,0.0,2.7391,2.7352,2.7433,0.0,0.0,2.7497,2.8046,2.8682,2.9151,2.9274,3.0241,0.0,3.0566,3.054,3.0258,2.9468,2.8667,2.7754,2.6745,2.5592,2.4566,2.3504,2.2282,2.1192,2.0348,1.9293,1.834,1.7843,1.7255,1.6593,1.6238,1.5772,1.532,5.1379,4.7741,4.6597,4.5824,4.5403,4.5111,4.5208,4.5597,4.5305,4.4949,4.4496,4.3783,4.2941,4.1938,4.0906,0.0,0.0,0.0,4.0452,4.102,4.1304,4.1652,4.2031,4.2315,4.2094,4.143,4.143,4.0925,3.9914,3.9534,3.8555,3.7038,0.0,0.0,3.5015,3.5339,3.5398,3.5211,3.5584,3.5822,3.5878,3.5321,3.4826,3.4399,3.379,3.318,3.2542,3.1874,3.1061,3.0045,2.9755,2.929,0.0,0.0,0.0,0.0,0.0,0.0,0.0,0.0,0.0,0.0,0.0,2.5328,2.5197,0.0,0.0,0.0,2.4914,2.4833,2.4964,2.5151,0.0,0.0,0.0,0.0,0.0,0.0,0.0,2.7504,2.7391,2.7393,2.767,2.7907,2.8129,2.8333,2.8281,2.8255,2.836,0.0,2.9536,2.9327,3.0168,3.0849,3.0698,3.0622,3.0342,2.9707,2.8774,2.7746,2.6842,2.5708,2.4457,2.3393,2.2262,2.1128,2.0411,1.9371,1.8446,1.7921,1.7232,1.6615,1.6158,1.5697,1.5219,5.5178,5.3053,4.9928,4.8479,4.8188,4.7508,4.7184,4.7087,4.6439,4.6115,4.6018,4.5273,4.414,4.2684,4.1268,0.0,4.1341,4.1087,4.1339,4.1778,4.2442,4.2758,4.2789,4.3421,4.339,4.2758,4.2758,4.2094,4.0798,4.0704,4.0324,3.9566,3.7996,3.6597,3.5521,3.5889,3.6031,3.5683,3.6045,3.6103,3.5839,3.5565,3.5067,3.4428,3.3848,3.3238,3.2542,3.1932,3.1264,3.0597,3.0016,2.9668,2.961,0.0,0.0,0.0,0.0,0.0,0.0,0.0,0.0,0.0,0.0,0.0,0.0,0.0,0.0,0.0,2.5549,0.0,2.5154,2.5468,0.0,0.0,0.0,2.6614,2.7227,2.7216,2.7429,2.7802,0.0,0.0,2.7523,2.802,2.8386,2.8386,2.8856,2.9013,2.8516,2.9301,2.9725,2.9248,2.9943,3.062,3.0493,3.0393,3.0139,2.9651,2.8949,2.8028,2.7105,2.5821,2.4493,2.3246,2.2051,2.0974,2.0333,1.9529,1.8726,1.79,1.7184,1.6486,1.5902,1.5358,1.4967,5.6915,5.5794,5.4277,5.243,5.0422,5.026,4.9839,4.9321,4.9159,4.8771,4.8188,4.6925,4.5597,4.4269,4.3587,4.3325,4.3485,4.3151,4.3074,4.3232,4.339,4.3485,4.3485,4.3643,4.3643,4.3485,4.3485,4.3011,4.2189,4.162,4.0988,4.0324,3.9156,3.834,3.8059,3.7728,3.7455,3.7425,3.693,3.6369,3.5525,3.5427,3.5067,3.4428,3.4254,3.3674,3.2571,3.2367,3.1758,3.0655,3.0422,3.0132,2.9639,2.9493,0.0,0.0,0.0,0.0,0.0,0.0,0.0,0.0,0.0,2.6565,2.6832,0.0,2.6919,0.0,2.6965,2.673,2.664,2.6424,0.0,0.0,2.697,2.7227,2.7813,2.7735,2.7696,2.7762,2.7656,2.7523,2.7523,2.802,2.8386,2.8386,2.849,2.8699,2.8987,2.8742,2.8542,2.8542,2.9228,2.9702,2.9604,2.9631,2.9394,2.8895,2.8004,2.7223,2.6553,2.4993,2.3599,2.2772,2.17,2.0761,1.9942,1.9231,1.8559,1.7912,1.7346,1.6798,1.6314,1.5731,1.516,5.7892,5.7245,5.6498,5.5117,5.3308,5.245,5.1718,5.1038,5.0714,5.0196,4.9386,4.767,4.6471,4.5694,4.478,4.4289,4.4154,4.3981,4.3775,4.3737,4.4022,4.4148,4.418,4.4496,4.4496,4.418,4.4148,4.3801,4.3137,4.2442,4.1873,4.1362,4.0438,3.9866,3.9769,3.8616,3.794,3.7873,3.7595,3.7146,3.6512,3.6412,3.5904,3.503,3.4903,3.4109,3.2571,3.2513,3.1932,3.0655,3.0628,3.0422,3.0074,3.0045,2.9755,0.0,0.0,0.0,0.0,0.0,0.0,0.0,0.0,0.0,0.0,0.0,2.7454,2.7675,2.7409,2.723,2.7111,2.6931,2.6952,2.7273,2.7311,2.7446,2.7762,2.7723,2.7656,2.7656,2.759,2.7456,2.7482,2.802,2.8386,2.8248,2.8248,2.8378,2.8664,2.8568,2.842,2.8143,2.8574,2.8918,2.8623,2.8399,2.8163,2.783,2.7073,2.634,2.5791,2.4459,2.3161,2.236,2.1389,2.0411,1.9627,1.8993,1.8336,1.7708,1.7057,1.6566,1.6154,1.556,1.4908,5.8446,5.8012,5.7483,5.6863,5.6111,5.4374,5.324,5.243,5.175,5.094,5.0001,4.8123,4.7184,4.6957,4.5524,4.4777,4.4477,4.4373,4.4167,4.406,4.4591,4.4843,4.4875,4.5507,4.5476,4.4875,4.4843,4.4496,4.3832,4.3232,4.2816,4.2516,4.1653,4.1075,4.0808,3.913,3.8115,3.791,3.8102,3.8157,3.7883,3.7709,3.7022,3.582,3.5496,3.4554,3.2629,3.2513,3.1932,3.0655,3.0655,3.0655,3.0628,3.0655,3.0422,0.0,2.9755,0.0,0.0,0.0,0.0,0.0,0.0,0.0,0.0,2.8017,2.7928,2.7722,2.7631,2.7478,2.7358,2.7328,2.7333,2.7333,2.7433,2.7456,2.7456,2.7456,2.7456,2.7456,2.7456,2.7456,2.7549,2.7968,2.8213,2.8049,2.7885,2.7911,2.7988,2.8298,2.8305,2.7806,2.8003,2.8094,2.7804,2.731,2.6959,2.6761,2.6159,2.5424,2.4982,2.3863,2.2766,2.1944,2.0958,2.0039,1.939,1.8754,1.8112,1.7383,1.6648,1.5989,1.5575,1.5061,1.4489,5.9055,5.8446,5.7924,5.7483,5.6948,5.595,5.4987,5.3952,5.324,5.1847,5.0098,4.9677,4.8868,4.7799,4.7297,4.6775,4.6127,4.5808,4.5698,4.5659,4.5611,4.5602,4.5602,4.5728,4.5728,4.5602,4.5602,4.5223,4.4527,4.4401,4.3983,4.3207,4.231,4.169,4.1309,0.0,0.0,0.0,3.8852,3.8602,3.7912,3.7883,3.7164,3.579,3.5663,0.0,3.2629,3.2513,3.1932,3.0684,3.1061,0.0,0.0,0.0,0.0,0.0,0.0,0.0,0.0,0.0,0.0,0.0,2.9374,2.9116,2.8637,2.897,2.919,2.9066,2.8879,2.8691,2.8502,2.8163,2.7919,2.7919,2.767,2.7456,2.7456,2.7456,2.7456,2.7456,2.7456,2.7456,2.7482,2.7494,2.7504,2.7462,2.7301,2.7165,2.7028,2.7156,2.7087,2.7011,2.7163,2.7379,2.7533,2.7162,2.6641,2.6259,2.5454,2.4717,2.4139,2.3101,2.2095,2.1403,2.0625,1.9706,1.8975,1.8256,1.7627,1.6976,1.6237,1.5575,1.4992,1.4503,1.3997,5.9093,0.0,5.7936,5.7444,0.0,5.6348,5.5615,5.4859,5.4146,5.2819,5.1102,5.0422,4.971,4.903,4.853,4.7806,4.6988,4.6805,4.643,4.5968,4.5864,4.5823,4.5823,4.5823,4.5823,4.5823,4.5823,4.5634,4.5254,4.4764,4.4315,4.3787,4.2856,4.2076,4.1382,4.0385,3.9625,3.9265,3.9265,3.9043,3.8644,3.847,3.7706,3.6398,0.0,0.0,0.0,0.0,0.0,0.0,0.0,0.0,0.0,3.0887,0.0,3.0657,3.0628,3.0507,3.0205,3.0172,2.9988,2.9713,2.9651,2.9476,2.9167,2.9448,2.9554,2.9429,2.924,2.9049,2.8794,2.8444,2.8183,2.8079,2.7789,2.759,2.7523,2.7456,2.7456,2.7456,2.7456,2.7456,2.7416,2.7348,2.7214,2.7079,2.6943,2.6807,2.6671,2.6645,2.6671,2.6465,2.6457,2.6448,2.6407,2.6142,2.5701,2.5136,2.4505,2.3846,2.3221,2.24,2.1568,2.0896,2.0196,1.9469,1.8674,1.8031,1.7302,1.6566,1.5741,1.4992,1.4405,1.3997,1.3561,5.9096,5.8401,5.7888,5.7491,5.6965,5.637,5.5854,5.5295,0.0,0.0,0.0,5.0973,5.0357,5.0066,4.9483,4.8619,4.7654,4.7453,4.6884,4.6054,4.5855,4.5823,4.5823,4.5823,4.5823,4.5823,4.5823,4.5823,4.5719,4.4975,4.4476,4.4226,4.3355,4.2355,4.1199,4.0293,3.9673,3.9337,3.9337,3.9337,3.9265,3.8825,3.806,3.688,3.6412,3.5369,3.3594,3.2977,3.2367,3.1729,3.1293,3.1032,3.0945,3.1032,3.0974,3.0771,3.0742,3.0563,3.0172,3.0111,2.9927,2.9617,2.9617,2.9617,2.9617,2.9617,2.9554,2.9429,2.924,2.9049,2.8794,2.8509,2.8249,2.8145,2.7921,2.7723,2.7523,2.7456,2.7456,2.7456,2.7456,2.7456,2.7323,2.7281,2.7146,2.6782,2.6714,2.6645,2.6533,2.6533,2.6533,2.6283,2.6099,2.5795,2.5419,2.504,2.4634,2.4269,2.3711,2.3075,2.2478,2.1873,2.1205,2.043,1.9803,1.9152,1.8353,1.7708,1.6992,1.617,1.5325,1.4489,1.3815,1.3392,1.2966,5.976,5.9096,5.8525,5.792,5.7401,5.6758,5.5965,5.5081,5.4649,5.3563,5.2171,5.1977,5.1232,5.0098,5.0001,4.9402,4.8473,4.775,4.7212,0.0,4.6149,4.5823,4.5823,4.5823,4.5823,4.5823,4.5823,4.575,4.5573,4.5405,4.5122,4.4732,4.392,4.2597,4.0928,4.0454,3.9905,3.9192,3.9192,3.9017,3.887,3.8339,3.7575,3.6699,3.6073,3.5098,3.3594,3.3383,3.3035,3.2425,3.2832,3.2832,3.2309,3.2716,3.2571,3.1496,3.138,3.1025,3.0294,3.0172,2.9988,2.9679,2.9617,2.9617,2.9617,2.9617,2.9554,2.9429,2.924,2.9049,2.8794,2.8509,2.8249,2.8145,2.7947,2.7723,2.7523,2.7456,2.7456,2.7456,2.7456,2.7456,2.7281,2.7146,2.6943,2.6739,2.6577,2.6533,2.6465,2.6327,2.6283,2.6144,2.591,2.5606,2.5253,2.4826,2.4418,2.4032,2.3446,2.2852,2.2252,2.1645,2.0974,2.0098,1.939,1.8594,1.7789,1.7139,1.6484,1.5643,1.4977,1.4391,1.3561,1.2784,1.21,5.9918,5.9254,5.8559,5.8046,5.7529,5.6503,5.5933,5.5596,5.5002,5.4293,5.3337,5.256,5.1847,5.1232,5.0725,4.9995,4.9106,4.8211,4.7553,4.6919,4.6108,4.5823,4.5823,4.5823,4.5823,4.5823,4.5677,4.5573,4.5499,4.5278,4.5129,4.4812,4.382,4.2727,4.1776,4.119,4.0457,3.9506,3.9194,3.9017,3.8767,3.8458,3.7842,3.7155,3.6441,3.5613,3.4583,3.3914,3.3325,3.3035,3.2977,3.2832,3.2542,3.2803,3.2687,3.2106,3.2048,3.1869,3.1392,3.1111,3.092,3.0729,3.0693,3.0628,3.0628,2.9982,2.9554,2.9429,2.924,2.9049,2.8858,2.8573,2.8379,2.8145,2.7987,2.7855,2.7523,2.7456,2.7456,2.7456,2.739,2.7323,2.7146,2.6943,2.6807,2.6602,2.6533,2.6465,2.6327,2.6188,2.605,2.598,2.5676,2.5324,2.5064,2.4634,2.42,2.3666,2.315,2.2553,2.1949,2.1339,2.0722,1.996,1.9152,1.8416,1.7546,1.6812,1.6072,1.5228,1.4559,1.3899,1.3124,1.21,1.1241,6.0012,5.9475,5.8622,5.7987,5.7407,5.6431,5.5965,5.591,5.532,5.4824,5.4309,5.2999,5.2288,5.2062,5.1218,5.0422,4.9617,4.8795,4.8009,4.7245,4.6424,4.6044,4.6013,4.5813,4.575,4.575,4.5499,4.5426,4.5352,4.5024,4.4799,4.4586,4.3701,4.2985,4.2604,4.194,4.1113,4.0111,3.9654,3.9239,3.8649,3.8384,3.7989,3.7521,3.6707,3.6083,3.5561,3.4632,3.4051,3.3877,3.3441,3.3093,3.2977,3.2948,3.289,3.2774,3.2745,3.2593,3.232,3.1968,3.1772,3.1707,3.1603,3.1537,3.1415,3.06,2.9975,2.9847,2.9711,2.949,2.9361,2.9002,2.866,2.8332,2.8159,2.8027,2.7773,2.7706,2.7785,2.7863,2.7702,2.742,2.7191,2.6883,2.6671,2.6533,2.6465,2.6396,2.6188,2.598,2.584,2.5676,2.5465,2.5182,2.4873,2.4418,2.3959,2.3372,2.2852,2.2252,2.1568,2.1031,2.0333,1.9548,1.8834,1.8014,1.7237,1.65,1.5658,1.4741,1.4068,1.3417,1.2463,1.1424,1.0425,6.0265,6.0012,5.8812,5.7864,5.729,5.6645,5.6153,5.5548,5.5016,5.4781,5.4608,5.3423,5.2538,5.1894,5.1064,5.0448,5.0165,4.9419,4.8961,4.8509,4.7308,4.6708,4.6645,4.5887,4.5531,4.5562,4.5372,4.5223,4.5011,4.4905,4.4648,4.4143,4.3771,4.3205,4.2509,4.2389,4.1799,4.0761,4.0701,3.9853,3.8306,3.7651,3.736,3.7302,3.6664,3.6286,3.6228,3.6112,3.5764,3.5241,3.5096,3.4806,3.4312,3.4225,3.3964,3.3441,3.3383,3.3086,3.2407,3.2256,3.209,3.1772,3.1792,3.166,3.1555,3.1415,3.1331,3.1236,3.0943,3.0632,3.062,2.9914,2.9281,2.8919,2.8452,2.816,2.8271,2.8307,2.849,2.9065,2.8386,2.7963,2.7729,2.7283,2.6746,2.664,2.6527,2.6387,2.6293,2.6009,2.5703,2.5419,2.5182,2.5064,2.4801,2.4273,2.374,2.3298,2.2628,2.2025,2.1339,2.0566,1.9784,1.9134,1.8193,1.7383,1.6566,1.5741,1.5159,1.4402,1.3651,1.2979,1.1772,1.0771,1.0187,6.0676,6.0202,5.9286,5.8496,5.7769,5.7164,5.6556,5.6034,5.5452,5.5027,5.4717,5.3643,5.2893,5.23,5.1438,5.0738,5.0214,4.9437,4.8966,4.8794,4.7694,4.7208,4.7145,4.6774,4.6466,4.6497,4.6313,4.5942,4.5463,4.4863,4.4374,4.3988,4.3754,4.3446,4.294,4.2832,4.2268,4.1362,4.1254,4.0549,3.9441,3.8754,3.8231,3.7825,3.7215,3.6896,3.6838,3.6519,3.6199,3.5938,3.5909,3.5648,3.5009,3.498,3.469,3.4109,3.4022,3.3935,3.3578,3.3417,3.3245,3.3072,3.2908,3.2772,3.2567,3.2567,3.2567,3.2414,3.1555,3.0908,3.0908,3.0351,2.9902,2.9507,2.9225,2.9061,2.8952,2.8908,2.9039,2.908,2.8711,2.8415,2.8201,2.7784,2.7444,2.7301,2.7157,2.7036,2.682,2.6359,2.5949,2.5613,2.5278,2.4801,2.449,2.4055,2.3519,2.3001,2.2478,2.1873,2.1108,2.0411,1.9608,1.8816,1.7951,1.7057,1.6335,1.5423,1.4769,1.3985,1.3109,1.2327,1.1434,1.0635,0.9848,6.0961,6.0202,5.938,5.8748,5.8211,5.7516,5.7006,5.6613,5.5788,5.5207,5.4783,5.3999,5.3299,5.2681,5.1709,5.093,5.0422,4.9489,4.9095,4.9032,4.8137,4.7746,4.7668,4.7294,4.7123,4.7045,4.6888,4.6562,4.599,4.517,4.46,4.4213,4.3946,4.3668,4.3359,4.309,4.2693,4.204,4.1741,4.1259,4.0408,3.9944,3.9305,3.8522,3.8057,3.7738,3.7535,3.707,3.6751,3.6577,3.6577,3.6286,3.5677,3.5619,3.5328,3.4777,3.4661,3.4603,3.4428,3.4264,3.4157,3.398,3.3772,3.3605,3.3396,3.3326,3.3255,3.3073,3.2111,3.1433,3.1405,3.0924,3.0497,3.0121,2.9944,2.9724,2.9555,2.951,2.9516,2.943,2.9207,2.8686,2.8366,2.8072,2.79,2.7754,2.7631,2.7607,2.7236,2.6772,2.6334,2.5965,2.5436,2.4838,2.4292,2.3813,2.3298,2.2703,2.2176,2.1492,2.0779,2.0001,1.9292,1.8273,1.7546,1.681,1.592,1.5078,1.4282,1.3498,1.2643,1.1702,1.1208,1.037,0.9562,6.0961,6.017,5.8875,5.8306,5.8211,5.7548,5.7231,5.701,5.5778,5.5146,5.4988,5.4356,5.3692,5.2997,5.1783,5.0974,5.0848,5.0025,4.955,4.9487,4.8653,4.8261,4.8199,4.7308,4.695,4.7105,4.6868,4.6616,4.6333,4.6031,4.5455,4.4609,4.4449,4.3958,4.3399,4.315,4.29,4.26,4.2356,4.193,4.1134,4.1018,4.0379,3.9334,3.9131,3.8783,3.826,3.8144,3.7854,3.7273,3.7244,3.6954,3.6344,3.6257,3.5938,3.5415,3.5328,3.5038,3.4545,3.439,3.4254,3.398,3.3882,3.3675,3.3326,3.3326,3.3227,3.3058,3.2707,3.2483,3.2384,3.1689,3.1118,3.0708,3.0184,2.9971,3.0059,3.0012,3.0225,3.0336,2.9854,2.9147,2.8321,2.7902,2.7953,2.7804,2.7507,2.7308,2.7281,2.6884,2.6586,2.6259,2.5838,2.5302,2.4402,2.3801,2.3163,2.2478,2.1797,2.1071,2.0177,1.9292,1.8531,1.7775,1.7038,1.6331,1.5447,1.4623,1.3951,1.3038,1.2151,1.1351,1.0944,1.0001,0.9268,6.1371,6.017,5.8843,5.8274,5.8243,5.799,5.7642,5.72,5.7222,5.6309,5.5209,5.4861,5.4387,5.3692,5.2576,5.18,5.1391,5.0618,5.0222,4.9934,4.9178,4.8705,4.8674,4.8264,4.7896,4.7814,4.7732,4.7354,4.6681,4.6092,4.5595,4.5333,4.5027,4.4616,4.3997,4.3634,4.3212,4.2747,4.2392,4.2058,4.1744,4.1744,4.1279,4.0466,4.0002,3.9479,3.887,3.8841,3.8551,3.7912,3.7883,3.7593,3.6983,3.6548,3.6228,3.5996,3.5967,3.5706,3.5125,3.494,3.4589,3.4037,3.3842,3.3633,3.3396,3.3326,3.3227,3.3016,3.2846,3.2704,3.2461,3.2109,3.1712,3.1322,3.1089,3.0838,3.0708,3.0537,3.0465,3.0469,3.0037,2.9454,2.9024,2.8847,2.8694,2.8464,2.8309,2.8106,2.7771,2.7424,2.6954,2.6597,2.6078,2.5447,2.4668,2.4015,2.334,2.2454,2.1665,2.1095,2.0286,1.9417,1.8655,1.7945,1.7032,1.6137,1.5367,1.4231,1.3433,1.2766,1.1754,1.1086,1.0678,0.9769,0.9037,6.1182,6.017,5.8812,5.8274,5.8274,5.8274,5.799,5.7579,5.7825,5.6942,5.562,5.5241,5.4735,5.4103,5.3341,5.273,5.2113,5.1268,5.057,5.0123,4.9439,4.8934,4.8749,4.8552,4.8385,4.8187,4.8218,4.7806,4.7243,4.6592,4.6064,4.58,4.5717,4.5304,4.4601,4.4152,4.3632,4.2966,4.2548,4.2295,4.215,4.2092,4.1889,4.1453,4.096,4.0321,3.9538,3.9479,3.9189,3.8638,3.8522,3.8231,3.7622,3.7186,3.6838,3.6664,3.6635,3.6344,3.5793,3.5536,3.5152,3.4638,3.4299,3.4129,3.3888,3.3648,3.3393,3.3195,3.2786,3.2489,3.23,3.2155,3.1963,3.1669,3.1522,3.1373,3.1048,3.0849,3.0596,3.0292,2.9985,2.9677,2.9443,2.9341,2.916,2.8791,2.8712,2.8474,2.8187,2.7735,2.7317,2.692,2.6291,2.5644,2.49,2.4219,2.3387,2.2542,2.1589,2.1072,2.0361,1.9549,1.8752,1.8029,1.7182,1.6241,1.511,1.3857,1.3014,1.2416,1.1596,1.0891,1.028,0.9608,0.8817,6.036,6.0107,5.8843,5.8306,5.8274,5.8274,5.8274,5.8116,5.7579,5.6947,5.6157,5.5493,5.4861,5.4175,5.3813,5.3521,5.3003,5.1747,5.0824,5.0151,4.9627,4.9005,4.8515,4.8347,4.8201,4.8055,4.7995,4.788,4.7533,4.7357,4.7001,4.6411,4.6322,4.5908,4.5,4.4689,4.4225,4.3474,4.3105,4.2731,4.2208,4.2179,4.2121,4.2034,4.1947,4.1395,4.0205,4.0118,3.9828,3.9276,3.916,3.887,3.8231,3.8057,3.7883,3.7389,3.7302,3.6983,3.636,3.6101,3.5856,3.5511,3.5407,3.5102,3.4843,3.4332,3.3834,3.356,3.3056,3.2409,3.2171,3.1998,3.187,3.1596,3.1447,3.1299,3.0999,3.0849,3.0546,3.0164,2.9856,2.9702,2.9443,2.9209,2.8973,2.8736,2.8498,2.8259,2.8099,2.7683,2.7406,2.7139,2.649,2.5776,2.5131,2.4405,2.3557,2.2633,2.1656,2.0938,2.0159,1.9418,1.8626,1.784,1.6562,1.5609,1.452,1.34,1.2715,1.2007,1.1287,1.0609,0.992,0.9229,0.8528,6.0771,6.0202,5.9349,5.8685,5.8306,5.8274,5.8274,5.8243,5.8022,5.7548,5.6852,5.6157,5.5374,5.4536,5.389,5.3409,5.3113,5.2414,5.1713,5.0861,5.0284,4.9774,4.9417,4.93,4.9001,4.8373,4.7748,4.7482,4.7396,4.7396,4.7246,4.704,4.701,4.6595,4.5713,4.5368,4.4902,4.4089,4.3745,4.3369,4.2789,4.2702,4.2528,4.2121,4.2092,4.186,4.1482,4.1047,4.0466,3.9857,3.9421,3.8899,3.8347,3.8202,3.8115,3.797,3.7912,3.7577,3.688,3.6589,3.6196,3.5662,3.5402,3.5152,3.4929,3.4687,3.4325,3.4128,3.3786,3.3451,3.3095,3.2573,3.2075,3.1474,3.1347,3.1123,3.0849,3.0546,3.0164,2.9934,2.9702,2.9443,2.9184,2.9052,2.8816,2.8498,2.8259,2.8099,2.7753,2.751,2.7185,2.6962,2.6362,2.5757,2.5061,2.4262,2.3358,2.2526,2.1655,2.0796,2.0008,1.9205,1.8402,1.7281,1.6077,1.4939,1.3838,1.2951,1.2242,1.159,1.0904,1.0216,0.9533,0.8832,0.823,6.0961,6.0234,5.9475,5.8813,5.8213,5.8058,5.7965,5.7965,5.7996,5.7587,5.6958,5.6518,5.5673,5.4648,5.397,5.3481,5.3086,5.2698,5.2183,5.1544,5.0903,5.033,4.9821,4.9702,4.9432,4.8922,4.8325,4.7908,4.7698,4.7668,4.7549,4.7339,4.7309,4.6957,4.628,4.6048,4.5463,4.4646,4.4385,4.4008,4.3456,4.3108,4.2818,4.244,4.2208,4.2092,4.2063,4.1686,4.1163,4.0495,3.9886,3.9247,3.8667,3.858,3.8463,3.8231,3.8173,3.7953,3.7382,3.71,3.6807,3.6212,3.6005,3.5779,3.5523,3.5308,3.4886,3.4684,3.4208,3.3869,3.348,3.3008,3.2378,3.1756,3.1284,3.095,3.0546,3.0241,2.9985,2.9754,2.9496,2.9263,2.9052,2.8816,2.8578,2.8259,2.8018,2.7857,2.7429,2.7208,2.6962,2.655,2.5946,2.5443,2.4935,2.4145,2.328,2.2476,2.164,2.0835,1.9987,1.902,1.8086,1.6536,1.5201,1.4242,1.3284,1.2425,1.1688,1.11,1.0511,0.9821,0.913,0.8733,0.8131,6.1024,6.0265,5.9348,5.8562,5.7903,5.7684,5.759,5.7495,5.759,5.7246,5.6684,5.6559,5.578,5.4691,5.4293,5.383,5.3152,5.2731,5.2307,5.1881,5.1304,5.0608,5.0005,4.9674,4.9464,4.9404,4.9194,4.8865,4.8356,4.8327,4.8027,4.7638,4.7519,4.7108,4.6697,4.6609,4.5962,4.5112,4.4937,4.4647,4.4037,4.3515,4.3137,4.305,4.2528,4.2208,4.2208,4.2063,4.1715,4.1105,4.0437,3.9886,3.9392,3.9247,3.8986,3.8405,3.8289,3.811,3.7929,3.7587,3.7434,3.7119,3.6859,3.6929,3.647,3.5848,3.5443,3.5131,3.4411,3.3775,3.354,3.3172,3.2857,3.2304,3.1397,3.065,3.0164,3.0088,2.9831,2.9496,2.9341,2.9184,2.8816,2.8578,2.8419,2.8099,2.7753,2.7429,2.7208,2.6962,2.655,2.6052,2.5633,2.5041,2.4529,2.3647,2.2775,2.1924,2.1246,2.0462,1.9669,1.8609,1.7517,1.5967,1.4567,1.3619,1.2748,1.197,1.1198,1.0609,1.0019,0.9426,0.8931,0.8435,0.7939,6.1141,6.004,5.9562,5.8715,5.7684,5.7495,5.7495,5.7495,5.7495,5.7371,5.7152,5.6715,5.6217,5.5596,5.5008,5.439,5.3682,5.3224,5.2673,5.2032,5.1636,5.1271,5.0693,5.0182,4.9972,4.9942,4.9583,4.9164,4.9015,4.9015,4.8895,4.8745,4.8237,4.7821,4.7347,4.6845,4.6255,4.5752,4.5605,4.5285,4.4734,4.4472,4.4153,4.3689,4.3108,4.276,4.2702,4.2324,4.1773,4.1163,4.096,4.0525,3.9944,3.9857,3.9596,3.9073,3.8899,3.8543,3.7892,3.7625,3.7471,3.7162,3.6929,3.6721,3.6484,3.6188,3.576,3.5412,3.5009,3.4741,3.4364,3.3804,3.306,3.1979,3.1312,3.0751,3.024,2.9831,2.9496,2.9419,2.9106,2.887,2.8657,2.8339,2.8099,2.7777,2.7429,2.7185,2.688,2.6678,2.6285,2.5822,2.5295,2.4615,2.3927,2.3144,2.2246,2.1356,2.0584,1.9844,1.9039,1.8025,1.6734,1.5343,1.4184,1.3136,1.236,1.1688,1.0904,1.0216,0.9723,0.9229,0.8733,0.8237,0.7832,6.1189,6.0188,5.971,5.8736,5.7741,5.7335,5.7211,5.7211,5.7211,5.7211,5.7117,5.6838,5.6371,5.5842,5.5472,5.4854,5.4114,5.3743,5.319,5.2427,5.1723,5.1386,5.1079,5.078,5.0661,5.0631,5.0272,4.9942,4.9733,4.9673,4.9523,4.9194,4.8895,4.8388,4.7613,4.7228,4.6667,4.6043,4.5866,4.5663,4.5343,4.5024,4.4734,4.4298,4.3747,4.3311,4.2992,4.2644,4.2179,4.1686,4.1482,4.1221,4.0612,4.0525,4.0234,3.9654,3.9286,3.8678,3.813,3.7719,3.7317,3.7084,3.685,3.6642,3.6405,3.6166,3.5737,3.544,3.5223,3.5003,3.462,3.3944,3.3091,3.2275,3.1625,3.114,3.0586,3.0099,2.9712,2.9401,2.9041,2.8578,2.8339,2.8099,2.7777,2.7429,2.7208,2.688,2.6467,2.6285,2.5888,2.5401,2.4786,2.41,2.3493,2.2706,2.1802,2.0907,1.9621,1.8996,1.8056,1.7124,1.59,1.4663,1.3703,1.2748,1.197,1.1296,1.0609,1.0019,0.9525,0.913,0.8528,0.7932,0.7633,6.1208,6.0453,5.957,5.8789,5.7948,5.7135,5.6858,5.6761,5.6858,5.6858,5.6858,5.6761,5.6488,5.5807,5.5933,5.5468,5.4759,5.4382,5.3641,5.2876,5.2051,5.1409,5.1409,5.1199,5.1109,5.1109,5.1199,5.084,5.0451,5.0331,5.0062,4.9733,4.9494,4.8804,4.8115,4.7759,4.7046,4.6247,4.6098,4.5982,4.5721,4.5343,4.5082,4.4937,4.4385,4.3776,4.3311,4.2992,4.2702,4.2208,4.215,4.1744,4.125,4.1192,4.0873,4.0321,3.9671,3.9118,3.8646,3.7955,3.7353,3.7147,3.6856,3.6563,3.6298,3.5898,3.5548,3.5304,3.5003,3.4673,3.4314,3.37,3.3216,3.2559,3.2122,3.1729,3.1224,3.0654,3.0096,2.9667,2.9012,2.8554,2.817,2.7824,2.7417,2.7208,2.688,2.6467,2.6052,2.5738,2.5338,2.4807,2.4186,2.356,2.2862,2.2264,2.1356,2.0365,1.8812,1.7792,1.6842,1.59,1.4854,1.3896,1.3136,1.236,1.1482,1.0806,1.0117,0.9616,0.9122,0.8726,0.8329,0.7733,0.7335,6.0905,6.0253,5.9271,5.8492,5.7814,5.7166,5.6761,5.6761,5.6761,5.6761,5.6761,5.6761,5.6669,5.6515,5.6423,5.605,5.5245,5.48,5.4207,5.3158,5.2402,5.2007,5.1887,5.1558,5.1259,5.1229,5.1229,5.1139,5.099,5.093,5.096,5.072,5.0212,4.9667,4.909,4.8466,4.7721,4.6828,4.6621,4.6359,4.6011,4.5808,4.5663,4.5576,4.5024,4.4414,4.3805,4.3282,4.2934,4.2731,4.2382,4.2063,4.186,4.1831,4.1512,4.0937,4.0516,4.0038,3.9282,3.8502,3.7868,3.7522,3.6948,3.6405,3.6166,3.5737,3.5413,3.5168,3.4921,3.4507,3.3979,3.3556,3.3139,3.2757,3.2561,3.2278,3.1798,3.0894,3.0299,2.9952,2.9582,2.9166,2.8374,2.8078,2.7667,2.7099,2.6573,2.6157,2.5633,2.5232,2.4786,2.4292,2.3734,2.3125,2.2422,2.1624,2.0546,1.9621,1.8164,1.6857,1.6008,1.514,1.428,1.3522,1.2748,1.1873,1.1002,1.0314,0.9723,0.9229,0.8726,0.8336,0.7939,0.7434,0.7036,6.0681,6.0209,5.943,5.8653,5.7878,5.7106,5.6647,5.65,5.647,5.647,5.6567,5.6567,5.6664,5.6761,5.6664,5.6225,5.5694,5.5068,5.4405,5.3661,5.2995,5.2665,5.2636,5.2247,5.1917,5.1379,5.1229,5.1229,5.1229,5.1229,5.1199,5.1229,5.084,5.0203,4.9592,4.9144,4.8517,4.7707,4.7317,4.6969,4.6446,4.633,4.6127,4.5924,4.5518,4.5053,4.4443,4.4124,4.3776,4.3398,4.2876,4.2382,4.215,4.2092,4.1889,4.1546,4.0896,4.0531,3.9882,3.9074,3.8355,3.8031,3.7312,3.6741,3.6225,3.5683,3.5168,3.4921,3.4673,3.4256,3.3641,3.3386,3.3043,3.281,3.2636,3.2376,3.1904,3.1124,3.0555,3.0204,2.9674,2.9122,2.868,2.8271,2.7657,2.7004,2.6679,2.6149,2.5147,2.4721,2.4272,2.3841,2.3212,2.258,2.198,2.0997,1.982,1.8812,1.7606,1.648,1.5534,1.4758,1.4004,1.3136,1.2262,1.1482,1.0708,1.0019,0.9426,0.9031,0.8528,0.8137,0.764,0.7241,0.6942,6.0586,6.0316,5.9643,5.8796,5.7922,5.7193,5.6525,5.6009,5.5979,5.6176,5.6274,5.6372,5.647,5.6567,5.647,5.6372,5.6024,5.5296,5.457,5.4281,5.3653,5.3384,5.3294,5.3025,5.2576,5.1588,5.1468,5.1439,5.1409,5.1259,5.1229,5.1199,5.1199,5.0619,4.9828,4.9616,4.9193,4.8377,4.8079,4.7608,4.7085,4.6969,4.6679,4.6214,4.5866,4.5576,4.5111,4.4821,4.4589,4.4153,4.3485,4.2876,4.2382,4.2121,4.2092,4.2063,4.127,4.0793,4.051,3.9725,3.8919,3.8561,3.7868,3.7209,3.6632,3.5868,3.5352,3.4888,3.4528,3.392,3.3496,3.3154,3.2982,3.2636,3.2463,3.2113,3.1689,3.1153,3.0787,3.043,2.9893,2.9334,2.8889,2.8403,2.7631,2.6997,2.6693,2.6152,2.5165,2.4313,2.3967,2.3406,2.2862,2.1872,2.1087,2.0201,1.9012,1.8009,1.6979,1.6035,1.4975,1.41,1.3232,1.2554,1.1775,1.11,1.0413,0.9723,0.913,0.8825,0.8336,0.7839,0.7441,0.7048,0.6642,6.0481,6.0316,5.9331,5.8589,5.7922,5.7223,5.6586,5.6039,5.5979,5.5979,5.6077,5.6077,5.6077,5.6176,5.6077,5.5979,5.562,5.517,5.504,5.485,5.4311,5.4042,5.3952,5.3623,5.3144,5.2785,5.2396,5.2127,5.1828,5.1528,5.1319,5.1259,5.1229,5.0798,5.0484,5.0294,4.9751,4.896,4.8595,4.8246,4.7782,4.7521,4.723,4.6621,4.6214,4.5895,4.5605,4.5169,4.4821,4.4705,4.4153,4.3544,4.2992,4.2498,4.2237,4.198,4.1532,4.1139,4.1053,4.0237,3.9508,3.9005,3.8394,3.7756,3.7061,3.6347,3.5748,3.5115,3.4432,3.3666,3.3411,3.3068,3.2723,3.2463,3.2113,3.1761,3.1383,3.1021,3.0636,3.0411,3.005,2.9667,2.9082,2.85,2.7899,2.7127,2.6536,2.608,2.528,2.4445,2.3807,2.3223,2.2618,2.1356,2.0184,1.9212,1.8132,1.7305,1.6279,1.5325,1.4352,1.3244,1.2467,1.1883,1.1296,1.0708,1.001,0.9418,0.8924,0.8528,0.8038,0.7547,0.7241,0.6842,0.6342,6.0167,5.9925,5.938,5.8549,5.757,5.7178,5.6455,5.5641,5.5581,5.5681,5.578,5.578,5.588,5.5979,5.588,5.5681,5.5381,5.528,5.5209,5.5089,5.485,5.47,5.47,5.4311,5.4251,5.4042,5.3563,5.2815,5.2247,5.1917,5.1558,5.1259,5.1229,5.1071,5.0846,5.0567,5.0132,4.9552,4.9272,4.8885,4.8275,4.8014,4.7462,4.6911,4.6534,4.6243,4.5866,4.5634,4.5401,4.5285,4.4792,4.4327,4.3892,4.3369,4.276,4.2212,4.1705,4.1424,4.1311,4.0576,3.9953,3.9585,3.8916,3.8188,3.7483,3.6764,3.6055,3.5201,3.459,3.369,3.3093,3.281,3.255,3.2201,3.1849,3.1496,3.1139,3.0668,3.0397,3.0306,2.9943,2.9557,2.9056,2.8492,2.7952,2.7308,2.6494,2.5882,2.5317,2.4585,2.3861,2.2923,2.2258,2.1084,1.9836,1.8879,1.7859,1.6812,1.5853,1.4983,1.401,1.304,1.216,1.1404,1.0815,1.0384,0.9821,0.9229,0.8733,0.8237,0.7753,0.7359,0.6948,0.6537,0.6037,5.9955,5.9529,5.9422,5.8534,5.7214,5.7094,5.6346,5.5359,5.5179,5.528,5.5481,5.5481,5.5581,5.578,5.5581,5.5381,5.5209,5.5209,5.5209,5.5179,5.5149,5.5149,5.5179,5.5209,5.5059,5.485,5.4581,5.3773,5.2935,5.2486,5.2037,5.1678,5.1439,5.1255,5.1066,5.0721,5.0405,5.0116,4.9892,4.9378,4.8885,4.8304,4.7753,4.7172,4.6969,4.6563,4.6185,4.5895,4.5808,4.5692,4.5372,4.4995,4.4821,4.4414,4.3631,4.2534,4.1935,4.1539,4.1142,4.0801,4.0201,3.9885,3.9267,3.864,3.7899,3.7148,3.6184,3.5079,3.431,3.3871,3.3196,3.2711,3.2376,3.2025,3.1673,3.1407,3.0871,3.042,3.0034,2.9874,2.9783,2.9371,2.8936,2.843,2.7957,2.7345,2.6639,2.5972,2.5381,2.4794,2.39,2.2795,2.1841,2.0778,1.9711,1.9003,1.7882,1.694,1.596,1.4973,1.3979,1.2978,1.2064,1.1197,1.0606,1.0146,0.9638,0.9069,0.8514,0.8026,0.7491,0.7089,0.681,0.6369,0.5737,5.9529,5.9422,5.9207,5.8321,5.7184,5.7094,5.6376,5.5269,5.5209,5.5179,5.528,5.528,5.528,5.528,5.528,5.5179,5.5209,5.5209,5.5209,5.5209,5.5209,5.5209,5.5209,5.5209,5.5209,5.5179,5.5089,5.467,5.3892,5.3324,5.2725,5.2217,5.2037,5.1733,5.1125,5.084,5.0405,5.0116,4.9892,4.964,4.9436,4.8914,4.8595,4.8159,4.7521,4.6911,4.6679,4.6301,4.5982,4.5924,4.5837,4.5459,4.4995,4.485,4.4356,4.3459,4.2682,4.1853,4.1199,4.0658,4.0312,3.9908,3.942,3.9006,3.8256,3.7284,3.6289,3.548,3.4692,3.3985,3.3344,3.2846,3.2299,3.1761,3.1407,3.096,3.042,3.0148,2.9783,2.9416,2.9231,2.9046,2.8631,2.8258,2.784,2.7223,2.6681,2.6101,2.5431,2.4727,2.3898,2.2774,2.1602,2.0523,1.9511,1.8798,1.7908,1.6846,1.5846,1.485,1.3824,1.2802,1.2064,1.1289,1.057,0.9863,0.9229,0.8686,0.8214,0.7814,0.7394,0.6992,0.6702,0.6134,0.5459,5.9315,5.9315,5.9099,5.8321,5.7184,5.7094,5.6376,5.5359,5.5209,5.5209,5.5209,5.5209,5.5209,5.5209,5.5209,5.5209,5.5209,5.5209,5.5209,5.5209,5.5209,5.5209,5.5209,5.5209,5.5209,5.5209,5.5179,5.5089,5.4581,5.4072,5.3414,5.2845,5.2725,5.2426,5.1608,5.1291,5.0958,5.0589,5.0154,4.9863,4.9708,4.9407,4.9088,4.874,4.8159,4.7724,4.7288,4.6766,4.6446,4.633,4.6156,4.5779,4.5547,4.5401,4.4991,4.4031,4.3627,4.2822,4.1737,4.0768,4.0253,3.9908,3.9469,3.8819,3.8342,3.7521,3.6585,3.5955,3.5183,3.442,3.3538,3.2901,3.2253,3.1728,3.1234,3.0691,3.0239,2.9874,2.9508,2.9139,2.8675,2.8488,2.8301,2.7998,2.7526,2.7084,2.6622,2.6139,2.5369,2.4507,2.3592,2.2522,2.1428,2.0361,1.9455,1.8478,1.7608,1.6636,1.5614,1.4596,1.3559,1.2611,1.1859,1.0993,1.0233,0.9488,0.872,0.8412,0.8157,0.7736,0.72,0.6866,0.6323,0.5672,0.5001,5.9099,5.9099,5.9099,5.8321,5.7124,5.7094,5.6376,5.5269,5.5209,5.5209,5.5209,5.5209,5.5209,5.5209,5.5209,5.5209,5.5209,5.5209,5.5209,5.5209,5.5209,5.5209,5.5209,5.5209,5.5209,5.5209,5.5209,5.5149,5.5029,5.464,5.4102,5.3473,5.3443,5.3054,5.2479,5.1899,5.138,5.0692,5.0375,5.0086,4.9863,4.9766,4.9475,4.9059,4.8769,4.8508,4.8014,4.7585,4.7265,4.6708,4.6475,4.6276,4.5866,4.575,4.5425,4.4604,4.4167,4.3531,4.2326,4.1267,4.036,3.9788,3.9292,3.8666,3.8122,3.7479,3.7006,3.6493,3.5596,3.4686,3.3826,3.3259,3.2418,3.1793,3.1219,3.0626,3.0171,2.9645,2.9254,2.8768,2.8395,2.8019,2.7736,2.7547,2.7262,2.688,2.6496,2.611,2.5276,2.4291,2.334,2.2386,2.1511,2.044,1.9475,1.8557,1.7531,1.6497,1.535,1.4417,1.336,1.2394,1.1638,1.0757,0.9869,0.9419,0.8913,0.8448,0.8085,0.7545,0.7095,0.649,0.5926,0.5279,0.4515,5.9099,5.9099,5.9099,5.8351,5.7094,5.7094,5.6376,5.5209,5.5209,5.5209,5.5209,5.5209,5.5209,5.5209,5.5209,5.5209,5.5209,5.5209,5.5209,5.5209,5.5209,5.5209,5.5209,5.5209,5.5209,5.5209,5.5209,5.5209,5.5179,5.5089,5.464,5.4221,5.4132,5.3713,5.3047,5.2442,5.1587,5.0958,5.0648,5.0338,5.0212,5.0086,4.9902,4.9563,4.9059,4.8711,4.8653,4.8283,4.7817,4.7114,4.6945,4.6654,4.6156,4.5953,4.5508,4.4972,4.4538,4.3896,4.2935,4.168,4.0664,3.9925,3.9203,3.8421,3.7965,3.7387,3.7057,3.6862,3.5906,3.5139,3.4421,3.378,3.2811,3.2038,3.132,3.0698,3.01,2.9364,2.897,2.851,2.8113,2.7736,2.7357,2.7167,2.688,2.6592,2.6014,2.5606,2.4922,2.4005,2.3132,2.2315,2.1626,2.0664,1.9758,1.8636,1.7317,1.6256,1.5211,1.418,1.3244,1.237,1.135,1.0599,0.9806,0.9406,0.8866,0.8317,0.7708,0.7362,0.6888,0.6293,0.5335,0.4545,0.3786,5.9099,5.9099,5.9099,5.8321,5.7094,5.7094,5.6376,5.5329,5.5209,5.5209,5.5209,5.5209,5.5209,5.5209,5.5209,5.5209,5.5209,5.5209,5.5209,5.5209,5.5209,5.5209,5.5209,5.5209,5.5209,5.5209,5.5209,5.5209,5.5209,5.5209,5.5119,5.485,5.476,5.4401,5.3704,5.3047,5.2197,5.1528,5.1224,5.1039,5.0405,5.0279,5.0183,4.9931,4.9844,4.9417,4.933,4.8864,4.8362,4.7898,4.7317,4.6853,4.6417,4.6127,4.5652,4.523,4.4824,4.4231,4.3266,4.1834,4.0481,3.9276,3.8782,3.833,3.7808,3.7294,3.7015,3.6633,3.5993,3.5297,3.4785,3.4026,3.3196,3.2371,3.1622,3.0947,3.018,2.9437,2.8842,2.84,2.7915,2.7547,2.7167,2.6784,2.6592,2.6304,2.5703,2.5118,2.443,2.3637,2.2937,2.2013,2.1318,2.0277,1.9257,1.8094,1.7041,1.5992,1.4934,1.3954,1.2881,1.2001,1.1093,1.0359,0.9699,0.9127,0.8446,0.7877,0.7396,0.7116,0.6552,0.5886,0.4904,0.3833,0.3079,5.9099,5.9099,5.889,5.8261,5.7423,5.7184,5.6496,5.5568,5.5269,5.5209,5.5209,5.5209,5.5209,5.5209,5.5209,5.5209,5.5209,5.5209,5.5209,5.5209,5.5209,5.5209,5.5209,5.5209,5.5209,5.5209,5.5209,5.5209,5.5209,5.5209,5.5149,5.5149,5.5179,5.482,5.4491,5.3832,5.3077,5.2442,5.1958,5.1684,5.0921,5.0685,5.0405,5.0183,5.0028,4.9902,4.9621,4.9204,4.8914,4.8478,4.7927,4.7288,4.6761,4.6355,4.5734,4.5316,4.4897,4.4422,4.3305,4.1902,4.0395,3.9301,3.9013,3.845,3.7742,3.7227,3.7015,3.6734,3.6048,3.5473,3.4936,3.427,3.348,3.2674,3.1984,3.1202,3.0385,2.9685,2.8903,2.8307,2.7819,2.7373,2.6784,2.64,2.6014,2.582,2.543,2.4824,2.4134,2.3438,2.2636,2.1725,2.0806,1.9761,1.8617,1.7674,1.6617,1.5565,1.4493,1.3413,1.2436,1.1564,1.0798,1.0139,0.9478,0.8706,0.814,0.768,0.732,0.6947,0.6155,0.5255,0.4411,0.3354,0.2394,5.9099,5.9009,5.8441,5.8141,5.7932,5.7363,5.6675,5.5987,5.5448,5.5209,5.5209,5.5209,5.5209,5.5209,5.5209,5.5209,5.5209,5.5209,5.5209,5.5209,5.5209,5.5209,5.5209,5.5209,5.5209,5.5209,5.5209,5.5209,5.5209,5.5209,5.5209,5.5209,5.5179,5.5149,5.5089,5.4521,5.3862,5.3204,5.2606,5.2204,5.1595,5.1208,5.0744,5.0375,5.0183,5.0086,4.9805,4.9582,4.9291,4.8885,4.8595,4.7956,4.7201,4.6697,4.6016,4.531,4.5011,4.4583,4.3882,4.2334,4.092,3.968,3.9455,3.8873,3.7805,3.7278,3.6947,3.6691,3.5978,3.562,3.5187,3.4654,3.3738,3.3064,3.2339,3.1524,3.07,2.9894,2.9223,2.8473,2.7862,2.7272,2.658,2.5917,2.5528,2.5235,2.5039,2.4548,2.3836,2.3038,2.2333,2.142,2.0498,1.945,1.8318,1.7358,1.6311,1.5137,1.4062,1.298,1.211,1.1236,1.0468,0.9816,0.9147,0.8374,0.7931,0.7487,0.6901,0.6208,0.549,0.4575,0.3755,0.2971,0.2106,5.9099,5.9039,5.8411,5.8141,5.7962,5.6944,5.6346,5.6077,5.5508,5.5209,5.5209,5.5209,5.5209,5.5209,5.5209,5.5209,5.5209,5.5209,5.5209,5.5209,5.5209,5.5209,5.5209,5.5209,5.5209,5.5209,5.5209,5.5209,5.5209,5.5209,5.5209,5.5209,5.5209,5.5179,5.5149,5.488,5.4521,5.3982,5.3563,5.3077,5.224,5.1786,5.1363,5.0626,5.0501,5.0183,4.999,4.9766,4.9524,4.9262,4.903,4.8508,4.7746,4.7268,4.6361,4.5652,4.5202,4.449,4.3804,4.2589,4.1531,4.0535,3.9826,3.9213,3.8084,3.7792,3.7304,3.6672,3.6053,3.579,3.5428,3.4628,3.3852,3.336,3.2727,3.1806,3.0965,3.0335,2.9621,2.8859,2.8214,2.7236,2.6406,2.5742,2.5333,2.4941,2.4646,2.4233,2.3538,2.2736,2.203,2.1113,2.0189,1.9153,1.8108,1.6948,1.5873,1.4815,1.3738,1.2654,1.1782,1.0907,1.0139,0.9478,0.8816,0.8152,0.7487,0.6932,0.6042,0.5238,0.4636,0.417,0.3482,0.2687,0.1912,5.8979,5.871,5.8052,5.7782,5.7603,5.6615,5.6077,5.5807,5.5388,5.5209,5.5209,5.5209,5.5209,5.5209,5.5209,5.5209,5.5209,5.5209,5.5209,5.5209,5.5209,5.5209,5.5209,5.5209,5.5209,5.5209,5.5209,5.5209,5.5209,5.5209,5.5209,5.5209,5.5209,5.5209,5.5179,5.5089,5.497,5.4491,5.4192,5.3743,5.3025,5.2486,5.1882,5.1238,5.084,5.0471,5.0183,4.999,4.9766,4.9621,4.932,4.8943,4.8412,4.7788,4.6727,4.6109,4.495,4.4237,4.3586,4.2722,4.1753,4.1106,4.0499,3.9599,3.8608,3.8261,3.7546,3.686,3.6205,3.5768,3.5405,3.4626,3.3988,3.3469,3.2855,3.1929,3.1077,3.044,2.9965,2.9199,2.8387,2.742,2.6408,2.5625,2.5118,2.4726,2.4332,2.3836,2.3238,2.2535,2.1607,2.0704,1.9776,1.8736,1.7582,1.6524,1.5458,1.4385,1.3305,1.2327,1.1455,1.0688,0.9809,0.9037,0.8484,0.782,0.7043,0.627,0.5596,0.4804,0.4114,0.354,0.3088,0.2403,0.1511,5.871,5.8052,5.7363,5.7064,5.6944,5.6449,5.5849,5.5239,5.5179,5.5179,5.5209,5.528,5.5209,5.5209,5.5209,5.5209,5.5209,5.5209,5.5209,5.5209,5.5209,5.5209,5.5209,5.5209,5.5209,5.5209,5.5209,5.5209,5.5209,5.5209,5.5209,5.5209,5.5209,5.5209,5.5209,5.5179,5.5119,5.491,5.461,5.4221,5.3713,5.2995,5.239,5.175,5.1202,5.0714,5.0338,5.0086,4.9892,4.9737,4.964,4.9262,4.8779,4.8258,4.7262,4.6083,4.4534,4.3998,4.3533,4.2814,4.2262,4.1719,4.1187,4.0103,3.9323,3.8702,3.813,3.7315,3.6628,3.599,3.5357,3.4698,3.396,3.3415,3.2846,3.1971,3.1073,3.0554,3.02,2.9538,2.8819,2.7863,2.6704,2.5775,2.5131,2.4758,2.4244,2.3438,2.2837,2.2232,2.1318,2.038,1.9361,1.8213,1.716,1.6205,1.5244,1.4169,1.3088,1.211,1.1236,1.0359,0.9588,0.8816,0.8263,0.7604,0.6715,0.5935,0.5262,0.447,0.3792,0.3347,0.3001,0.1782,0.0775,5.8291,5.8022,5.6915,5.6539,5.6654,5.6254,5.5832,5.5511,5.5481,5.5481,5.5481,5.5481,5.5411,5.5209,5.5209,5.5179,5.5179,5.5209,5.5209,5.5209,5.5209,5.5209,5.5209,5.5209,5.5209,5.5209,5.5209,5.5179,5.5209,5.5209,5.5179,5.5209,5.528,5.5179,5.5179,5.5209,5.5209,5.5149,5.491,5.464,5.4341,5.3713,5.2987,5.2293,5.1839,5.1195,5.0581,5.0271,5.0048,4.9795,4.9698,4.9494,4.9465,4.8488,4.7413,4.5957,4.4983,4.418,4.3834,4.2824,4.2119,4.2047,4.1413,4.0478,3.9719,3.9165,3.8639,3.7717,3.7072,3.6603,3.5866,3.5004,3.4217,3.3554,3.2881,3.2126,3.1202,3.0681,3.0326,2.9642,2.8917,2.8101,2.6855,2.6064,2.5434,2.492,2.419,2.3362,2.2451,2.1843,2.1011,2.0086,1.9049,1.7898,1.6842,1.5885,1.4922,1.3964,1.2871,1.1891,1.1017,1.0249,0.9368,0.8484,0.7715,0.7049,0.6497,0.5712,0.4927,0.4257,0.358,0.325,0.2692,0.1458,0.0112,5.7678,5.7348,5.6732,5.6323,5.6325,5.6001,5.5819,5.5849,5.578,5.578,5.578,5.578,5.5681,5.5581,5.5481,5.5381,5.5381,5.528,5.5209,5.5209,5.5209,5.5209,5.5209,5.5209,5.5209,5.5209,5.5179,5.528,5.528,5.5481,5.5481,5.5381,5.5381,5.528,5.5179,5.5209,5.5209,5.5209,5.5119,5.494,5.467,5.4371,5.3653,5.3114,5.2591,5.1862,5.0943,5.0661,5.035,4.9853,4.9698,4.9669,4.9455,4.8603,4.7616,4.6308,4.5468,4.4606,4.3939,4.3076,4.2511,4.2027,4.1324,4.0614,4.0158,3.9752,3.8944,3.8014,3.7664,3.7164,3.6319,3.5456,3.4544,3.3637,3.2938,3.2156,3.1555,3.0952,3.0266,2.9702,2.8914,2.8137,2.7207,2.6327,2.5571,2.509,2.4434,2.3525,2.2537,2.1722,2.0751,1.9776,1.8736,1.7687,1.663,1.5565,1.4708,1.3748,1.2762,1.1782,1.0907,0.9919,0.9037,0.8042,0.7049,0.6492,0.6047,0.5377,0.4592,0.3921,0.3362,0.2805,0.213,0.1009,-0.0224,5.6912,5.6707,5.6617,5.6355,5.6009,5.5888,5.6085,5.6342,5.6176,5.6077,5.6077,5.6077,5.5979,5.588,5.5681,5.5581,5.5481,5.5381,5.528,5.5209,5.5209,5.5209,5.5209,5.5209,5.5209,5.5209,5.528,5.5381,5.5681,5.578,5.578,5.5681,5.5581,5.5481,5.528,5.528,5.528,5.5209,5.5209,5.5089,5.4999,5.464,5.4221,5.4042,5.3435,5.274,5.1816,5.1229,5.0955,5.0126,4.9698,4.9698,4.9202,4.8775,4.7773,4.6895,4.5979,4.5166,4.4203,4.3352,4.2525,4.186,4.1023,4.0541,4.0236,4.0007,3.922,3.8534,3.8079,3.7526,3.6753,3.605,3.5175,3.4267,3.3401,3.2524,3.1646,3.0872,3.0078,2.9493,2.9056,2.8192,2.7571,2.6702,2.5919,2.5307,2.4571,2.3617,2.2669,2.1762,2.0669,1.9658,1.8541,1.749,1.6418,1.5351,1.4493,1.3521,1.2555,1.1673,1.0696,0.9809,0.8823,0.7826,0.6826,0.6154,0.5596,0.4927,0.4369,0.3698,0.3026,0.2356,0.1458,0.0449,-0.0896,5.6798,5.6789,5.6503,5.6396,5.6372,5.6439,5.6634,5.6664,5.6664,5.647,5.6372,5.6274,5.6176,5.6077,5.5979,5.588,5.5681,5.5481,5.5381,5.531,5.5209,5.5209,5.5209,5.5209,5.5209,5.528,5.5381,5.5681,5.588,5.5979,5.5979,5.588,5.588,5.578,5.5481,5.5481,5.5381,5.528,5.5209,5.5209,5.5119,5.5029,5.479,5.4401,5.3794,5.306,5.2201,5.1503,5.0798,4.9912,4.9824,4.9502,4.9079,4.8837,4.8183,4.7263,4.6514,4.5696,4.4678,4.3734,4.277,4.1869,4.1103,4.0618,4.0236,3.9981,3.9519,3.9005,3.8417,3.7813,3.7284,3.6621,3.5887,3.4901,3.3867,3.2834,3.1779,3.0874,3.0015,2.9493,2.9116,2.8509,2.7776,2.7093,2.6337,2.555,2.4667,2.3738,2.2878,2.19,2.0829,1.9641,1.8373,1.7292,1.6254,1.5171,1.4331,1.3345,1.2374,1.1481,1.0586,0.9375,0.8269,0.7487,0.671,0.6042,0.5485,0.4927,0.4257,0.3474,0.2914,0.2356,0.0786,-0.0449,-0.1683,5.6525,5.6633,5.6721,5.673,5.673,5.6892,5.7084,5.7146,5.7177,5.7081,5.6827,5.6664,5.647,5.6274,5.6274,5.6077,5.588,5.5681,5.5581,5.5381,5.528,5.5209,5.5209,5.5209,5.5209,5.528,5.5581,5.588,5.6176,5.6274,5.6372,5.6176,5.6176,5.6077,5.578,5.5681,5.5581,5.5381,5.528,5.5179,5.5179,5.5119,5.5059,5.47,5.4361,5.3625,5.2822,5.2063,5.1179,5.029,4.9803,4.9305,4.9009,4.8753,4.8179,4.7513,4.6854,4.6243,4.5142,4.409,4.3092,4.2084,4.1337,4.0901,4.016,3.9878,3.9465,3.8976,3.8742,3.8185,3.7637,3.7014,3.6414,3.5491,3.4479,3.3431,3.2144,3.0874,2.9972,2.9323,2.8966,2.8542,2.7931,2.7378,2.6635,2.5721,2.4791,2.4046,2.3154,2.2132,2.1048,1.9828,1.8693,1.7486,1.6514,1.5315,1.4081,1.3197,1.2238,1.1059,0.9934,0.8823,0.7826,0.7049,0.6492,0.5935,0.5266,0.4714,0.3924,0.3141,0.2692,0.2244,0.0562,-0.113,-0.2493,5.6274,5.6537,5.7019,5.718,5.718,5.7307,5.7338,5.7495,5.7684,5.7684,5.7401,5.7019,5.6954,5.6761,5.6567,5.647,5.6274,5.5979,5.578,5.5581,5.5381,5.528,5.5179,5.5209,5.528,5.5481,5.578,5.6176,5.647,5.6567,5.6567,5.647,5.6372,5.6274,5.6077,5.588,5.5681,5.5581,5.5381,5.528,5.5179,5.5179,5.5149,5.5149,5.5149,5.4518,5.3592,5.2641,5.1795,5.0854,4.9849,4.9293,4.8909,4.861,4.8004,4.7466,4.7157,4.631,4.5257,4.4649,4.3519,4.2502,4.175,4.1054,4.0311,3.9825,3.9411,3.905,3.8841,3.8502,3.795,3.7453,3.6744,3.6084,3.5001,3.3807,3.2338,3.0979,3.018,2.9298,2.8814,2.8514,2.796,2.7422,2.6735,2.5918,2.5046,2.4326,2.3409,2.2466,2.1304,2.0215,1.9071,1.7968,1.6845,1.5578,1.4151,1.3204,1.2329,1.0826,0.9521,0.8667,0.7768,0.6715,0.6047,0.573,0.5069,0.4405,0.3608,0.2939,0.2276,0.1601,0.0114,-0.1607,-0.3222,5.6537,5.7019,5.7306,5.7401,5.7495,5.7464,5.7464,5.7495,5.7495,5.7495,5.7495,5.7495,5.7306,5.7019,5.6858,5.6664,5.647,5.6176,5.588,5.5581,5.5481,5.5381,5.528,5.5179,5.5481,5.5681,5.5979,5.6274,5.6567,5.6761,5.6761,5.6664,5.6664,5.6567,5.6372,5.6176,5.5979,5.578,5.5581,5.5381,5.528,5.5209,5.5179,5.5209,5.5179,5.4458,5.3592,5.2741,5.1795,5.0784,4.9808,4.9293,4.881,4.8409,4.7903,4.7391,4.7081,4.6374,4.5552,4.4969,4.3914,4.2941,4.2211,4.1335,4.0641,4.0002,3.9536,3.8945,3.8736,3.8526,3.7974,3.7441,3.6825,3.6148,3.5318,3.37,3.2041,3.1275,3.0514,2.9672,2.9046,2.8408,2.7638,2.7206,2.6663,2.5863,2.4982,2.4183,2.3612,2.256,2.1616,2.0554,1.9486,1.8177,1.693,1.5648,1.4403,1.3448,1.2311,1.081,0.9603,0.8778,0.7856,0.6694,0.6102,0.5769,0.5104,0.423,0.3679,0.3003,0.1864,0.0818,-0.0583,-0.2216,-0.3861]},{"header":{"parameterUnit":"m.s-1","parameterCategory":1,"la1":31.0,"la2":29.5877,"lo1":-88.7671,"lo2":-86.6584,"dy":0.0162,"dx":0.0185,"nx":115,"ny":88,"refTime":"2023-11-20T18:00:00:Z","depth":0,"parameterNumber":3,"parameterNumberName":"V-component_of_WINDS"},"data":[0.0,0.0,0.0,0.0,0.0,0.0,0.0,0.0,0.0,0.0,0.0,0.0,0.0,0.0,0.0,0.0,0.0,0.0,0.0,0.0,0.0,0.0,0.0,0.0,0.0,0.0,0.0,0.0,0.0,0.0,0.0,0.0,0.0,0.0,0.0,0.0,0.0,0.0,0.0,0.0,0.0,0.0,0.0,0.0,0.0,0.0,0.0,0.0,0.0,0.0,0.0,0.0,0.0,0.0,0.0,0.0,0.0,0.0,0.0,0.0,0.0,0.0,0.0,0.0,0.0,0.0,0.0,0.0,0.0,0.0,0.0,0.0,0.0,0.0,0.0,0.0,0.0,0.0,0.0,0.0,0.0,0.0,0.0,0.0,0.0,0.0,0.0,0.0,0.0,0.0,0.0,0.0,0.0,0.0,0.0,0.0,0.0,0.0,0.0,0.0,0.0,0.0,0.0,0.0,0.0,0.0,0.0,0.0,0.0,0.0,0.0,0.0,0.0,0.0,0.0,0.0,0.0,0.0,0.0,0.0,0.0,0.0,0.0,0.0,0.0,0.0,0.0,0.0,0.0,0.0,0.0,0.0,0.0,0.0,0.0,0.0,0.0,0.0,0.0,0.0,0.0,0.0,0.0,0.0,0.0,0.0,0.0,0.0,0.0,0.0,0.0,0.0,0.0,0.0,0.0,0.0,0.0,0.0,0.0,0.0,0.0,0.0,0.0,0.0,0.0,0.0,0.0,0.0,0.0,0.0,0.0,0.0,0.0,0.0,0.0,0.0,0.0,0.0,0.0,0.0,0.0,0.0,0.0,0.0,0.0,0.0,0.0,0.0,0.0,0.0,0.0,0.0,0.0,0.0,0.0,0.0,0.0,0.0,0.0,0.0,0.0,0.0,0.0,0.0,0.0,0.0,0.0,0.0,0.0,0.0,0.0,0.0,0.0,0.0,0.0,0.0,0.0,0.0,0.0,0.0,0.0,0.0,0.0,0.0,0.0,0.0,0.0,0.0,0.0,0.0,0.0,0.0,0.0,0.0,0.0,0.0,0.0,0.0,0.0,0.0,0.0,0.0,0.0,0.0,0.0,0.0,0.0,0.0,0.0,0.0,0.0,0.0,0.0,0.0,0.0,0.0,0.0,0.0,0.0,0.0,0.0,0.0,0.0,0.0,0.0,0.0,0.0,0.0,0.0,0.0,0.0,0.0,0.0,0.0,0.0,0.0,0.0,0.0,0.0,0.0,0.0,0.0,0.0,0.0,0.0,0.0,0.0,0.0,0.0,0.0,0.0,0.0,0.0,0.0,0.0,0.0,0.0,0.0,0.0,0.0,0.0,0.0,0.0,0.0,0.0,0.0,0.0,0.0,0.0,0.0,0.0,0.0,0.0,0.0,0.0,0.0,0.0,0.0,0.0,0.0,0.0,0.0,0.0,0.0,0.0,0.0,0.0,0.0,0.0,0.0,0.0,0.0,0.0,0.0,0.0,0.0,0.0,0.0,0.0,0.0,0.0,0.0,0.0,0.0,0.0,0.0,0.0,0.0,0.0,0.0,0.0,0.0,0.0,0.0,0.0,0.0,0.0,0.0,0.0,0.0,0.0,0.0,0.0,0.0,0.0,0.0,0.0,0.0,0.0,0.0,0.0,0.0,0.0,0.0,0.0,0.0,0.0,0.0,0.0,0.0,0.0,0.0,0.0,0.0,0.0,0.0,0.0,0.0,0.0,0.0,0.0,0.0,0.0,0.0,0.0,0.0,0.0,0.0,0.0,0.0,0.0,0.0,0.0,0.0,0.0,0.0,0.0,0.0,0.0,0.0,0.0,0.0,0.0,0.0,0.0,0.0,0.0,0.0,0.0,0.0,0.0,0.0,0.0,0.0,0.0,0.0,0.0,0.0,0.0,0.0,0.0,0.0,0.0,0.0,0.0,0.0,0.0,0.0,0.0,0.0,0.0,0.0,0.0,0.0,0.0,0.0,0.0,0.0,0.0,0.0,0.0,0.0,0.0,0.0,0.0,0.0,0.0,0.0,0.0,0.0,0.0,0.0,0.0,0.0,0.0,0.0,0.0,0.0,0.0,0.0,0.0,0.0,0.0,0.0,0.0,0.0,0.0,0.0,0.0,0.0,0.0,0.0,0.0,0.0,0.0,0.0,0.0,0.0,0.0,0.0,0.0,0.0,0.0,0.0,0.0,0.0,0.0,0.0,0.0,0.0,0.0,0.0,0.0,0.0,0.0,0.0,0.0,0.0,0.0,0.0,0.0,0.0,0.0,0.0,0.0,0.0,0.0,0.0,0.0,0.0,0.0,0.0,0.0,0.0,0.0,0.0,0.0,0.0,0.0,0.0,0.0,0.0,0.0,0.0,0.0,0.0,0.0,0.0,0.0,0.0,0.0,0.0,0.0,0.0,0.0,0.0,0.0,0.0,0.0,0.0,0.0,0.0,0.0,0.0,0.0,0.0,0.0,0.0,0.0,0.0,0.0,0.0,0.0,0.0,0.0,0.0,0.0,0.0,0.0,0.0,0.0,0.0,0.0,0.0,0.0,0.0,0.0,0.0,0.0,0.0,0.0,0.0,0.0,0.0,0.0,0.0,0.0,0.0,0.0,0.0,0.0,0.0,0.0,0.0,0.0,0.0,0.0,0.0,0.0,0.0,0.0,0.0,0.0,0.0,0.0,0.0,0.0,0.0,0.0,0.0,0.0,0.0,0.0,0.0,0.0,0.0,0.0,0.0,0.0,0.0,0.0,0.0,0.0,0.0,0.0,0.0,0.0,0.0,0.0,0.0,0.0,0.0,0.0,0.0,0.0,0.0,0.0,0.0,0.0,0.0,0.0,0.0,0.0,0.0,0.0,0.0,0.0,0.0,0.0,0.0,0.0,0.0,0.0,0.0,0.0,0.0,0.0,0.0,0.0,0.0,0.0,0.0,0.0,0.0,0.0,0.0,0.0,0.0,0.0,0.0,0.0,0.0,0.0,0.0,0.0,0.0,0.0,0.0,0.0,0.0,0.0,0.0,0.0,0.0,0.0,0.0,0.0,0.0,0.0,0.0,0.0,0.0,0.0,0.0,0.0,0.0,0.0,0.0,0.0,0.0,0.0,0.0,0.0,0.0,0.0,0.0,0.0,0.0,0.0,0.0,0.0,0.0,0.0,0.0,0.0,0.0,0.0,0.0,0.0,0.0,0.0,0.0,0.0,0.0,0.0,0.0,0.0,0.0,0.0,0.0,0.0,0.0,0.0,0.0,0.0,0.0,0.0,0.0,0.0,0.0,0.0,0.0,0.0,0.0,0.0,0.0,0.0,0.0,0.0,0.0,0.0,0.0,0.0,0.0,0.0,0.0,0.0,0.0,0.0,0.0,0.0,0.0,0.0,0.0,0.0,0.0,0.0,0.0,0.0,0.0,0.0,0.0,0.0,0.0,0.0,0.0,0.0,0.0,0.0,0.0,0.0,0.0,0.0,0.0,0.0,0.0,0.0,0.0,0.0,0.0,0.0,0.0,0.0,0.0,0.0,0.0,0.0,0.0,0.0,0.0,0.0,0.0,0.0,0.0,0.0,0.0,0.0,0.0,0.0,0.0,0.0,0.0,0.0,0.0,0.0,0.0,0.0,0.0,0.0,0.0,0.0,0.0,0.0,0.0,0.0,0.0,0.0,0.0,0.0,0.0,0.0,0.0,0.0,0.0,0.0,0.0,0.0,0.0,0.0,0.0,0.0,0.0,0.0,0.0,0.0,0.0,0.0,0.0,0.0,0.0,0.0,0.0,0.0,0.0,0.0,0.0,0.0,0.0,0.0,0.0,0.0,0.0,0.0,0.0,0.0,0.0,0.0,0.0,0.0,0.0,0.0,0.0,0.0,0.0,0.0,0.0,0.0,0.0,0.0,0.0,0.0,0.0,0.0,0.0,0.0,0.0,0.0,0.0,0.0,0.0,0.0,0.0,0.0,0.0,0.0,0.0,0.0,0.0,0.0,0.0,0.0,0.0,0.0,0.0,0.0,0.0,0.0,0.0,0.0,0.0,0.0,0.0,0.0,0.0,0.0,0.0,0.0,0.0,0.0,0.0,0.0,0.0,0.0,0.0,0.0,0.0,0.0,0.0,0.0,0.0,0.0,0.0,0.0,0.0,0.0,0.0,0.0,0.0,0.0,0.0,0.0,0.0,0.0,0.0,0.0,0.0,0.0,0.0,0.0,0.0,0.0,0.0,0.0,0.0,0.0,0.0,0.0,0.0,0.0,0.0,0.0,0.0,0.0,0.0,0.0,0.0,-1.6531,0.0,0.0,0.0,0.0,0.0,0.0,0.0,0.0,0.0,0.0,0.0,0.0,0.0,0.0,0.0,0.0,0.0,0.0,0.0,0.0,0.0,0.0,0.0,0.0,0.0,0.0,0.0,0.0,0.0,0.0,0.0,0.0,0.0,0.0,0.0,0.0,0.0,0.0,0.0,0.0,0.0,0.0,0.0,0.0,0.0,0.0,0.0,0.0,0.0,0.0,0.0,0.0,0.0,0.0,0.0,0.0,0.0,0.0,0.0,0.0,0.0,0.0,0.0,0.0,0.0,0.0,0.0,0.0,0.0,0.0,0.0,0.0,0.0,0.0,0.0,0.0,0.0,0.0,0.0,0.0,0.0,0.0,0.0,0.0,0.0,0.0,0.0,0.0,0.0,0.0,0.0,0.0,0.0,0.0,0.0,0.0,0.0,0.0,0.0,0.0,0.0,0.0,0.0,0.0,0.0,0.0,0.0,0.0,0.0,0.0,-1.8608,-1.8552,-1.8047,-1.7565,-1.7037,0.0,0.0,0.0,0.0,0.0,0.0,0.0,0.0,0.0,0.0,0.0,0.0,0.0,0.0,0.0,0.0,0.0,0.0,0.0,0.0,0.0,0.0,0.0,0.0,0.0,0.0,0.0,0.0,0.0,0.0,0.0,0.0,0.0,0.0,0.0,0.0,0.0,0.0,0.0,0.0,0.0,0.0,0.0,0.0,0.0,0.0,0.0,0.0,0.0,0.0,0.0,0.0,0.0,0.0,0.0,0.0,0.0,0.0,0.0,0.0,0.0,0.0,0.0,0.0,0.0,0.0,0.0,0.0,0.0,0.0,0.0,0.0,0.0,0.0,0.0,0.0,0.0,0.0,0.0,0.0,0.0,0.0,0.0,0.0,0.0,0.0,0.0,0.0,0.0,0.0,0.0,0.0,0.0,0.0,0.0,0.0,0.0,0.0,0.0,0.0,0.0,0.0,0.0,0.0,0.0,0.0,0.0,0.0,0.0,0.0,0.0,0.0,-1.8575,-1.7955,-1.722,0.0,0.0,0.0,0.0,0.0,0.0,0.0,0.0,0.0,0.0,0.0,0.0,0.0,0.0,0.0,0.0,0.0,0.0,0.0,0.0,0.0,0.0,0.0,0.0,0.0,0.0,0.0,0.0,0.0,0.0,0.0,0.0,0.0,0.0,0.0,0.0,0.0,0.0,0.0,0.0,0.0,0.0,0.0,0.0,0.0,0.0,0.0,0.0,0.0,0.0,0.0,0.0,0.0,0.0,0.0,0.0,0.0,0.0,0.0,0.0,0.0,0.0,0.0,0.0,0.0,0.0,0.0,0.0,0.0,0.0,0.0,0.0,0.0,0.0,0.0,0.0,0.0,0.0,0.0,0.0,0.0,0.0,0.0,0.0,0.0,0.0,0.0,0.0,0.0,0.0,0.0,0.0,0.0,0.0,0.0,0.0,0.0,0.0,0.0,0.0,0.0,0.0,0.0,0.0,0.0,0.0,0.0,0.0,0.0,0.0,-1.9843,-1.982,-1.9137,0.0,-1.6784,0.0,0.0,0.0,0.0,0.0,0.0,0.0,0.0,0.0,0.0,0.0,0.0,0.0,0.0,0.0,0.0,0.0,0.0,0.0,0.0,0.0,0.0,0.0,0.0,0.0,0.0,0.0,0.0,0.0,0.0,0.0,0.0,0.0,0.0,0.0,0.0,0.0,0.0,0.0,0.0,0.0,0.0,0.0,0.0,0.0,0.0,0.0,0.0,0.0,0.0,0.0,0.0,0.0,0.0,0.0,0.0,0.0,0.0,0.0,0.0,0.0,0.0,0.0,0.0,0.0,0.0,0.0,0.0,0.0,0.0,0.0,0.0,0.0,0.0,0.0,0.0,0.0,0.0,0.0,0.0,0.0,0.0,0.0,0.0,0.0,0.0,0.0,0.0,0.0,0.0,0.0,0.0,0.0,0.0,0.0,0.0,0.0,0.0,0.0,0.0,0.0,0.0,0.0,0.0,0.0,0.0,0.0,0.0,0.0,0.0,-2.0391,-2.0234,-1.9368,-1.846,0.0,0.0,0.0,0.0,0.0,0.0,0.0,0.0,0.0,0.0,0.0,0.0,0.0,0.0,0.0,0.0,0.0,0.0,0.0,0.0,0.0,0.0,0.0,0.0,0.0,0.0,0.0,0.0,0.0,0.0,0.0,0.0,0.0,0.0,0.0,0.0,0.0,0.0,0.0,0.0,0.0,0.0,0.0,0.0,0.0,0.0,0.0,0.0,0.0,0.0,0.0,0.0,0.0,0.0,0.0,0.0,0.0,0.0,0.0,0.0,0.0,0.0,0.0,0.0,0.0,0.0,0.0,0.0,0.0,0.0,0.0,0.0,0.0,0.0,0.0,0.0,0.0,0.0,0.0,0.0,0.0,0.0,0.0,0.0,0.0,0.0,0.0,0.0,0.0,0.0,0.0,0.0,0.0,0.0,0.0,0.0,0.0,0.0,0.0,0.0,0.0,0.0,0.0,0.0,0.0,0.0,0.0,0.0,0.0,0.0,-2.1172,-2.0918,-2.0389,-1.9503,-1.8748,-1.8107,0.0,0.0,0.0,0.0,0.0,0.0,0.0,0.0,0.0,0.0,0.0,0.0,0.0,0.0,0.0,0.0,0.0,0.0,0.0,0.0,0.0,0.0,0.0,0.0,0.0,0.0,0.0,0.0,0.0,0.0,0.0,0.0,0.0,0.0,0.0,0.0,0.0,0.0,0.0,0.0,0.0,0.0,0.0,0.0,0.0,0.0,0.0,0.0,0.0,0.0,0.0,0.0,0.0,0.0,0.0,0.0,0.0,0.0,0.0,0.0,0.0,0.0,0.0,0.0,0.0,0.0,0.0,0.0,0.0,0.0,0.0,0.0,0.0,0.0,0.0,0.0,0.0,0.0,0.0,0.0,0.0,0.0,0.0,0.0,0.0,0.0,0.0,0.0,0.0,0.0,0.0,0.0,0.0,0.0,0.0,0.0,0.0,0.0,0.0,0.0,0.0,0.0,0.0,0.0,0.0,0.0,0.0,0.0,0.0,-2.1714,-2.123,-2.0435,-1.9704,-1.8976,0.0,0.0,0.0,0.0,0.0,0.0,0.0,0.0,0.0,0.0,0.0,0.0,0.0,0.0,0.0,0.0,0.0,0.0,0.0,0.0,0.0,0.0,0.0,0.0,0.0,0.0,0.0,0.0,0.0,0.0,0.0,0.0,0.0,0.0,0.0,0.0,0.0,0.0,0.0,0.0,0.0,0.0,0.0,0.0,0.0,0.0,0.0,0.0,0.0,0.0,0.0,0.0,0.0,0.0,0.0,0.0,0.0,0.0,0.0,0.0,0.0,0.0,0.0,0.0,0.0,0.0,0.0,0.0,0.0,0.0,0.0,0.0,0.0,0.0,0.0,0.0,0.0,0.0,0.0,0.0,0.0,0.0,0.0,0.0,0.0,0.0,0.0,0.0,0.0,0.0,0.0,0.0,0.0,0.0,0.0,0.0,0.0,0.0,0.0,0.0,0.0,0.0,0.0,0.0,0.0,0.0,0.0,0.0,0.0,-2.1542,-2.1423,-2.1141,-2.0745,-1.9848,-1.9236,0.0,0.0,0.0,0.0,0.0,0.0,0.0,0.0,0.0,0.0,0.0,0.0,0.0,0.0,0.0,0.0,0.0,0.0,0.0,0.0,0.0,0.0,0.0,0.0,0.0,0.0,0.0,0.0,0.0,0.0,0.0,0.0,0.0,0.0,0.0,0.0,0.0,0.0,0.0,0.0,0.0,0.0,0.0,0.0,0.0,0.0,0.0,0.0,0.0,0.0,0.0,0.0,0.0,0.0,0.0,0.0,0.0,0.0,0.0,0.0,0.0,0.0,0.0,0.0,0.0,0.0,0.0,0.0,0.0,0.0,0.0,0.0,0.0,0.0,0.0,0.0,0.0,0.0,0.0,0.0,0.0,0.0,0.0,0.0,0.0,0.0,0.0,0.0,0.0,0.0,0.0,0.0,0.0,0.0,0.0,0.0,0.0,0.0,0.0,0.0,0.0,0.0,0.0,0.0,0.0,0.0,0.0,0.0,0.0,-2.1609,0.0,-2.1335,0.0,-2.0285,-1.9674,0.0,0.0,0.0,0.0,0.0,0.0,0.0,0.0,0.0,0.0,0.0,0.0,0.0,0.0,0.0,0.0,0.0,0.0,0.0,0.0,0.0,0.0,0.0,0.0,0.0,0.0,0.0,0.0,0.0,0.0,0.0,0.0,0.0,0.0,0.0,0.0,0.0,0.0,0.0,0.0,0.0,0.0,0.0,0.0,0.0,0.0,0.0,0.0,0.0,0.0,0.0,0.0,0.0,0.0,0.0,0.0,0.0,0.0,0.0,0.0,0.0,0.0,0.0,0.0,0.0,0.0,0.0,0.0,0.0,0.0,0.0,0.0,0.0,0.0,0.0,0.0,0.0,0.0,0.0,0.0,0.0,0.0,0.0,0.0,0.0,0.0,0.0,0.0,0.0,0.0,0.0,0.0,0.0,0.0,0.0,0.0,0.0,0.0,0.0,0.0,0.0,0.0,0.0,0.0,0.0,0.0,0.0,0.0,-2.1354,-2.2143,-2.1993,-2.1795,-2.1663,-2.1012,-2.0313,0.0,0.0,0.0,0.0,0.0,0.0,0.0,0.0,0.0,0.0,0.0,0.0,0.0,0.0,0.0,0.0,0.0,0.0,0.0,0.0,0.0,0.0,0.0,0.0,0.0,0.0,0.0,0.0,0.0,0.0,0.0,0.0,0.0,0.0,0.0,0.0,0.0,0.0,0.0,0.0,0.0,0.0,0.0,0.0,0.0,0.0,0.0,0.0,0.0,0.0,0.0,0.0,0.0,0.0,0.0,0.0,0.0,0.0,0.0,0.0,0.0,0.0,0.0,0.0,0.0,0.0,0.0,0.0,0.0,0.0,0.0,0.0,0.0,0.0,0.0,0.0,0.0,0.0,0.0,0.0,0.0,0.0,0.0,0.0,0.0,0.0,0.0,0.0,0.0,0.0,0.0,0.0,0.0,0.0,0.0,0.0,0.0,0.0,0.0,0.0,0.0,0.0,0.0,0.0,0.0,0.0,0.0,0.0,0.0,-2.1993,-2.2271,-2.2138,-2.153,-2.0992,-2.021,0.0,0.0,0.0,0.0,0.0,0.0,0.0,0.0,0.0,0.0,0.0,0.0,0.0,0.0,0.0,0.0,0.0,0.0,0.0,0.0,0.0,0.0,0.0,0.0,0.0,0.0,0.0,0.0,0.0,0.0,0.0,0.0,0.0,0.0,0.0,0.0,0.0,0.0,0.0,0.0,0.0,0.0,0.0,0.0,0.0,0.0,0.0,0.0,0.0,0.0,0.0,0.0,0.0,0.0,0.0,0.0,0.0,0.0,0.0,0.0,0.0,0.0,0.0,0.0,0.0,0.0,0.0,0.0,0.0,0.0,0.0,0.0,0.0,0.0,0.0,0.0,0.0,0.0,0.0,0.0,0.0,0.0,0.0,0.0,0.0,0.0,0.0,0.0,0.0,0.0,0.0,0.0,0.0,0.0,0.0,0.0,0.0,0.0,0.0,0.0,0.0,0.0,0.0,0.0,0.0,0.0,0.0,0.0,0.0,-2.319,-2.3329,-2.3006,-2.2411,-2.1868,-2.0902,-1.9432,0.0,0.0,0.0,0.0,0.0,0.0,0.0,0.0,0.0,0.0,0.0,0.0,0.0,0.0,0.0,0.0,0.0,0.0,0.0,0.0,0.0,0.0,0.0,0.0,0.0,0.0,0.0,0.0,0.0,0.0,0.0,0.0,0.0,0.0,0.0,0.0,0.0,0.0,0.0,0.0,0.0,0.0,0.0,0.0,0.0,0.0,0.0,0.0,0.0,0.0,0.0,0.0,0.0,0.0,0.0,0.0,0.0,0.0,0.0,0.0,0.0,0.0,0.0,0.0,0.0,0.0,0.0,0.0,0.0,0.0,0.0,0.0,0.0,0.0,0.0,0.0,0.0,0.0,0.0,0.0,0.0,0.0,0.0,0.0,0.0,0.0,0.0,0.0,0.0,0.0,0.0,0.0,0.0,0.0,0.0,0.0,0.0,0.0,0.0,0.0,0.0,0.0,0.0,0.0,0.0,0.0,0.0,0.0,-2.5424,-2.5005,-2.4507,-2.41,-2.3549,-2.223,0.0,0.0,0.0,0.0,0.0,0.0,0.0,0.0,0.0,0.0,0.0,0.0,0.0,0.0,0.0,0.0,0.0,0.0,0.0,0.0,0.0,0.0,0.0,0.0,0.0,0.0,0.0,0.0,0.0,0.0,0.0,0.0,0.0,0.0,0.0,0.0,0.0,0.0,0.0,0.0,0.0,0.0,0.0,0.0,0.0,0.0,0.0,0.0,0.0,0.0,0.0,0.0,0.0,0.0,0.0,0.0,0.0,0.0,0.0,0.0,0.0,0.0,0.0,0.0,0.0,0.0,0.0,0.0,0.0,0.0,0.0,0.0,0.0,0.0,0.0,0.0,0.0,0.0,0.0,0.0,0.0,0.0,0.0,0.0,0.0,0.0,0.0,0.0,0.0,0.0,0.0,0.0,0.0,0.0,0.0,0.0,0.0,0.0,0.0,0.0,0.0,0.0,0.0,0.0,0.0,0.0,0.0,0.0,0.0,-2.6813,-2.7293,-2.6846,-2.5424,-2.4671,-2.3319,0.0,0.0,0.0,0.0,0.0,0.0,0.0,0.0,0.0,0.0,0.0,0.0,0.0,0.0,0.0,0.0,0.0,0.0,0.0,0.0,0.0,0.0,0.0,0.0,0.0,0.0,0.0,0.0,0.0,0.0,0.0,0.0,0.0,0.0,0.0,0.0,0.0,0.0,0.0,0.0,0.0,0.0,0.0,0.0,0.0,0.0,0.0,0.0,0.0,0.0,0.0,0.0,0.0,0.0,0.0,0.0,0.0,0.0,0.0,0.0,0.0,0.0,0.0,0.0,0.0,0.0,0.0,0.0,0.0,0.0,0.0,0.0,0.0,0.0,0.0,0.0,0.0,0.0,0.0,0.0,0.0,0.0,0.0,0.0,0.0,0.0,0.0,0.0,0.0,0.0,0.0,0.0,0.0,0.0,0.0,0.0,0.0,0.0,0.0,0.0,0.0,0.0,0.0,0.0,0.0,0.0,0.0,0.0,-2.699,-2.8036,-2.8834,-2.8761,-2.7708,-2.5968,-2.4095,0.0,0.0,0.0,0.0,0.0,0.0,0.0,0.0,0.0,0.0,0.0,0.0,0.0,0.0,0.0,0.0,0.0,0.0,0.0,0.0,0.0,0.0,0.0,0.0,0.0,0.0,0.0,0.0,0.0,0.0,0.0,0.0,0.0,0.0,0.0,0.0,0.0,0.0,0.0,0.0,0.0,0.0,0.0,0.0,0.0,0.0,0.0,0.0,0.0,0.0,0.0,0.0,0.0,0.0,0.0,0.0,0.0,0.0,0.0,0.0,0.0,0.0,0.0,0.0,0.0,0.0,0.0,0.0,0.0,0.0,0.0,0.0,0.0,0.0,0.0,0.0,0.0,0.0,0.0,0.0,0.0,0.0,0.0,0.0,0.0,0.0,0.0,0.0,0.0,0.0,0.0,0.0,0.0,0.0,0.0,0.0,0.0,0.0,0.0,0.0,0.0,0.0,0.0,0.0,0.0,0.0,0.0,0.0,-2.8044,-2.9022,-2.9886,-3.0255,-3.0114,-2.736,-2.486,0.0,0.0,0.0,0.0,0.0,0.0,0.0,0.0,0.0,0.0,0.0,0.0,0.0,0.0,0.0,0.0,0.0,0.0,0.0,0.0,0.0,0.0,0.0,0.0,0.0,0.0,0.0,0.0,0.0,0.0,0.0,0.0,0.0,0.0,0.0,0.0,0.0,0.0,0.0,0.0,0.0,0.0,0.0,0.0,0.0,0.0,0.0,0.0,0.0,0.0,0.0,0.0,0.0,0.0,0.0,0.0,0.0,0.0,0.0,0.0,0.0,0.0,0.0,0.0,0.0,0.0,0.0,0.0,0.0,0.0,0.0,0.0,0.0,0.0,0.0,0.0,0.0,0.0,0.0,0.0,0.0,0.0,0.0,0.0,0.0,0.0,0.0,0.0,0.0,0.0,0.0,0.0,0.0,0.0,0.0,0.0,0.0,0.0,0.0,0.0,0.0,0.0,0.0,0.0,0.0,0.0,0.0,0.0,-2.8563,-2.921,-3.0241,-3.0608,-3.0161,-2.8055,-2.6129,0.0,0.0,0.0,0.0,0.0,0.0,0.0,0.0,0.0,0.0,0.0,0.0,0.0,0.0,0.0,0.0,0.0,0.0,0.0,0.0,0.0,0.0,0.0,0.0,0.0,0.0,0.0,0.0,0.0,0.0,0.0,0.0,0.0,0.0,0.0,0.0,0.0,0.0,0.0,0.0,0.0,0.0,0.0,0.0,0.0,0.0,0.0,0.0,-2.1253,0.0,0.0,0.0,0.0,0.0,0.0,0.0,0.0,0.0,0.0,0.0,0.0,0.0,0.0,0.0,0.0,0.0,0.0,0.0,0.0,0.0,0.0,0.0,0.0,0.0,0.0,0.0,0.0,0.0,0.0,0.0,0.0,0.0,0.0,0.0,0.0,0.0,0.0,0.0,0.0,0.0,0.0,0.0,0.0,0.0,0.0,0.0,0.0,0.0,0.0,0.0,0.0,0.0,0.0,0.0,0.0,0.0,0.0,0.0,-2.8883,-2.9677,-3.0565,-3.0843,-3.0514,-2.8463,-2.6655,0.0,0.0,0.0,0.0,0.0,0.0,0.0,0.0,0.0,0.0,0.0,0.0,0.0,0.0,0.0,0.0,0.0,0.0,0.0,0.0,0.0,0.0,0.0,0.0,0.0,0.0,0.0,0.0,0.0,0.0,0.0,0.0,0.0,0.0,0.0,0.0,0.0,0.0,0.0,0.0,0.0,0.0,0.0,0.0,0.0,0.0,0.0,0.0,0.0,0.0,0.0,0.0,0.0,0.0,0.0,0.0,0.0,0.0,0.0,0.0,0.0,0.0,0.0,0.0,0.0,0.0,0.0,0.0,0.0,0.0,0.0,0.0,0.0,0.0,0.0,0.0,0.0,0.0,0.0,0.0,0.0,0.0,0.0,0.0,0.0,0.0,0.0,0.0,0.0,0.0,0.0,0.0,0.0,0.0,0.0,0.0,0.0,0.0,0.0,0.0,0.0,0.0,0.0,0.0,0.0,0.0,0.0,-2.8041,-2.91,-3.0086,-3.0707,-3.0937,-3.0843,-2.8794,-2.6883,-2.5257,0.0,0.0,0.0,0.0,0.0,0.0,0.0,0.0,0.0,0.0,0.0,0.0,0.0,0.0,0.0,0.0,0.0,0.0,0.0,0.0,0.0,0.0,0.0,0.0,0.0,0.0,0.0,0.0,0.0,0.0,0.0,0.0,0.0,0.0,0.0,0.0,0.0,0.0,-2.0279,-2.1944,0.0,0.0,0.0,0.0,0.0,0.0,0.0,0.0,-2.3005,0.0,0.0,0.0,0.0,0.0,0.0,0.0,0.0,0.0,0.0,0.0,0.0,0.0,0.0,0.0,0.0,0.0,0.0,0.0,0.0,0.0,0.0,0.0,0.0,0.0,0.0,0.0,0.0,0.0,0.0,0.0,0.0,0.0,0.0,0.0,0.0,0.0,0.0,0.0,0.0,0.0,0.0,0.0,0.0,0.0,0.0,0.0,0.0,0.0,0.0,0.0,0.0,0.0,0.0,0.0,0.0,-2.6935,-2.8402,-2.946,-3.0086,-3.0707,-3.0772,-3.0279,-2.9127,-2.7495,-2.5452,0.0,0.0,0.0,0.0,0.0,0.0,0.0,0.0,0.0,0.0,0.0,0.0,0.0,0.0,0.0,0.0,0.0,0.0,0.0,0.0,0.0,0.0,0.0,0.0,0.0,0.0,0.0,0.0,0.0,0.0,0.0,0.0,0.0,0.0,0.0,0.0,0.0,0.0,0.0,-2.359,-2.4803,0.0,0.0,0.0,0.0,0.0,0.0,0.0,0.0,-2.3434,0.0,0.0,0.0,0.0,0.0,0.0,0.0,0.0,0.0,0.0,0.0,0.0,0.0,0.0,0.0,0.0,0.0,0.0,0.0,0.0,0.0,0.0,0.0,0.0,0.0,0.0,0.0,0.0,0.0,0.0,0.0,0.0,0.0,0.0,0.0,0.0,0.0,0.0,0.0,0.0,0.0,0.0,0.0,0.0,0.0,0.0,0.0,0.0,0.0,0.0,0.0,0.0,0.0,0.0,0.0,-2.6887,-2.821,-2.9292,-3.0086,-3.0771,-3.0879,-3.0336,-2.9082,-2.7522,0.0,0.0,0.0,0.0,0.0,0.0,0.0,0.0,0.0,0.0,0.0,0.0,0.0,0.0,0.0,0.0,0.0,0.0,0.0,0.0,0.0,0.0,0.0,0.0,0.0,0.0,0.0,0.0,0.0,0.0,0.0,0.0,0.0,0.0,0.0,0.0,0.0,0.0,0.0,0.0,-2.4425,-2.5355,-2.5749,0.0,0.0,0.0,0.0,0.0,0.0,-2.4443,-2.4336,0.0,0.0,0.0,0.0,0.0,0.0,0.0,0.0,0.0,0.0,0.0,0.0,0.0,0.0,0.0,0.0,0.0,0.0,0.0,0.0,0.0,0.0,0.0,0.0,0.0,0.0,0.0,0.0,0.0,0.0,0.0,0.0,0.0,0.0,0.0,0.0,0.0,0.0,0.0,0.0,0.0,0.0,0.0,0.0,0.0,0.0,0.0,0.0,0.0,0.0,0.0,0.0,0.0,0.0,0.0,-2.6887,-2.8065,-2.9124,-3.0086,-3.0763,-3.089,-3.0367,-2.8845,-2.74,0.0,0.0,0.0,0.0,0.0,0.0,0.0,0.0,0.0,0.0,0.0,0.0,0.0,0.0,0.0,0.0,0.0,0.0,0.0,0.0,0.0,0.0,0.0,0.0,0.0,0.0,0.0,0.0,0.0,0.0,0.0,0.0,0.0,0.0,0.0,0.0,0.0,0.0,0.0,0.0,0.0,-2.5863,-2.64,-2.6572,0.0,0.0,0.0,0.0,-2.5322,-2.5411,0.0,0.0,0.0,0.0,0.0,0.0,0.0,0.0,0.0,0.0,0.0,0.0,0.0,0.0,0.0,0.0,0.0,0.0,0.0,0.0,0.0,0.0,0.0,0.0,0.0,0.0,0.0,0.0,0.0,0.0,0.0,0.0,0.0,0.0,0.0,0.0,0.0,0.0,0.0,0.0,0.0,0.0,0.0,0.0,0.0,0.0,0.0,0.0,0.0,0.0,0.0,0.0,0.0,0.0,0.0,0.0,-2.6911,-2.8426,-2.9484,-3.0086,-3.0405,-3.039,-2.9867,-2.8482,-2.7196,0.0,0.0,0.0,0.0,0.0,0.0,0.0,0.0,0.0,0.0,0.0,0.0,0.0,0.0,0.0,0.0,0.0,0.0,0.0,0.0,0.0,0.0,0.0,0.0,0.0,0.0,0.0,0.0,0.0,0.0,0.0,0.0,0.0,0.0,0.0,0.0,0.0,0.0,0.0,0.0,0.0,-2.7083,-2.7169,-2.7767,-2.8111,0.0,0.0,-2.6862,-2.661,-2.6078,0.0,0.0,0.0,0.0,0.0,0.0,0.0,0.0,0.0,0.0,0.0,0.0,0.0,0.0,0.0,0.0,0.0,0.0,0.0,0.0,0.0,0.0,0.0,0.0,0.0,0.0,0.0,0.0,0.0,0.0,0.0,0.0,0.0,0.0,0.0,0.0,0.0,0.0,0.0,0.0,0.0,0.0,0.0,0.0,0.0,0.0,0.0,0.0,0.0,0.0,0.0,0.0,0.0,0.0,0.0,-2.5105,-2.7037,-2.8343,-2.9512,-3.0504,-3.087,-3.0895,-3.0385,-2.8864,-2.7578,0.0,0.0,0.0,0.0,0.0,0.0,0.0,0.0,0.0,0.0,0.0,0.0,0.0,0.0,0.0,0.0,0.0,0.0,0.0,0.0,0.0,0.0,0.0,0.0,0.0,0.0,0.0,0.0,0.0,0.0,0.0,0.0,0.0,0.0,0.0,0.0,0.0,0.0,0.0,0.0,0.0,0.0,-2.7394,-2.8022,0.0,0.0,0.0,-2.757,-2.7173,0.0,0.0,0.0,0.0,0.0,0.0,0.0,0.0,0.0,0.0,0.0,0.0,0.0,0.0,0.0,0.0,0.0,0.0,0.0,0.0,0.0,0.0,0.0,0.0,0.0,0.0,0.0,0.0,0.0,0.0,0.0,0.0,0.0,0.0,0.0,0.0,0.0,0.0,0.0,0.0,0.0,0.0,0.0,0.0,0.0,0.0,0.0,0.0,0.0,0.0,0.0,0.0,0.0,0.0,0.0,0.0,0.0,-2.7162,-2.8135,-2.9389,-3.0753,-3.1023,-3.1048,-3.0753,-2.9135,0.0,0.0,0.0,0.0,0.0,0.0,0.0,0.0,0.0,0.0,0.0,0.0,0.0,0.0,0.0,0.0,0.0,0.0,0.0,0.0,0.0,0.0,0.0,0.0,0.0,0.0,0.0,-1.8934,0.0,0.0,0.0,0.0,0.0,0.0,0.0,0.0,0.0,0.0,0.0,0.0,0.0,0.0,-2.7625,-2.7936,-2.8569,-2.903,0.0,0.0,-2.834,-2.7882,-2.7597,-2.7311,0.0,0.0,0.0,0.0,0.0,0.0,0.0,0.0,0.0,0.0,0.0,0.0,0.0,0.0,0.0,0.0,0.0,0.0,0.0,0.0,0.0,0.0,0.0,0.0,0.0,0.0,0.0,0.0,0.0,0.0,0.0,0.0,0.0,0.0,0.0,0.0,0.0,0.0,0.0,0.0,0.0,0.0,0.0,0.0,0.0,0.0,0.0,0.0,0.0,0.0,0.0,0.0,0.0,0.0,0.0,-2.7138,-2.777,-2.8998,-3.0704,-3.0311,-3.0286,-3.0728,-2.8867,-2.7779,0.0,0.0,0.0,0.0,0.0,0.0,0.0,0.0,0.0,0.0,0.0,0.0,0.0,0.0,0.0,0.0,0.0,0.0,0.0,0.0,0.0,0.0,0.0,0.0,0.0,0.0,0.0,0.0,0.0,0.0,0.0,0.0,0.0,0.0,0.0,0.0,0.0,0.0,0.0,0.0,0.0,-2.8397,-2.9174,-2.9927,-3.0363,0.0,0.0,-2.926,-2.9113,-2.854,-2.794,-2.7311,0.0,0.0,0.0,0.0,0.0,0.0,0.0,0.0,0.0,0.0,0.0,0.0,0.0,0.0,0.0,0.0,0.0,0.0,0.0,0.0,0.0,0.0,0.0,0.0,0.0,0.0,0.0,0.0,0.0,0.0,0.0,0.0,0.0,0.0,0.0,0.0,0.0,0.0,0.0,0.0,0.0,0.0,0.0,0.0,0.0,0.0,0.0,0.0,0.0,0.0,0.0,0.0,0.0,-2.5441,-2.7385,-2.7949,-2.9263,-3.1311,-3.0778,-3.0859,-3.1574,-2.9505,-2.8341,0.0,0.0,0.0,0.0,0.0,0.0,0.0,0.0,0.0,0.0,0.0,0.0,0.0,0.0,0.0,0.0,0.0,0.0,0.0,0.0,0.0,0.0,0.0,0.0,0.0,0.0,0.0,0.0,-2.1806,-2.2532,-2.3159,0.0,0.0,0.0,0.0,0.0,0.0,0.0,0.0,0.0,0.0,-2.8598,-2.9289,-3.0102,0.0,0.0,-3.0305,-3.0015,-2.9521,-2.9232,-2.88,-2.811,-2.8024,0.0,0.0,0.0,0.0,0.0,0.0,0.0,0.0,0.0,0.0,0.0,0.0,0.0,0.0,0.0,0.0,0.0,0.0,0.0,0.0,0.0,0.0,0.0,0.0,0.0,0.0,0.0,0.0,0.0,0.0,0.0,0.0,0.0,0.0,0.0,0.0,0.0,0.0,0.0,0.0,0.0,0.0,0.0,0.0,0.0,0.0,0.0,0.0,0.0,0.0,0.0,0.0,-2.5657,-2.7459,-2.7927,-2.9322,-3.1767,-3.1026,-3.108,-3.2008,-2.9881,-2.8605,0.0,0.0,0.0,0.0,0.0,0.0,0.0,0.0,0.0,0.0,0.0,0.0,0.0,0.0,0.0,0.0,0.0,0.0,0.0,0.0,0.0,0.0,0.0,0.0,0.0,0.0,0.0,0.0,-2.2901,-2.3649,-2.3837,0.0,0.0,0.0,0.0,0.0,0.0,0.0,0.0,0.0,0.0,-2.88,-2.9608,-3.0364,-3.0862,-3.0829,-3.1035,-3.0918,-3.0277,-3.019,-2.9841,-2.8973,0.0,0.0,0.0,0.0,0.0,0.0,0.0,0.0,0.0,0.0,0.0,0.0,0.0,0.0,0.0,0.0,0.0,0.0,0.0,0.0,0.0,0.0,0.0,0.0,0.0,0.0,0.0,0.0,0.0,0.0,-2.2979,0.0,0.0,0.0,0.0,0.0,0.0,0.0,0.0,0.0,0.0,0.0,0.0,0.0,0.0,0.0,0.0,0.0,0.0,0.0,0.0,0.0,0.0,-2.602,-2.7459,-2.7508,-2.8948,-3.1716,-3.0749,-3.0802,-3.1983,-2.9881,-2.8677,-2.8651,0.0,0.0,0.0,0.0,0.0,0.0,0.0,0.0,0.0,0.0,0.0,0.0,0.0,0.0,0.0,0.0,0.0,0.0,0.0,0.0,0.0,0.0,0.0,0.0,0.0,0.0,-2.3013,-2.4058,-2.4682,0.0,0.0,0.0,0.0,0.0,0.0,0.0,0.0,0.0,0.0,-2.8397,-2.903,-3.0364,-3.107,-3.1452,-3.1438,-3.1999,-3.2207,-3.1526,-3.1467,-3.1061,0.0,0.0,0.0,0.0,0.0,0.0,0.0,0.0,0.0,0.0,0.0,0.0,0.0,0.0,0.0,0.0,0.0,0.0,0.0,0.0,0.0,0.0,0.0,0.0,0.0,0.0,0.0,-2.4902,-2.4465,0.0,0.0,0.0,0.0,0.0,0.0,0.0,0.0,0.0,0.0,0.0,-2.7721,-2.7736,0.0,0.0,0.0,0.0,0.0,0.0,0.0,0.0,0.0,0.0,0.0,0.0,-2.6408,-2.7459,-2.7852,-2.9297,-3.1877,-3.088,-3.0984,-3.2408,-3.0618,-2.9015,-2.7808,0.0,0.0,0.0,0.0,0.0,0.0,0.0,0.0,0.0,0.0,0.0,0.0,0.0,0.0,0.0,0.0,0.0,0.0,0.0,0.0,0.0,0.0,0.0,0.0,0.0,-2.3737,0.0,0.0,0.0,0.0,0.0,0.0,0.0,0.0,0.0,0.0,0.0,-2.7883,-2.8886,-2.9117,-2.9551,-3.0451,-3.1093,-3.1533,0.0,0.0,0.0,0.0,0.0,0.0,0.0,0.0,0.0,0.0,0.0,0.0,0.0,0.0,-3.1056,-3.086,-3.0817,-3.0878,-3.1235,0.0,0.0,0.0,0.0,0.0,0.0,0.0,0.0,0.0,0.0,0.0,0.0,0.0,0.0,0.0,0.0,-2.5906,0.0,0.0,0.0,0.0,0.0,0.0,0.0,0.0,-2.7653,-2.808,-2.8677,-2.87,-2.8356,0.0,-2.7575,-2.6887,0.0,0.0,0.0,0.0,0.0,0.0,0.0,0.0,-2.6919,-2.7729,-2.8198,-2.9551,-3.1624,-3.0933,-3.1035,-3.2333,-3.0738,-2.9151,-2.7618,-2.6841,-2.6026,0.0,0.0,0.0,0.0,0.0,0.0,0.0,0.0,0.0,0.0,0.0,0.0,0.0,0.0,0.0,0.0,0.0,0.0,0.0,0.0,0.0,0.0,0.0,-2.4582,0.0,0.0,0.0,0.0,0.0,0.0,0.0,0.0,0.0,-2.7314,-2.7883,-2.8541,-2.9289,-2.9493,-2.9842,-3.048,0.0,0.0,0.0,0.0,0.0,0.0,0.0,-3.2629,-3.2053,-3.2061,-3.2041,-3.1605,-3.1879,-3.216,-3.2146,0.0,0.0,-3.2,-3.1675,-3.1562,-3.1876,-3.1935,-3.2018,-3.2336,-3.2507,-3.2674,0.0,0.0,0.0,0.0,0.0,0.0,0.0,0.0,-2.7413,-2.7413,0.0,-2.7348,0.0,0.0,0.0,0.0,0.0,-2.7004,0.0,0.0,-2.8637,-2.8746,-2.8769,-2.8769,-2.8746,-2.87,-2.8264,-2.7782,-2.7231,-2.6267,0.0,0.0,0.0,0.0,0.0,0.0,-2.7604,-2.8297,-2.8548,-2.9503,-3.1137,-3.0676,-3.0854,-3.168,-3.0189,-2.8969,-2.8135,-2.73,-2.6648,-2.6401,-2.5366,0.0,0.0,0.0,0.0,0.0,0.0,0.0,0.0,0.0,0.0,0.0,0.0,0.0,0.0,0.0,0.0,0.0,0.0,0.0,0.0,-2.4695,0.0,0.0,0.0,0.0,0.0,0.0,0.0,0.0,0.0,0.0,-2.8166,-2.8426,-2.88,-2.9376,0.0,0.0,0.0,0.0,-3.247,-3.2483,-3.3587,-3.4167,-3.3587,-3.3565,-3.3362,-3.2913,0.0,0.0,-3.2972,-3.3455,-3.3904,-3.3957,-3.3762,-3.3499,-3.3106,-3.2681,-3.2462,-3.2779,-3.2533,-3.2301,-3.2476,-3.2855,-3.3051,-3.2317,0.0,0.0,0.0,0.0,-2.8855,-2.9074,-2.9379,-2.9379,-2.9183,-2.8833,-2.8484,0.0,0.0,0.0,0.0,0.0,0.0,-2.8445,-2.9186,-2.9274,-2.9458,-2.978,-2.978,-2.9619,-2.9274,-2.9137,-2.8792,-2.8264,-2.7644,-2.6703,-2.5509,0.0,0.0,0.0,0.0,-2.7919,-2.8319,-2.9098,-3.0035,-3.1188,-3.0829,-3.0851,-3.1235,-3.0346,-2.9614,-2.8969,-2.8281,-2.7497,-2.6648,-2.6283,0.0,0.0,0.0,0.0,0.0,0.0,0.0,0.0,0.0,0.0,0.0,0.0,0.0,0.0,0.0,0.0,0.0,0.0,0.0,-2.5345,-2.5514,-2.5823,0.0,0.0,0.0,0.0,0.0,0.0,0.0,0.0,0.0,-2.9631,-2.9719,-3.0069,0.0,0.0,-3.0539,-3.1148,-3.1995,-3.2518,-3.2513,-3.3587,0.0,-3.4397,-3.4368,-3.42,-3.375,-3.3565,-3.3668,-3.4079,-3.4272,-3.4441,-3.4845,-3.4807,-3.4751,-3.4891,-3.41,-3.3602,-3.3736,-3.3865,-3.4021,-3.4235,-3.4409,-3.4613,-3.5312,-3.2812,-3.1578,-3.0908,-3.0624,-3.0428,-3.0493,-3.0756,-3.0559,-3.0319,-3.0013,-2.9532,-2.8964,-2.8287,-2.7721,0.0,0.0,0.0,-2.9121,-2.9802,-3.0009,-3.0262,-3.0537,-3.0744,-3.0583,-3.0101,-3.0101,-2.9734,-2.8999,-2.8723,-2.8012,-2.6909,0.0,0.0,-2.6747,-2.7859,-2.8537,-2.8768,-2.9727,-3.0595,-3.1188,-3.1113,-3.1083,-3.0973,-3.0424,-2.9876,-2.9301,-2.8699,-2.7968,-2.7053,-2.6791,-2.6373,0.0,0.0,0.0,0.0,0.0,0.0,0.0,0.0,0.0,0.0,0.0,-2.3413,-2.3497,0.0,0.0,0.0,-2.4914,-2.527,-2.5851,-2.6159,0.0,0.0,0.0,0.0,0.0,0.0,0.0,-2.9366,-2.9631,-2.9894,-3.0329,-3.0589,-3.0968,-3.1467,-3.1409,-3.138,-3.1496,0.0,-3.2803,-3.2571,-3.3652,-3.4563,-3.4698,-3.4765,-3.4751,-3.4629,-3.4751,-3.4881,-3.514,-3.5061,-3.5091,-3.5342,-3.5283,-3.5337,-3.5711,-3.5309,-3.4875,-3.4797,-3.4751,-3.4834,-3.5049,-3.5257,-3.5424,-3.7923,-3.6462,-3.3835,-3.27,-3.2503,-3.2044,-3.1826,-3.176,-3.1323,-3.1105,-3.104,-3.0537,-2.9773,-2.8927,-2.823,0.0,-2.8948,-2.9307,-2.976,-3.0354,-3.0836,-3.1065,-3.1088,-3.1547,-3.1525,-3.1065,-3.1065,-3.0583,-2.9642,-2.9573,-2.9297,-2.8746,-2.8244,-2.7829,-2.7627,-2.8675,-2.9308,-2.9546,-3.0514,-3.1108,-3.1292,-3.1604,-3.1575,-3.0999,-3.0477,-2.9928,-2.9301,-2.8752,-2.815,-2.7549,-2.7027,-2.6713,-2.6661,0.0,0.0,0.0,0.0,0.0,0.0,0.0,0.0,0.0,0.0,0.0,0.0,0.0,0.0,0.0,-2.5661,0.0,-2.6048,-2.6721,0.0,0.0,0.0,-2.854,-2.9197,-2.9314,-2.9543,-3.0208,0.0,0.0,-3.0568,-3.1119,-3.1526,-3.1526,-3.2048,-3.2222,-3.1671,-3.2542,-3.3158,-3.2483,-3.3696,-3.461,-3.4618,-3.481,-3.5133,-3.5494,-3.607,-3.6199,-3.597,-3.5704,-3.5637,-3.5626,-3.5461,-3.5429,-3.5756,-3.6156,-3.6359,-3.5902,-3.5428,-3.5154,-3.5508,-3.5747,-3.5912,-3.9668,-3.8886,-3.6956,-3.5364,-3.401,-3.3901,-3.3617,-3.3268,-3.3158,-3.2896,-3.2503,-3.1651,-3.0756,-2.986,-3.0097,-3.0337,-3.0449,-3.0921,-3.1295,-3.141,-3.1525,-3.1593,-3.1593,-3.1708,-3.1708,-3.1593,-3.1593,-3.1249,-3.0652,-3.0239,-2.978,-2.9297,-2.9106,-2.9022,-2.8941,-2.9876,-3.0466,-3.0441,-3.1402,-3.1755,-3.1707,-3.1759,-3.1575,-3.0999,-3.0843,-3.032,-2.9327,-2.9144,-2.8595,-2.7602,-2.7392,-2.7131,-2.6687,-2.6556,0.0,0.0,0.0,0.0,0.0,0.0,0.0,0.0,0.0,-2.4664,-2.5351,0.0,-2.577,0.0,-2.673,-2.6965,-2.7109,-2.7482,0.0,0.0,-2.8795,-2.9197,-2.9825,-3.0004,-3.0093,-3.0297,-3.0447,-3.0568,-3.0568,-3.1119,-3.1526,-3.1526,-3.1642,-3.1874,-3.2193,-3.2203,-3.2119,-3.2119,-3.3182,-3.4168,-3.4357,-3.5001,-3.5657,-3.6163,-3.6168,-3.6126,-3.6379,-3.586,-3.5486,-3.5745,-3.5585,-3.5599,-3.5975,-3.636,-3.662,-3.6724,-3.6779,-3.686,-3.7077,-3.7286,-3.7522,-4.0725,-4.0083,-3.883,-3.7528,-3.6296,-3.5545,-3.4884,-3.4425,-3.4207,-3.3857,-3.3311,-3.2154,-3.1345,-3.0821,-3.0776,-3.0868,-3.106,-3.1371,-3.1659,-3.1777,-3.1984,-3.2076,-3.2099,-3.2328,-3.2328,-3.2099,-3.2076,-3.1823,-3.1341,-3.0836,-3.0422,-3.0328,-3.0197,-3.0178,-3.0241,-3.0579,-3.086,-3.0943,-3.1827,-3.229,-3.2303,-3.2356,-3.2045,-3.1265,-3.1289,-3.0712,-2.9327,-2.9274,-2.8752,-2.7602,-2.7456,-2.7392,-2.7079,-2.7053,-2.6791,0.0,0.0,0.0,0.0,0.0,0.0,0.0,0.0,0.0,0.0,0.0,-2.6397,-2.6843,-2.7171,-2.7349,-2.7468,-2.8133,-2.8651,-2.8993,-2.9545,-2.9952,-3.0297,-3.0387,-3.0447,-3.0447,-3.0507,-3.0628,-3.0657,-3.1119,-3.1526,-3.1649,-3.1649,-3.1795,-3.2115,-3.2149,-3.2123,-3.1951,-3.2871,-3.371,-3.3961,-3.4604,-3.5248,-3.5461,-3.5602,-3.576,-3.6158,-3.5755,-3.5495,-3.5958,-3.5773,-3.5711,-3.6148,-3.6485,-3.6776,-3.7126,-3.7429,-3.7649,-3.7828,-3.8034,-3.8336,-4.1497,-4.0621,-3.9877,-3.9264,-3.8564,-3.7022,-3.5911,-3.5364,-3.4906,-3.436,-3.3726,-3.2459,-3.1826,-3.1673,-3.1142,-3.0918,-3.1143,-3.136,-3.1649,-3.1865,-3.2397,-3.2581,-3.2604,-3.3063,-3.304,-3.2604,-3.2581,-3.2328,-3.1846,-3.141,-3.1251,-3.146,-3.1246,-3.1234,-3.1455,-3.1126,-3.1141,-3.139,-3.2256,-3.2733,-3.2931,-3.307,-3.261,-3.1552,-3.1681,-3.0976,-2.9379,-2.9274,-2.8752,-2.7602,-2.7602,-2.7602,-2.7456,-2.7602,-2.7392,0.0,-2.6791,0.0,0.0,0.0,0.0,0.0,0.0,0.0,0.0,-2.6938,-2.7087,-2.7242,-2.7391,-2.7598,-2.7718,-2.8672,-2.9311,-2.9311,-3.0069,-3.0628,-3.0628,-3.0628,-3.0628,-3.0628,-3.0628,-3.0628,-3.0597,-3.1061,-3.1471,-3.1565,-3.1657,-3.1687,-3.1775,-3.2126,-3.2276,-3.1987,-3.2642,-3.3333,-3.3728,-3.418,-3.4506,-3.4562,-3.4873,-3.5316,-3.5678,-3.5545,-3.5564,-3.5985,-3.5937,-3.5966,-3.6276,-3.6609,-3.693,-3.7279,-3.7613,-3.7898,-3.807,-3.8234,-3.8496,-4.2124,-4.1497,-4.0747,-3.9877,-3.9139,-3.8454,-3.744,-3.6391,-3.5911,-3.4971,-3.3792,-3.3508,-3.2962,-3.2241,-3.2355,-3.2148,-3.185,-3.2374,-3.2596,-3.2719,-3.2986,-3.3132,-3.3132,-3.3224,-3.3224,-3.3132,-3.3132,-3.2856,-3.2351,-3.2259,-3.2103,-3.1972,-3.1738,-3.1845,-3.2274,0.0,0.0,0.0,-3.3183,-3.3115,-3.2957,-3.2931,-3.2448,-3.1526,-3.1552,0.0,-2.9379,-2.9274,-2.8752,-2.7628,-2.7968,0.0,0.0,0.0,0.0,0.0,0.0,0.0,0.0,0.0,0.0,0.0,-2.812,-2.7994,-2.7534,-2.7976,-2.8311,-2.8438,-2.8628,-2.8816,-2.9004,-2.9549,-2.994,-2.994,-3.0329,-3.0628,-3.0628,-3.0628,-3.0628,-3.0628,-3.0628,-3.0628,-3.0657,-3.0804,-3.0951,-3.1041,-3.1131,-3.125,-3.1368,-3.1516,-3.1575,-3.1486,-3.2228,-3.3066,-3.3849,-3.4147,-3.4407,-3.4847,-3.4715,-3.4813,-3.5122,-3.5067,-3.5018,-3.5445,-3.5723,-3.6105,-3.6451,-3.6816,-3.7164,-3.7466,-3.7792,-3.807,-3.8303,-3.8533,-3.8719,-4.2541,0.0,-4.1135,-4.041,0.0,-3.8908,-3.8045,-3.7003,-3.6522,-3.5627,-3.4469,-3.401,-3.353,-3.3071,-3.3043,-3.2856,-3.2597,-3.2926,-3.3118,-3.3092,-3.317,-3.3292,-3.3292,-3.3292,-3.3292,-3.3292,-3.3292,-3.3155,-3.2879,-3.2822,-3.2642,-3.2697,-3.2441,-3.2432,-3.2623,-3.2558,-3.281,-3.324,-3.324,-3.3199,-3.3005,-3.3148,-3.2777,-3.178,0.0,0.0,0.0,0.0,0.0,0.0,0.0,0.0,0.0,-2.7811,0.0,-2.7482,-2.7456,-2.759,-2.7921,-2.8013,-2.821,-2.8444,-2.8509,-2.8465,-2.8166,-2.8438,-2.8665,-2.8794,-2.8986,-2.9176,-2.9429,-2.9713,-2.996,-3.0111,-3.0326,-3.0507,-3.0568,-3.0628,-3.0628,-3.0628,-3.0628,-3.0628,-3.0717,-3.0776,-3.0895,-3.1014,-3.1132,-3.1249,-3.1366,-3.1336,-3.1366,-3.1539,-3.1953,-3.2516,-3.305,-3.346,-3.3799,-3.4125,-3.4197,-3.4374,-3.4753,-3.4824,-3.5024,-3.5475,-3.5878,-3.6233,-3.665,-3.697,-3.7317,-3.7649,-3.8002,-3.8303,-3.8528,-3.8719,-3.8833,-4.2936,-4.2431,-4.1673,-4.0819,-4.0073,-3.9288,-3.8387,-3.7473,0.0,0.0,0.0,-3.4382,-3.3967,-3.377,-3.3377,-3.3259,-3.3213,-3.3227,-3.3288,-3.3307,-3.3315,-3.3292,-3.3292,-3.3292,-3.3292,-3.3292,-3.3292,-3.3292,-3.3369,-3.3128,-3.3212,-3.3478,-3.3268,-3.3092,-3.2918,-3.292,-3.2996,-3.3154,-3.3154,-3.3154,-3.324,-3.3454,-3.3085,-3.206,-3.2356,-3.1707,-3.0116,-2.9693,-2.9144,-2.8569,-2.8177,-2.7941,-2.7863,-2.7941,-2.7889,-2.7706,-2.768,-2.7761,-2.8013,-2.8079,-2.8276,-2.86,-2.86,-2.86,-2.86,-2.86,-2.8665,-2.8794,-2.8986,-2.9176,-2.9429,-2.9651,-2.9898,-3.005,-3.0205,-3.0387,-3.0568,-3.0628,-3.0628,-3.0628,-3.0628,-3.0628,-3.0747,-3.0836,-3.0955,-3.1219,-3.1278,-3.1336,-3.1482,-3.1482,-3.1482,-3.1742,-3.1944,-3.214,-3.2388,-3.278,-3.2989,-3.3403,-3.3706,-3.405,-3.4448,-3.4835,-3.5291,-3.5745,-3.6096,-3.6402,-3.6811,-3.7126,-3.7502,-3.7864,-3.8171,-3.8496,-3.8743,-3.8892,-3.9036,-4.3418,-4.2936,-4.2326,-4.1696,-4.0944,-4.0299,-3.9187,-3.7856,-3.7035,-3.6129,-3.519,-3.5059,-3.4556,-3.3792,-3.3726,-3.3636,-3.3471,-3.328,-3.3366,0.0,-3.3376,-3.3292,-3.3292,-3.3292,-3.3292,-3.3292,-3.3292,-3.3392,-3.3568,-3.3598,-3.3848,-3.4169,-3.4007,-3.3732,-3.3439,-3.3645,-3.3633,-3.3326,-3.3326,-3.3471,-3.3641,-3.3181,-3.2808,-3.2326,-3.1914,-3.1189,-3.0116,-3.0059,-2.9745,-2.9196,-2.9562,-2.9562,-2.9091,-2.9457,-2.9327,-2.836,-2.8255,-2.8182,-2.7881,-2.8013,-2.821,-2.8536,-2.86,-2.86,-2.86,-2.86,-2.8665,-2.8794,-2.8986,-2.9176,-2.9429,-2.9651,-2.9898,-3.005,-3.0233,-3.0387,-3.0568,-3.0628,-3.0628,-3.0628,-3.0628,-3.0628,-3.0836,-3.0955,-3.1132,-3.1307,-3.1394,-3.1482,-3.1539,-3.1655,-3.1742,-3.1856,-3.1996,-3.2191,-3.2468,-3.2796,-3.315,-3.3382,-3.3797,-3.4201,-3.4594,-3.4977,-3.5429,-3.5888,-3.6276,-3.669,-3.7087,-3.7392,-3.7685,-3.8,-3.8267,-3.8491,-3.8833,-3.9055,-3.9272,-4.3533,-4.3051,-4.2545,-4.1787,-4.1035,-4.0118,-3.9164,-3.821,-3.7626,-3.6794,-3.5976,-3.5452,-3.4971,-3.4556,-3.4538,-3.436,-3.4066,-3.3915,-3.3763,-3.3777,-3.3499,-3.3292,-3.3292,-3.3292,-3.3292,-3.3292,-3.3492,-3.3568,-3.3668,-3.3965,-3.4162,-3.4385,-3.439,-3.4446,-3.4438,-3.441,-3.425,-3.404,-3.3623,-3.3471,-3.37,-3.3579,-3.3333,-3.2872,-3.2382,-3.1785,-3.1003,-3.0403,-3.0006,-2.9745,-2.9693,-2.9562,-2.9301,-2.9536,-2.9431,-2.8908,-2.8856,-2.8821,-2.8765,-2.9012,-2.9215,-2.9416,-2.951,-2.9577,-2.9577,-2.8953,-2.8665,-2.8794,-2.8986,-2.9176,-2.9366,-2.9588,-2.9775,-3.005,-3.0144,-3.0266,-3.0568,-3.0628,-3.0628,-3.0628,-3.0687,-3.0747,-3.0955,-3.1132,-3.1249,-3.1424,-3.1482,-3.1539,-3.1655,-3.1769,-3.1883,-3.194,-3.2135,-3.2413,-3.2664,-3.2989,-3.3309,-3.3642,-3.4,-3.4399,-3.4787,-3.5165,-3.5532,-3.601,-3.6402,-3.6736,-3.7203,-3.754,-3.7863,-3.8168,-3.8428,-3.8713,-3.8942,-3.9272,-3.9526,-4.3602,-4.3211,-4.2591,-4.1937,-4.1137,-3.9882,-3.9187,-3.8786,-3.8198,-3.7679,-3.6978,-3.5917,-3.5435,-3.5282,-3.5201,-3.4979,-3.4904,-3.4645,-3.4403,-3.4326,-3.3729,-3.3453,-3.343,-3.3438,-3.3392,-3.3392,-3.3668,-3.3767,-3.3866,-3.4237,-3.4531,-3.4678,-3.4917,-3.512,-3.5276,-3.5036,-3.4805,-3.4714,-3.4168,-3.3811,-3.3894,-3.3959,-3.3757,-3.3342,-3.2906,-3.2489,-3.2019,-3.1182,-3.066,-3.0503,-3.0111,-2.9797,-2.9693,-2.9666,-2.9614,-2.951,-2.9483,-2.9476,-2.9487,-2.9811,-3.0019,-3.0089,-3.0254,-3.0323,-3.0337,-2.955,-2.9073,-2.9203,-2.9453,-2.9619,-2.9748,-2.9771,-2.9939,-3.0249,-3.0197,-3.0319,-3.071,-3.0771,-3.0858,-3.0945,-3.1037,-3.113,-3.1279,-3.1338,-3.1366,-3.1482,-3.1539,-3.1597,-3.1769,-3.194,-3.2053,-3.2135,-3.2302,-3.2523,-3.2858,-3.315,-3.3435,-3.3848,-3.4201,-3.4594,-3.5024,-3.535,-3.5756,-3.6191,-3.6568,-3.6935,-3.739,-3.7721,-3.8036,-3.8401,-3.8652,-3.8966,-3.9527,-3.984,-3.9951,-4.3785,-4.3602,-4.2729,-4.204,-4.1433,-4.0591,-3.9869,-3.9439,-3.8702,-3.8358,-3.806,-3.6889,-3.6108,-3.5666,-3.5424,-3.5488,-3.5617,-3.525,-3.5085,-3.5244,-3.4372,-3.3935,-3.3889,-3.38,-3.3691,-3.3714,-3.4035,-3.4233,-3.4382,-3.4457,-3.4726,-3.5428,-3.5763,-3.5774,-3.5512,-3.5411,-3.5385,-3.5277,-3.5226,-3.495,-3.434,-3.3901,-3.3639,-3.3587,-3.3012,-3.2672,-3.262,-3.2515,-3.2202,-3.1731,-3.1601,-3.1339,-3.0895,-3.0817,-3.0581,-3.0111,-3.0059,-2.9922,-2.9566,-2.9557,-2.9794,-3.0019,-3.0169,-3.0308,-3.0473,-3.0337,-3.0256,-3.0297,-3.0541,-3.0632,-3.0754,-3.0573,-3.0588,-3.0877,-3.0511,-3.0463,-3.1261,-3.1438,-3.1642,-3.228,-3.1944,-3.1745,-3.1898,-3.1664,-3.1455,-3.1749,-3.1895,-3.201,-3.2038,-3.2118,-3.2313,-3.2388,-3.2523,-3.2664,-3.2912,-3.3256,-3.3591,-3.3899,-3.4349,-3.4739,-3.5165,-3.5622,-3.6062,-3.6367,-3.6891,-3.7279,-3.7649,-3.8002,-3.8238,-3.8779,-3.9091,-3.936,-4.039,-4.091,-4.0858,-4.4084,-4.3739,-4.3074,-4.25,-4.1971,-4.1342,-4.0715,-3.9969,-3.9371,-3.889,-3.8313,-3.7736,-3.7036,-3.6451,-3.6185,-3.6024,-3.5817,-3.5426,-3.5413,-3.5451,-3.497,-3.4773,-3.4727,-3.4769,-3.4856,-3.4879,-3.5058,-3.5094,-3.4885,-3.4894,-3.5138,-3.562,-3.5908,-3.5974,-3.6031,-3.61,-3.61,-3.5955,-3.6019,-3.5875,-3.5357,-3.4894,-3.4424,-3.4058,-3.3509,-3.3221,-3.3169,-3.2881,-3.2594,-3.2359,-3.2333,-3.2097,-3.1522,-3.1496,-3.1235,-3.0712,-3.0634,-3.0555,-3.0367,-3.0487,-3.0732,-3.0975,-3.1092,-3.1236,-3.145,-3.145,-3.145,-3.1439,-3.1144,-3.0908,-3.0908,-3.102,-3.1237,-3.1504,-3.134,-3.1438,-3.2014,-3.2106,-3.2251,-3.2582,-3.2595,-3.2544,-3.2729,-3.2675,-3.2706,-3.2826,-3.2945,-3.2943,-3.312,-3.2989,-3.2916,-3.3079,-3.2943,-3.2912,-3.3096,-3.3414,-3.3745,-3.4101,-3.4448,-3.4835,-3.5304,-3.5711,-3.6114,-3.6533,-3.7009,-3.7429,-3.7793,-3.8174,-3.8474,-3.9222,-4.0346,-4.0959,-4.1582,-4.1874,-4.1825,-4.429,-4.3739,-4.3142,-4.2683,-4.2293,-4.1788,-4.1227,-4.0569,-3.9977,-3.9379,-3.8896,-3.8517,-3.8018,-3.7404,-3.6884,-3.6496,-3.6132,-3.5956,-3.5833,-3.5787,-3.562,-3.5491,-3.5596,-3.5639,-3.5671,-3.5774,-3.5979,-3.589,-3.5609,-3.5769,-3.5795,-3.5963,-3.6227,-3.6318,-3.6383,-3.664,-3.6625,-3.6544,-3.6767,-3.6664,-3.6384,-3.5966,-3.5391,-3.4685,-3.4267,-3.3979,-3.3796,-3.3378,-3.3091,-3.2934,-3.2934,-3.2672,-3.2123,-3.2071,-3.181,-3.1313,-3.1209,-3.1156,-3.0999,-3.1123,-3.1299,-3.1548,-3.177,-3.189,-3.2109,-3.2182,-3.2255,-3.2218,-3.1693,-3.1433,-3.1405,-3.1607,-3.1857,-3.216,-3.2111,-3.2155,-3.268,-3.2774,-3.2925,-3.3264,-3.3304,-3.3291,-3.3359,-3.3455,-3.3547,-3.3668,-3.3819,-3.394,-3.4088,-3.3808,-3.3706,-3.3991,-3.3755,-3.3567,-3.3435,-3.3539,-3.3899,-3.43,-3.4643,-3.5071,-3.5453,-3.5898,-3.6284,-3.6851,-3.7203,-3.7755,-3.8435,-3.8773,-3.9239,-4.0341,-4.1353,-4.2196,-4.2573,-4.2784,-4.3132,-4.429,-4.3716,-4.2775,-4.2362,-4.2293,-4.1811,-4.1581,-4.142,-4.0525,-4.0066,-3.9951,-3.9492,-3.901,-3.8504,-3.745,-3.7035,-3.6943,-3.668,-3.6665,-3.6619,-3.6496,-3.6367,-3.632,-3.6137,-3.6026,-3.6145,-3.6453,-3.6584,-3.6691,-3.6944,-3.6973,-3.6773,-3.6967,-3.6885,-3.6578,-3.6691,-3.6803,-3.7031,-3.7309,-3.726,-3.7037,-3.6933,-3.6358,-3.5417,-3.5234,-3.492,-3.445,-3.4345,-3.4084,-3.3561,-3.3535,-3.3273,-3.2725,-3.2646,-3.2359,-3.1888,-3.181,-3.1548,-3.1104,-3.1101,-3.125,-3.1548,-3.1596,-3.1817,-3.2182,-3.2182,-3.2228,-3.2345,-3.2423,-3.2483,-3.2526,-3.2388,-3.2506,-3.2787,-3.2368,-3.2565,-3.3383,-3.3478,-3.3864,-3.4288,-3.4192,-3.3976,-3.3602,-3.3698,-3.3909,-3.4031,-3.4121,-3.4331,-3.4451,-3.4565,-3.4647,-3.4847,-3.4917,-3.4826,-3.3741,-3.3834,-3.418,-3.4448,-3.4883,-3.5417,-3.5844,-3.6284,-3.6766,-3.7267,-3.7824,-3.8474,-3.9216,-3.9905,-4.0517,-4.1352,-4.2029,-4.2737,-4.3488,-4.3754,-4.4075,-4.4589,-4.3716,-4.2752,-4.2339,-4.2316,-4.2132,-4.188,-4.1558,-4.1194,-4.0724,-4.0112,-3.9859,-3.9515,-3.901,-3.8551,-3.8155,-3.7854,-3.7455,-3.7332,-3.7457,-3.7227,-3.7204,-3.718,-3.7202,-3.7421,-3.7525,-3.7629,-3.7667,-3.7633,-3.7491,-3.7419,-3.737,-3.7615,-3.7437,-3.7081,-3.7267,-3.7398,-3.716,-3.7505,-3.7704,-3.7586,-3.7586,-3.7168,-3.6436,-3.6018,-3.5547,-3.4999,-3.4972,-3.4711,-3.4136,-3.411,-3.3849,-3.33,-3.2908,-3.262,-3.2411,-3.2385,-3.215,-3.1627,-3.1599,-3.1695,-3.1601,-3.1696,-3.1917,-3.2109,-3.2182,-3.2228,-3.2444,-3.2561,-3.2704,-3.2889,-3.2961,-3.3127,-3.3443,-3.3339,-3.336,-3.3955,-3.4214,-3.4434,-3.4743,-3.486,-3.4946,-3.4898,-3.4994,-3.512,-3.5307,-3.5431,-3.5493,-3.5706,-3.5579,-3.5447,-3.5618,-3.5565,-3.5348,-3.523,-3.478,-3.4767,-3.4742,-3.5011,-3.5811,-3.641,-3.7101,-3.7621,-3.8483,-3.8938,-3.9444,-4.0294,-4.1329,-4.1965,-4.2417,-4.3114,-4.3653,-4.4478,-4.4527,-4.492,-4.4451,-4.3716,-4.2729,-4.2339,-4.2339,-4.2339,-4.2132,-4.1834,-4.1628,-4.1181,-4.041,-4.0135,-3.9767,-3.9308,-3.9291,-3.9197,-3.8914,-3.8283,-3.8107,-3.8115,-3.8108,-3.8059,-3.7916,-3.8104,-3.8315,-3.8502,-3.8526,-3.854,-3.8428,-3.8237,-3.8141,-3.8091,-3.8191,-3.8015,-3.7758,-3.8044,-3.7928,-3.768,-3.7976,-3.8083,-3.7952,-3.79,-3.7717,-3.7325,-3.6881,-3.6305,-3.56,-3.5547,-3.5286,-3.4789,-3.4685,-3.4424,-3.3875,-3.3483,-3.3169,-3.3012,-3.2986,-3.2725,-3.2228,-3.2279,-3.2352,-3.216,-3.2407,-3.2529,-3.2725,-3.2636,-3.2673,-3.2763,-3.2786,-3.2917,-3.3157,-3.3297,-3.3536,-3.3813,-3.3951,-3.4088,-3.4332,-3.4563,-3.4735,-3.5001,-3.5264,-3.5524,-3.5718,-3.5752,-3.5849,-3.6196,-3.6258,-3.6445,-3.6569,-3.6473,-3.625,-3.6546,-3.6521,-3.6454,-3.64,-3.6247,-3.6186,-3.6075,-3.6108,-3.6683,-3.7305,-3.7957,-3.8661,-3.9562,-4.0235,-4.0708,-4.1515,-4.2649,-4.324,-4.3659,-4.4046,-4.4507,-4.4973,-4.5201,-4.5362,-4.3854,-4.3671,-4.2752,-4.2362,-4.2339,-4.2339,-4.2339,-4.2224,-4.1834,-4.1374,-4.08,-4.0318,-3.9859,-3.9541,-3.9638,-3.9966,-3.9941,-3.9528,-3.8999,-3.8656,-3.8948,-3.898,-3.8591,-3.8802,-3.8859,-3.8915,-3.8865,-3.8945,-3.9183,-3.9212,-3.9091,-3.8944,-3.8868,-3.8693,-3.8434,-3.8677,-3.8614,-3.8463,-3.8642,-3.8475,-3.8004,-3.7978,-3.7926,-3.7848,-3.7769,-3.7273,-3.6201,-3.6123,-3.5861,-3.5365,-3.526,-3.4999,-3.4424,-3.4267,-3.411,-3.3666,-3.3587,-3.33,-3.2882,-3.2935,-3.3144,-3.3114,-3.3453,-3.3603,-3.3647,-3.3445,-3.3394,-3.356,-3.3345,-3.3269,-3.3607,-3.3718,-3.3731,-3.3882,-3.402,-3.4157,-3.4428,-3.4563,-3.4831,-3.5162,-3.5424,-3.5554,-3.5718,-3.591,-3.61,-3.6289,-3.6476,-3.6662,-3.6785,-3.6904,-3.7207,-3.7354,-3.7482,-3.7504,-3.7611,-3.7761,-3.7698,-3.7668,-3.7699,-3.7969,-3.852,-3.9161,-3.9717,-4.0545,-4.1252,-4.1748,-4.2469,-4.349,-4.398,-4.4421,-4.4852,-4.5057,-4.5213,-4.536,-4.5457,-4.4153,-4.3739,-4.3119,-4.2637,-4.2362,-4.2339,-4.2339,-4.2316,-4.2155,-4.1811,-4.1306,-4.08,-4.0416,-4.0171,-4.0059,-4.0246,-4.0571,-4.0583,-4.0403,-4.0096,-3.9819,-3.977,-3.9839,-3.9922,-3.9857,-3.9699,-3.9536,-3.949,-3.9594,-3.9594,-3.9469,-3.9471,-3.9446,-3.9272,-3.9043,-3.9265,-3.9205,-3.9006,-3.9216,-3.905,-3.8527,-3.8449,-3.8292,-3.7926,-3.79,-3.7691,-3.7351,-3.6959,-3.6436,-3.5887,-3.5495,-3.5025,-3.4528,-3.4397,-3.4319,-3.4188,-3.4136,-3.3983,-3.3646,-3.3675,-3.3754,-3.3695,-3.3742,-3.3946,-3.4175,-3.4087,-3.4176,-3.4427,-3.4381,-3.4489,-3.4723,-3.4626,-3.4396,-3.4048,-3.4059,-3.4264,-3.4563,-3.4831,-3.5162,-3.5359,-3.5554,-3.5718,-3.5879,-3.6037,-3.6226,-3.6476,-3.6662,-3.6785,-3.6997,-3.7178,-3.7417,-3.7626,-3.8001,-3.8367,-3.8406,-3.8639,-3.8874,-3.8821,-3.8867,-3.9112,-3.9696,-4.0264,-4.0851,-4.1465,-4.2156,-4.2779,-4.3558,-4.4074,-4.4519,-4.4815,-4.4986,-4.5148,-4.5337,-4.5438,-4.5512,-4.429,-4.3762,-4.341,-4.2926,-4.2489,-4.257,-4.2696,-4.2696,-4.2719,-4.2418,-4.1955,-4.163,-4.1196,-4.0808,-4.0669,-4.0668,-4.0735,-4.1172,-4.1322,-4.1184,-4.0672,-4.0575,-4.0706,-4.0789,-4.0749,-4.0508,-4.037,-4.0199,-4.0023,-3.9998,-3.9898,-3.9722,-3.9697,-3.9752,-3.9702,-3.9853,-3.987,-3.9673,-3.979,-3.9625,-3.9128,-3.8815,-3.8553,-3.8214,-3.8004,-3.79,-3.7874,-3.7534,-3.7063,-3.6462,-3.5913,-3.5338,-3.4816,-3.4737,-3.4633,-3.4424,-3.4371,-3.4323,-3.4254,-3.4445,-3.4473,-3.4364,-3.4468,-3.4702,-3.4908,-3.4849,-3.4886,-3.5141,-3.5116,-3.5226,-3.5435,-3.5396,-3.518,-3.5114,-3.4592,-3.4525,-3.4831,-3.5096,-3.5264,-3.5459,-3.5623,-3.5816,-3.6037,-3.6226,-3.6414,-3.6662,-3.6846,-3.6968,-3.7238,-3.7449,-3.7626,-3.7918,-3.8286,-3.8623,-3.8952,-3.9401,-3.9919,-3.9929,-3.9856,-4.0238,-4.0753,-4.1257,-4.1845,-4.2523,-4.3225,-4.3509,-4.4138,-4.4428,-4.4789,-4.4938,-4.508,-4.5235,-4.538,-4.5458,-4.553,-4.4336,-4.3785,-4.3715,-4.3334,-4.2846,-4.3075,-4.32,-4.3326,-4.32,-4.2942,-4.2715,-4.2427,-4.2033,-4.14,-4.1472,-4.1305,-4.097,-4.1384,-4.1793,-4.1825,-4.1545,-4.1348,-4.1221,-4.1314,-4.1322,-4.1272,-4.1279,-4.1003,-4.0576,-4.0551,-4.03,-3.9973,-3.9873,-4.0056,-4.0415,-4.0517,-4.0485,-4.0441,-4.0461,-4.02,-3.9651,-3.9181,-3.8841,-3.8762,-3.8292,-3.8004,-3.8004,-3.7874,-3.756,-3.7011,-3.641,-3.5913,-3.5469,-3.5338,-3.5103,-3.458,-3.4476,-3.4616,-3.4756,-3.4897,-3.5061,-3.5224,-3.5439,-3.5817,-3.5839,-3.5691,-3.5598,-3.5906,-3.5789,-3.5747,-3.5968,-3.6043,-3.6172,-3.6353,-3.5488,-3.5104,-3.5162,-3.5228,-3.5394,-3.5623,-3.5752,-3.5879,-3.6226,-3.6414,-3.6538,-3.6785,-3.6997,-3.7238,-3.7449,-3.7626,-3.7918,-3.8262,-3.8544,-3.8931,-3.9255,-3.9747,-4.0254,-4.059,-4.0597,-4.1041,-4.147,-4.2042,-4.2551,-4.3281,-4.3855,-4.4199,-4.4458,-4.4674,-4.4914,-4.5057,-4.5192,-4.5319,-4.5419,-4.5514,-4.5603,-4.5036,-4.4225,-4.4477,-4.4044,-4.3271,-4.3326,-4.3326,-4.3326,-4.3326,-4.3232,-4.3067,-4.2738,-4.2555,-4.2468,-4.2209,-4.1923,-4.1753,-4.1958,-4.2086,-4.2135,-4.2188,-4.2264,-4.2349,-4.2108,-4.1932,-4.1907,-4.1605,-4.1254,-4.1128,-4.1128,-4.1028,-4.0902,-4.0475,-4.0484,-4.0977,-4.0722,-4.0743,-4.1015,-4.1063,-4.0775,-4.0278,-4.0043,-3.9756,-3.9337,-3.8815,-3.8501,-3.8449,-3.8109,-3.7612,-3.7063,-3.6881,-3.6488,-3.5966,-3.5887,-3.5652,-3.5182,-3.5025,-3.501,-3.5027,-3.5086,-3.5249,-3.5575,-3.5817,-3.6086,-3.6325,-3.6346,-3.6549,-3.6831,-3.6892,-3.6931,-3.7175,-3.7053,-3.704,-3.695,-3.6339,-3.5688,-3.5406,-3.5394,-3.5623,-3.5688,-3.5943,-3.6133,-3.6352,-3.66,-3.6785,-3.7029,-3.7238,-3.7417,-3.7685,-3.7924,-3.8245,-3.8464,-3.8766,-3.9202,-3.9625,-4.0087,-4.0549,-4.1024,-4.1286,-4.1603,-4.2021,-4.2465,-4.3032,-4.3631,-4.398,-4.4345,-4.4568,-4.4789,-4.4986,-4.5148,-4.5256,-4.536,-4.5458,-4.555,-4.5582,-4.5692,-4.4944,-4.4995,-4.4664,-4.3907,-4.3796,-4.3701,-4.3701,-4.3701,-4.3701,-4.363,-4.3417,-4.3255,-4.3238,-4.2951,-4.2664,-4.2469,-4.2749,-4.269,-4.2454,-4.2637,-4.2737,-4.2861,-4.261,-4.2509,-4.2484,-4.2183,-4.1907,-4.1731,-4.1681,-4.1555,-4.1279,-4.1028,-4.0963,-4.1207,-4.1055,-4.0926,-4.1276,-4.1298,-4.1115,-4.0827,-4.054,-4.0278,-3.9886,-3.939,-3.8998,-3.871,-3.8397,-3.7978,-3.7534,-3.7351,-3.7116,-3.6567,-3.6488,-3.6227,-3.5704,-3.5529,-3.5442,-3.5402,-3.5328,-3.5413,-3.5656,-3.5898,-3.6166,-3.6405,-3.6642,-3.7007,-3.7183,-3.7443,-3.7701,-3.7947,-3.8031,-3.7899,-3.7623,-3.7357,-3.6948,-3.629,-3.619,-3.6205,-3.6307,-3.6346,-3.6414,-3.66,-3.6785,-3.7029,-3.7238,-3.7449,-3.7685,-3.7976,-3.8245,-3.8561,-3.8743,-3.9094,-3.952,-3.9884,-4.0337,-4.0789,-4.1255,-4.1839,-4.2169,-4.2537,-4.2921,-4.3389,-4.3823,-4.4132,-4.4458,-4.4674,-4.4889,-4.5057,-4.5192,-4.5298,-4.538,-4.5457,-4.5565,-4.5616,-4.6123,-4.5762,-4.5503,-4.511,-4.4666,-4.4439,-4.4223,-4.4347,-4.4223,-4.4223,-4.4223,-4.4347,-4.3935,-4.3601,-4.3503,-4.3337,-4.2975,-4.3451,-4.3438,-4.3202,-4.3099,-4.3137,-4.3137,-4.2961,-4.2886,-4.2886,-4.2961,-4.266,-4.2333,-4.2233,-4.2007,-4.1731,-4.153,-4.1499,-4.1642,-4.1516,-4.1441,-4.1458,-4.1507,-4.1402,-4.1167,-4.0827,-4.0592,-4.0461,-3.9965,-3.9416,-3.8998,-3.871,-3.8449,-3.8004,-3.7952,-3.7586,-3.7142,-3.709,-3.6802,-3.6305,-3.6035,-3.6002,-3.588,-3.5704,-3.5602,-3.5873,-3.606,-3.6246,-3.6457,-3.685,-3.7134,-3.7366,-3.7701,-3.8005,-3.8277,-3.8767,-3.872,-3.846,-3.8622,-3.8491,-3.8047,-3.7352,-3.7001,-3.7296,-3.6967,-3.6878,-3.6878,-3.7091,-3.7392,-3.7449,-3.7685,-3.7976,-3.8262,-3.852,-3.8832,-3.9127,-3.9468,-3.9799,-4.0204,-4.0583,-4.1024,-4.1525,-4.2251,-4.2691,-4.3032,-4.3389,-4.3758,-4.4072,-4.4345,-4.4568,-4.4802,-4.501,-4.517,-4.5239,-4.5341,-4.5419,-4.5494,-4.5599,-4.5665,-4.6523,-4.6025,-4.5892,-4.5494,-4.4966,-4.4463,-4.4347,-4.4347,-4.4347,-4.4347,-4.4347,-4.4347,-4.4275,-4.4154,-4.4082,-4.3988,-4.3747,-4.4179,-4.4289,-4.4211,-4.3776,-4.3639,-4.3539,-4.3263,-4.3011,-4.2986,-4.2986,-4.2911,-4.2785,-4.2735,-4.276,-4.2559,-4.2133,-4.2233,-4.2485,-4.2131,-4.2034,-4.198,-4.1977,-4.1742,-4.1428,-4.1246,-4.1115,-4.1036,-4.054,-3.9991,-3.9442,-3.8972,-3.8658,-3.8475,-3.8161,-3.7874,-3.7691,-3.7665,-3.7377,-3.7022,-3.6964,-3.6849,-3.6631,-3.6377,-3.625,-3.6552,-3.6468,-3.6405,-3.6642,-3.7007,-3.7317,-3.7548,-3.7777,-3.8156,-3.8575,-3.8943,-3.9145,-3.9212,-3.9324,-3.9506,-3.9443,-3.8666,-3.8091,-3.8165,-3.8206,-3.8182,-3.7997,-3.8119,-3.8081,-3.7816,-3.795,-3.8237,-3.8544,-3.8854,-3.9094,-3.9448,-3.9696,-4.0054,-4.0451,-4.0884,-4.1436,-4.1839,-4.2534,-4.3069,-4.3391,-4.366,-4.3949,-4.4229,-4.4458,-4.47,-4.4962,-4.5125,-4.5256,-4.536,-4.5419,-4.5532,-4.5603,-4.5648,-4.5712,-4.7197,-4.704,-4.6641,-4.6238,-4.5833,-4.5424,-4.5059,-4.4742,-4.4717,-4.4717,-4.4594,-4.4594,-4.447,-4.4347,-4.447,-4.4523,-4.45,-4.4593,-4.4848,-4.4828,-4.4468,-4.4192,-4.4166,-4.384,-4.3564,-4.3112,-4.2986,-4.2986,-4.2986,-4.2986,-4.2961,-4.2986,-4.266,-4.2688,-4.292,-4.2721,-4.2548,-4.258,-4.2605,-4.2291,-4.1821,-4.1716,-4.1533,-4.135,-4.0984,-4.0566,-4.0017,-3.973,-3.9416,-3.9076,-3.8606,-3.8161,-3.7952,-3.79,-3.7717,-3.7572,-3.7474,-3.7467,-3.719,-3.708,-3.7039,-3.7373,-3.6988,-3.7063,-3.7186,-3.7438,-3.7548,-3.7777,-3.8005,-3.8381,-3.887,-3.909,-3.9379,-3.9625,-3.9768,-3.998,-4.0109,-3.948,-3.8934,-3.9009,-3.9023,-3.8998,-3.8937,-3.909,-3.8953,-3.8745,-3.8637,-3.8951,-3.8909,-3.9181,-3.9415,-3.9677,-4.0003,-4.0319,-4.0693,-4.1209,-4.1788,-4.2251,-4.2768,-4.3214,-4.3563,-4.3791,-4.4079,-4.4345,-4.4595,-4.4802,-4.5033,-4.5192,-4.5319,-4.54,-4.5457,-4.5568,-4.5654,-4.5719,-4.5765,-4.7762,-4.7977,-4.7442,-4.7189,-4.6904,-4.6314,-4.5773,-4.5355,-4.5331,-4.5086,-4.4963,-4.484,-4.4717,-4.4594,-4.4717,-4.484,-4.4964,-4.5179,-4.5385,-4.5547,-4.502,-4.4794,-4.4719,-4.4493,-4.4116,-4.3288,-4.3187,-4.3162,-4.3137,-4.3011,-4.2986,-4.2961,-4.2961,-4.3042,-4.3125,-4.3131,-4.3141,-4.3178,-4.3101,-4.2866,-4.2396,-4.2291,-4.203,-4.1611,-4.1298,-4.1036,-4.0618,-4.0357,-4.0148,-3.9756,-3.9155,-3.8606,-3.8161,-3.7926,-3.79,-3.7874,-3.7817,-3.7874,-3.7776,-3.7698,-3.7748,-3.8059,-3.7703,-3.7699,-3.7934,-3.7962,-3.791,-3.8073,-3.8347,-3.8679,-3.9046,-3.9337,-3.9481,-3.9768,-3.991,-4.0191,-4.0378,-4.0053,-3.9941,-4.0018,-4.0031,-4.0007,-3.9945,-4.0005,-3.9831,-3.965,-3.9573,-3.9512,-3.9501,-3.9481,-3.9692,-3.9935,-4.0204,-4.0707,-4.1163,-4.1648,-4.2205,-4.2685,-4.3104,-4.3465,-4.38,-4.4048,-4.4317,-4.4513,-4.4726,-4.4938,-4.5103,-4.5256,-4.538,-4.54,-4.5532,-4.562,-4.5687,-4.5789,-4.581,-4.7894,-4.7977,-4.7832,-4.7445,-4.6904,-4.6339,-4.5822,-4.538,-4.5331,-4.5331,-4.5208,-4.5208,-4.5208,-4.5086,-4.5208,-4.5331,-4.5646,-4.5885,-4.598,-4.6024,-4.5573,-4.5347,-4.5271,-4.4995,-4.4593,-4.4292,-4.3966,-4.374,-4.3489,-4.3237,-4.3062,-4.3011,-4.2986,-4.3194,-4.35,-4.372,-4.363,-4.3698,-4.3755,-4.3441,-4.3023,-4.2788,-4.2526,-4.1977,-4.1611,-4.1324,-4.1063,-4.0671,-4.0357,-4.0252,-3.9756,-3.9207,-3.871,-3.8266,-3.8031,-3.7965,-3.8225,-3.8362,-3.8282,-3.8351,-3.8487,-3.8666,-3.8394,-3.8421,-3.8714,-3.8638,-3.8503,-3.8659,-3.8748,-3.89,-3.9119,-3.9409,-3.9696,-3.991,-4.0191,-4.047,-4.0715,-4.0795,-4.0841,-4.0912,-4.0984,-4.1021,-4.096,-4.0892,-4.0784,-4.0599,-4.0475,-4.0352,-4.026,-4.0087,-4.0016,-4.0223,-4.0387,-4.1024,-4.1613,-4.2157,-4.2717,-4.3101,-4.3541,-4.3885,-4.4172,-4.4354,-4.4578,-4.4738,-4.4889,-4.5033,-4.5154,-4.5281,-4.5381,-4.5457,-4.5586,-4.5709,-4.5719,-4.5781,-4.5852,-4.8289,-4.8526,-4.8516,-4.805,-4.7457,-4.7134,-4.6538,-4.5867,-4.5817,-4.5696,-4.5574,-4.5574,-4.5453,-4.5331,-4.5453,-4.5696,-4.6059,-4.618,-4.6326,-4.6225,-4.6024,-4.5899,-4.5899,-4.5573,-4.5522,-4.5347,-4.4945,-4.4317,-4.384,-4.3564,-4.3263,-4.3011,-4.2986,-4.3235,-4.3619,-4.3764,-4.3965,-4.4033,-4.417,-4.4016,-4.3467,-4.3232,-4.2735,-4.2239,-4.1899,-4.1638,-4.1298,-4.1089,-4.088,-4.0775,-4.0331,-3.9913,-3.952,-3.905,-3.8501,-3.8175,-3.8383,-3.8629,-3.8692,-3.8843,-3.9262,-3.9412,-3.9086,-3.9201,-3.9499,-3.9424,-3.9176,-3.9266,-3.9442,-3.9446,-3.9439,-3.9625,-3.9839,-4.0121,-4.0401,-4.0677,-4.095,-4.1256,-4.1456,-4.1522,-4.1593,-4.1629,-4.1885,-4.1846,-4.1833,-4.1651,-4.1387,-4.122,-4.1111,-4.0916,-4.071,-4.0932,-4.1209,-4.1603,-4.2298,-4.2905,-4.3382,-4.3798,-4.4154,-4.4457,-4.4773,-4.5106,-4.4987,-4.4903,-4.5048,-4.543,-4.5235,-4.536,-4.5458,-4.555,-4.5714,-4.5819,-4.5804,-4.5786,-4.5854,-4.8551,-4.9072,-4.9202,-4.8682,-4.8008,-4.7908,-4.728,-4.6451,-4.6301,-4.618,-4.5939,-4.5939,-4.5817,-4.5574,-4.5817,-4.6059,-4.6326,-4.6326,-4.6326,-4.6301,-4.6276,-4.6276,-4.6301,-4.6326,-4.62,-4.6024,-4.5799,-4.5121,-4.4418,-4.4041,-4.3664,-4.3363,-4.3162,-4.3199,-4.3422,-4.3704,-4.401,-4.4338,-4.4531,-4.446,-4.4016,-4.3493,-4.2997,-4.2474,-4.2291,-4.1925,-4.1585,-4.1324,-4.1246,-4.1141,-4.0853,-4.0514,-4.0357,-3.9991,-3.9285,-3.8635,-3.8595,-3.8735,-3.8872,-3.923,-3.9678,-3.9885,-3.9784,-4.0013,-4.0288,-4.0187,-4.001,-4.0,-3.9995,-4.001,-3.9914,-3.9858,-3.998,-4.0261,-4.0539,-4.0746,-4.1153,-4.1488,-4.172,-4.1882,-4.1947,-4.2142,-4.23,-4.2548,-4.2439,-4.2512,-4.222,-4.2176,-4.2033,-4.1883,-4.1816,-4.1984,-4.2181,-4.2367,-4.3002,-4.3704,-4.4258,-4.4711,-4.507,-4.5407,-4.5723,-4.6017,-4.5821,-4.5759,-4.594,-4.6244,-4.5833,-4.5591,-4.5936,-4.6103,-4.5995,-4.6059,-4.6259,-4.6046,-4.5893,-4.9072,-4.9202,-4.9461,-4.8937,-4.7983,-4.7908,-4.7305,-4.6376,-4.6326,-4.6301,-4.618,-4.618,-4.618,-4.618,-4.618,-4.6301,-4.6326,-4.6326,-4.6326,-4.6326,-4.6326,-4.6326,-4.6326,-4.6326,-4.6326,-4.6301,-4.6225,-4.5874,-4.5221,-4.4744,-4.4242,-4.3815,-4.3664,-4.3601,-4.3473,-4.3806,-4.401,-4.4338,-4.4531,-4.4696,-4.4513,-4.4042,-4.3755,-4.3363,-4.2788,-4.2239,-4.203,-4.169,-4.1402,-4.135,-4.1272,-4.0932,-4.0514,-4.0383,-4.0114,-3.9823,-3.9455,-3.92,-3.9096,-3.9435,-3.9788,-4.0083,-4.029,-4.0746,-4.1024,-4.1227,-4.1017,-4.0636,-4.044,-4.0323,-4.045,-4.0202,-4.0243,-4.047,-4.0746,-4.1086,-4.1488,-4.1686,-4.1947,-4.2206,-4.2334,-4.2461,-4.2648,-4.2896,-4.3075,-4.3145,-4.3115,-4.3013,-4.2959,-4.2828,-4.2893,-4.3059,-4.3092,-4.327,-4.3822,-4.4556,-4.5173,-4.5663,-4.602,-4.6392,-4.6667,-4.6958,-4.7072,-4.7023,-4.719,-4.6904,-4.6396,-4.6302,-4.6586,-4.6694,-4.6684,-4.6785,-4.6946,-4.659,-4.6123,-4.9332,-4.9332,-4.959,-4.8937,-4.7983,-4.7908,-4.7305,-4.6451,-4.6326,-4.6326,-4.6326,-4.6326,-4.6326,-4.6326,-4.6326,-4.6326,-4.6326,-4.6326,-4.6326,-4.6326,-4.6326,-4.6326,-4.6326,-4.6326,-4.6326,-4.6326,-4.6301,-4.6225,-4.5799,-4.5372,-4.4819,-4.4342,-4.4242,-4.3991,-4.3689,-4.4,-4.3908,-4.3976,-4.4177,-4.4505,-4.4561,-4.4487,-4.4199,-4.3885,-4.3363,-4.2971,-4.2579,-4.2108,-4.1821,-4.1716,-4.1559,-4.1219,-4.101,-4.088,-4.0867,-4.0701,-4.0505,-4.0108,-3.9607,-3.9714,-3.9903,-4.0083,-4.0516,-4.1085,-4.1478,-4.1855,-4.1901,-4.1362,-4.156,-4.1385,-4.1049,-4.0811,-4.0729,-4.0793,-4.1075,-4.1288,-4.162,-4.1882,-4.2141,-4.2397,-4.2713,-4.2837,-4.2961,-4.3113,-4.3416,-4.3555,-4.3656,-4.3719,-4.372,-4.3761,-4.3907,-4.4202,-4.4179,-4.4165,-4.4742,-4.545,-4.617,-4.6654,-4.7006,-4.7372,-4.768,-4.7899,-4.801,-4.8095,-4.8143,-4.7698,-4.705,-4.7106,-4.7468,-4.7499,-4.7465,-4.7356,-4.7235,-4.7042,-4.6607,-4.959,-4.959,-4.959,-4.8937,-4.7933,-4.7908,-4.7305,-4.6376,-4.6326,-4.6326,-4.6326,-4.6326,-4.6326,-4.6326,-4.6326,-4.6326,-4.6326,-4.6326,-4.6326,-4.6326,-4.6326,-4.6326,-4.6326,-4.6326,-4.6326,-4.6326,-4.6326,-4.6276,-4.6175,-4.5849,-4.5397,-4.4869,-4.4844,-4.4518,-4.4231,-4.413,-4.4077,-4.3679,-4.3984,-4.4313,-4.4505,-4.4613,-4.4353,-4.4173,-4.3912,-4.3676,-4.3232,-4.2658,-4.2371,-4.2056,-4.1847,-4.1484,-4.1298,-4.1193,-4.1261,-4.1232,-4.1186,-4.095,-4.0518,-4.0377,-4.0184,-4.0312,-4.0688,-4.1283,-4.1785,-4.2363,-4.257,-4.1981,-4.2234,-4.2078,-4.1771,-4.1626,-4.1494,-4.1434,-4.1429,-4.1578,-4.1718,-4.2141,-4.2366,-4.265,-4.2899,-4.3146,-4.3328,-4.3449,-4.3628,-4.3864,-4.4097,-4.4327,-4.4449,-4.4506,-4.4836,-4.5145,-4.5352,-4.5374,-4.5881,-4.6513,-4.7201,-4.7572,-4.7955,-4.8284,-4.8587,-4.8802,-4.8948,-4.9029,-4.9056,-4.9025,-4.8683,-4.8528,-4.8312,-4.8321,-4.8191,-4.7685,-4.7404,-4.7245,-4.6892,-4.959,-4.959,-4.959,-4.8962,-4.7908,-4.7908,-4.7305,-4.6326,-4.6326,-4.6326,-4.6326,-4.6326,-4.6326,-4.6326,-4.6326,-4.6326,-4.6326,-4.6326,-4.6326,-4.6326,-4.6326,-4.6326,-4.6326,-4.6326,-4.6326,-4.6326,-4.6326,-4.6326,-4.6301,-4.6225,-4.5849,-4.5497,-4.5422,-4.507,-4.4709,-4.4396,-4.4255,-4.3908,-4.4028,-4.4145,-4.4229,-4.4313,-4.4344,-4.4431,-4.4173,-4.3859,-4.3807,-4.3284,-4.2866,-4.2422,-4.2084,-4.1823,-4.1559,-4.1376,-4.1518,-4.1754,-4.1533,-4.1474,-4.1462,-4.0959,-4.0487,-4.0451,-4.0773,-4.1564,-4.198,-4.2444,-4.2629,-4.2592,-4.2791,-4.2817,-4.2697,-4.2659,-4.2376,-4.2132,-4.2134,-4.2252,-4.2393,-4.2527,-4.2749,-4.287,-4.3084,-4.3328,-4.3568,-4.3687,-4.3864,-4.4039,-4.4384,-4.4575,-4.4961,-4.5147,-4.5645,-4.6007,-4.6377,-4.6686,-4.7119,-4.7616,-4.7903,-4.8233,-4.8613,-4.9046,-4.9428,-4.9614,-4.9657,-4.9862,-4.9865,-5.0141,-5.0279,-4.9699,-4.9363,-4.9258,-4.901,-4.8618,-4.775,-4.7203,-4.68,-4.959,-4.959,-4.959,-4.8937,-4.7908,-4.7908,-4.7305,-4.6426,-4.6326,-4.6326,-4.6326,-4.6326,-4.6326,-4.6326,-4.6326,-4.6326,-4.6326,-4.6326,-4.6326,-4.6326,-4.6326,-4.6326,-4.6326,-4.6326,-4.6326,-4.6326,-4.6326,-4.6326,-4.6326,-4.6326,-4.625,-4.6024,-4.5949,-4.5648,-4.5263,-4.4709,-4.4383,-4.4204,-4.4138,-4.4173,-4.401,-4.4094,-4.4203,-4.437,-4.4292,-4.4301,-4.4222,-4.3805,-4.3546,-4.3127,-4.2605,-4.2186,-4.1794,-4.1533,-4.165,-4.1993,-4.1799,-4.1973,-4.1964,-4.1471,-4.0836,-4.1028,-4.1227,-4.1647,-4.2175,-4.2526,-4.2769,-4.2892,-4.3277,-4.3395,-4.2955,-4.3162,-4.3262,-4.2958,-4.2931,-4.2988,-4.3101,-4.3234,-4.3165,-4.3317,-4.3399,-4.3449,-4.3687,-4.3923,-4.4039,-4.4212,-4.4519,-4.4852,-4.523,-4.5649,-4.6005,-4.6411,-4.6778,-4.7196,-4.7663,-4.8075,-4.8458,-4.8855,-4.923,-4.9476,-4.9807,-4.9986,-5.0035,-5.0352,-5.0483,-5.047,-5.047,-5.0443,-5.024,-4.9846,-4.9766,-4.9731,-4.8699,-4.7384,-4.6969,-4.959,-4.959,-4.9414,-4.8887,-4.8184,-4.7983,-4.7405,-4.6627,-4.6376,-4.6326,-4.6326,-4.6326,-4.6326,-4.6326,-4.6326,-4.6326,-4.6326,-4.6326,-4.6326,-4.6326,-4.6326,-4.6326,-4.6326,-4.6326,-4.6326,-4.6326,-4.6326,-4.6326,-4.6326,-4.6326,-4.6276,-4.6276,-4.6301,-4.5999,-4.5723,-4.5171,-4.4734,-4.4396,-4.4181,-4.4142,-4.407,-4.3866,-4.401,-4.4203,-4.4261,-4.4344,-4.4483,-4.4304,-4.4042,-4.365,-4.3154,-4.2579,-4.2289,-4.1922,-4.1908,-4.2073,-4.2235,-4.2339,-4.2371,-4.1902,-4.1467,-4.1596,-4.1653,-4.1961,-4.2286,-4.2637,-4.2769,-4.301,-4.3536,-4.3805,-4.3335,-4.3864,-4.4029,-4.3756,-4.4022,-4.415,-4.4005,-4.401,-4.3875,-4.3797,-4.3878,-4.4019,-4.3923,-4.4155,-4.4384,-4.4497,-4.472,-4.5015,-4.5389,-4.5752,-4.6154,-4.659,-4.7007,-4.7414,-4.7875,-4.8231,-4.8605,-4.8993,-4.9321,-4.9625,-4.9879,-5.0089,-5.0259,-5.0396,-5.0525,-5.0664,-5.0678,-5.0632,-5.0488,-5.0225,-5.0131,-4.9998,-4.9177,-4.7969,-4.7674,-4.959,-4.9515,-4.9038,-4.8786,-4.8611,-4.8134,-4.7556,-4.6979,-4.6527,-4.6326,-4.6326,-4.6326,-4.6326,-4.6326,-4.6326,-4.6326,-4.6326,-4.6326,-4.6326,-4.6326,-4.6326,-4.6326,-4.6326,-4.6326,-4.6326,-4.6326,-4.6326,-4.6326,-4.6326,-4.6326,-4.6326,-4.6326,-4.6301,-4.6276,-4.6225,-4.5748,-4.5196,-4.4644,-4.4141,-4.4194,-4.4066,-4.3736,-4.3917,-4.3984,-4.4203,-4.4313,-4.4453,-4.4643,-4.4382,-4.4016,-4.3755,-4.318,-4.25,-4.2417,-4.2351,-4.2252,-4.2342,-4.2679,-4.3122,-4.2519,-4.2374,-4.2366,-4.231,-4.2422,-4.2544,-4.2695,-4.2879,-4.315,-4.3645,-4.3988,-4.4236,-4.4555,-4.4569,-4.4683,-4.4922,-4.5021,-4.4879,-4.4952,-4.4785,-4.4479,-4.4589,-4.4723,-4.4457,-4.444,-4.4665,-4.4831,-4.494,-4.5211,-4.5546,-4.5955,-4.6301,-4.6731,-4.7143,-4.7542,-4.8032,-4.8345,-4.875,-4.9127,-4.9446,-4.9741,-4.9959,-5.0163,-5.0329,-5.05,-5.0586,-5.072,-5.0791,-5.0858,-5.0704,-5.0558,-5.013,-4.979,-4.9075,-4.8581,-4.8235,-4.959,-4.954,-4.9012,-4.8786,-4.8636,-4.7782,-4.728,-4.7054,-4.6577,-4.6326,-4.6326,-4.6326,-4.6326,-4.6326,-4.6326,-4.6326,-4.6326,-4.6326,-4.6326,-4.6326,-4.6326,-4.6326,-4.6326,-4.6326,-4.6326,-4.6326,-4.6326,-4.6326,-4.6326,-4.6326,-4.6326,-4.6326,-4.6326,-4.6301,-4.6276,-4.605,-4.5748,-4.5296,-4.4945,-4.4734,-4.4029,-4.384,-4.3675,-4.3815,-4.3899,-4.4203,-4.4422,-4.4613,-4.4591,-4.4356,-4.4147,-4.3676,-4.3179,-4.3124,-4.2669,-4.2572,-4.2708,-4.2776,-4.3423,-4.3529,-4.3574,-4.3279,-4.3084,-4.317,-4.3236,-4.3284,-4.3294,-4.3319,-4.3735,-4.4001,-4.4143,-4.4723,-4.4923,-4.529,-4.5461,-4.5635,-4.5691,-4.5831,-4.5831,-4.5299,-4.5152,-4.4883,-4.4606,-4.4587,-4.4776,-4.4995,-4.5157,-4.5336,-4.5701,-4.6105,-4.6447,-4.687,-4.7276,-4.7705,-4.8111,-4.8532,-4.8853,-4.9225,-4.9537,-4.9824,-5.0038,-5.0236,-5.0396,-5.0525,-5.0645,-5.0756,-5.0858,-5.0937,-5.105,-5.0903,-5.0451,-5.0179,-4.98,-4.9223,-4.8673,-4.949,-4.9264,-4.8711,-4.8485,-4.8335,-4.7506,-4.7054,-4.6828,-4.6476,-4.6326,-4.6326,-4.6326,-4.6326,-4.6326,-4.6326,-4.6326,-4.6326,-4.6326,-4.6326,-4.6326,-4.6326,-4.6326,-4.6326,-4.6326,-4.6326,-4.6326,-4.6326,-4.6326,-4.6326,-4.6326,-4.6326,-4.6326,-4.6326,-4.6326,-4.6301,-4.6225,-4.6125,-4.5723,-4.5472,-4.5095,-4.4493,-4.4041,-4.3727,-4.3762,-4.3806,-4.3874,-4.4203,-4.4422,-4.4613,-4.4483,-4.4408,-4.4068,-4.3782,-4.3598,-4.3194,-4.2998,-4.303,-4.3094,-4.3586,-4.4434,-4.4385,-4.4081,-4.4004,-4.3979,-4.4024,-4.4015,-4.3961,-4.3928,-4.4116,-4.417,-4.4311,-4.4922,-4.5309,-4.5646,-4.585,-4.6025,-4.651,-4.665,-4.6586,-4.6055,-4.5872,-4.541,-4.4832,-4.4834,-4.4852,-4.5069,-4.5283,-4.5546,-4.5854,-4.6204,-4.6602,-4.7053,-4.745,-4.787,-4.8306,-4.8678,-4.9027,-4.9352,-4.9655,-4.9906,-5.0114,-5.0283,-5.0462,-5.0606,-5.0701,-5.0808,-5.0921,-5.1062,-5.1101,-5.1063,-5.0849,-5.0618,-5.0491,-5.002,-4.9469,-4.9264,-4.8711,-4.8134,-4.7883,-4.7782,-4.7157,-4.6656,-4.6351,-4.6301,-4.6301,-4.6326,-4.618,-4.6326,-4.6326,-4.6326,-4.6326,-4.6326,-4.6326,-4.6326,-4.6326,-4.6326,-4.6326,-4.6326,-4.6326,-4.6326,-4.6326,-4.6326,-4.6326,-4.6326,-4.6326,-4.6326,-4.6326,-4.6326,-4.6326,-4.6326,-4.6301,-4.625,-4.6075,-4.5824,-4.5497,-4.507,-4.4468,-4.4155,-4.4004,-4.3924,-4.3891,-4.4145,-4.4313,-4.4531,-4.4587,-4.4696,-4.4356,-4.4308,-4.4415,-4.388,-4.354,-4.3573,-4.3616,-4.3915,-4.4724,-4.4926,-4.4738,-4.4752,-4.4734,-4.4643,-4.4718,-4.4644,-4.4668,-4.483,-4.4643,-4.4649,-4.5015,-4.5477,-4.5782,-4.6048,-4.6518,-4.7169,-4.7275,-4.7177,-4.7042,-4.7028,-4.6602,-4.579,-4.5558,-4.5337,-4.5363,-4.5596,-4.5752,-4.6055,-4.635,-4.6778,-4.7151,-4.7621,-4.8072,-4.8458,-4.8785,-4.9094,-4.9415,-4.9712,-4.9959,-5.0163,-5.0352,-5.0504,-5.0645,-5.0738,-5.088,-5.1005,-5.1102,-5.1136,-5.1094,-5.1031,-5.1062,-5.0888,-5.1023,-5.0736,-4.8912,-4.8686,-4.7757,-4.7232,-4.691,-4.6167,-4.582,-4.5963,-4.5939,-4.5939,-4.5939,-4.5939,-4.6084,-4.6326,-4.6326,-4.6301,-4.6301,-4.6326,-4.6326,-4.6326,-4.6326,-4.6326,-4.6326,-4.6326,-4.6326,-4.6326,-4.6326,-4.6301,-4.6326,-4.6326,-4.6301,-4.6326,-4.618,-4.6301,-4.6301,-4.6326,-4.6326,-4.6276,-4.6075,-4.5849,-4.5598,-4.507,-4.4659,-4.4269,-4.408,-4.4112,-4.4164,-4.4281,-4.4474,-4.4639,-4.4748,-4.4565,-4.4539,-4.4626,-4.4407,-4.4575,-4.4398,-4.4373,-4.4606,-4.4931,-4.5167,-4.5287,-4.5393,-4.5551,-4.5491,-4.5454,-4.5441,-4.5552,-4.5576,-4.5403,-4.5292,-4.5618,-4.5822,-4.5971,-4.6311,-4.6743,-4.7365,-4.7471,-4.7375,-4.7668,-4.7655,-4.7234,-4.6515,-4.6068,-4.5883,-4.5897,-4.5978,-4.6098,-4.6288,-4.6578,-4.6916,-4.732,-4.7747,-4.819,-4.8569,-4.889,-4.9193,-4.9514,-4.9769,-5.0012,-5.0212,-5.0374,-5.0545,-5.0701,-5.0863,-5.096,-5.1073,-5.1127,-5.1169,-5.123,-5.1203,-5.1303,-5.1375,-5.1385,-5.1406,-4.8184,-4.7908,-4.7183,-4.6636,-4.6019,-4.5551,-4.5403,-4.5428,-4.5574,-4.5574,-4.5574,-4.5574,-4.5696,-4.5817,-4.5939,-4.6059,-4.6059,-4.618,-4.6326,-4.6326,-4.6326,-4.6326,-4.6326,-4.6326,-4.6326,-4.6326,-4.6301,-4.618,-4.618,-4.5939,-4.5939,-4.6059,-4.6059,-4.618,-4.6301,-4.6326,-4.6326,-4.6326,-4.625,-4.61,-4.5874,-4.5623,-4.502,-4.4568,-4.4522,-4.4294,-4.4284,-4.4428,-4.4546,-4.4692,-4.4748,-4.4722,-4.4725,-4.4732,-4.4989,-4.5111,-4.5073,-4.4997,-4.5105,-4.5392,-4.5388,-4.5465,-4.5895,-4.6108,-4.6196,-4.6134,-4.6207,-4.632,-4.6304,-4.6306,-4.6278,-4.6207,-4.626,-4.6297,-4.6606,-4.7007,-4.7225,-4.7435,-4.7737,-4.7998,-4.7885,-4.753,-4.7124,-4.6771,-4.661,-4.6694,-4.6688,-4.6672,-4.6724,-4.685,-4.716,-4.745,-4.787,-4.8267,-4.8642,-4.8993,-4.9257,-4.9574,-4.9797,-5.0038,-5.0236,-5.044,-5.0606,-5.0773,-5.096,-5.1034,-5.1089,-5.1163,-5.1201,-5.1256,-5.1296,-5.1369,-5.1362,-5.1396,-5.1406,-4.7333,-4.6539,-4.6464,-4.6044,-4.5355,-4.5257,-4.5013,-4.4816,-4.5086,-4.5208,-4.5208,-4.5208,-4.5331,-4.5453,-4.5696,-4.5817,-4.5939,-4.6059,-4.618,-4.6326,-4.6326,-4.6326,-4.6326,-4.6326,-4.6326,-4.6326,-4.618,-4.6059,-4.5696,-4.5574,-4.5574,-4.5696,-4.5817,-4.5939,-4.618,-4.618,-4.618,-4.6326,-4.6326,-4.6225,-4.615,-4.5849,-4.5497,-4.5347,-4.5036,-4.4648,-4.4648,-4.4729,-4.4686,-4.4739,-4.4748,-4.4748,-4.4888,-4.4891,-4.5334,-4.5683,-4.5779,-4.5761,-4.5774,-4.5884,-4.5802,-4.5883,-4.6164,-4.6432,-4.6491,-4.6636,-4.6741,-4.6954,-4.7023,-4.6966,-4.6831,-4.6981,-4.7105,-4.6949,-4.7044,-4.7323,-4.7586,-4.7767,-4.7902,-4.8127,-4.8119,-4.7861,-4.7996,-4.768,-4.7489,-4.7596,-4.7453,-4.7368,-4.7527,-4.7477,-4.7537,-4.7753,-4.7988,-4.8381,-4.8714,-4.9061,-4.9321,-4.9596,-4.989,-5.0063,-5.0321,-5.0462,-5.0683,-5.0846,-5.099,-5.1037,-5.1101,-5.1169,-5.122,-5.1273,-5.1317,-5.1391,-5.1385,-5.1404,-5.1359,-4.6613,-4.6192,-4.5552,-4.5061,-4.484,-4.4693,-4.4446,-4.447,-4.447,-4.4717,-4.484,-4.4963,-4.5086,-4.5208,-4.5331,-4.5453,-4.5696,-4.5939,-4.6059,-4.6205,-4.6326,-4.6326,-4.6326,-4.6326,-4.6326,-4.618,-4.6059,-4.5696,-4.5453,-4.5331,-4.5331,-4.5453,-4.5453,-4.5574,-4.5939,-4.5939,-4.6059,-4.618,-4.6326,-4.6326,-4.625,-4.6175,-4.5974,-4.5648,-4.5338,-4.5117,-4.4979,-4.4771,-4.4745,-4.4744,-4.4666,-4.4964,-4.5368,-4.5342,-4.5924,-4.6648,-4.6514,-4.65,-4.6671,-4.649,-4.6268,-4.6297,-4.6459,-4.6521,-4.6697,-4.7019,-4.7306,-4.7528,-4.7654,-4.7537,-4.7507,-4.7725,-4.784,-4.7599,-4.7479,-4.7773,-4.8013,-4.7998,-4.8034,-4.8127,-4.8219,-4.8399,-4.8599,-4.8626,-4.8506,-4.8307,-4.8151,-4.8137,-4.8508,-4.8615,-4.8191,-4.8308,-4.8178,-4.8494,-4.8933,-4.9239,-4.9571,-4.9805,-5.0096,-5.0228,-5.0344,-5.0584,-5.0776,-5.0858,-5.0966,-5.105,-5.1113,-5.1169,-5.123,-5.1289,-5.1323,-5.1391,-5.1439,-5.1482,-5.1418,-4.5773,-4.5453,-4.4715,-4.4323,-4.4323,-4.4051,-4.3802,-4.385,-4.3874,-4.3998,-4.4199,-4.447,-4.4717,-4.4963,-4.4963,-4.5208,-4.5453,-4.5696,-4.5817,-4.6059,-4.618,-4.6326,-4.6326,-4.6326,-4.6326,-4.618,-4.5817,-4.5453,-4.5086,-4.4963,-4.484,-4.5086,-4.5086,-4.5208,-4.5574,-4.5696,-4.5817,-4.6059,-4.618,-4.6301,-4.6301,-4.625,-4.62,-4.5899,-4.5817,-4.5598,-4.5515,-4.5258,-4.5081,-4.5083,-4.504,-4.518,-4.5502,-4.5662,-4.6323,-4.6895,-4.7059,-4.7058,-4.7363,-4.7281,-4.6821,-4.6945,-4.6929,-4.7051,-4.6814,-4.7106,-4.7452,-4.7704,-4.7843,-4.779,-4.8173,-4.8457,-4.8324,-4.8183,-4.8338,-4.8643,-4.8334,-4.7998,-4.8199,-4.8322,-4.8446,-4.8697,-4.887,-4.9138,-4.9056,-4.9409,-4.9183,-4.903,-4.9372,-4.971,-4.9287,-4.9075,-4.9017,-4.9378,-5.0082,-5.0094,-4.9927,-5.0128,-5.0491,-5.0403,-5.0517,-5.0683,-5.0846,-5.096,-5.1034,-5.1102,-5.1175,-5.1307,-5.1295,-5.1349,-5.1375,-5.1396,-5.152,-5.1784,-5.1893,-4.4963,-4.457,-4.395,-4.3678,-4.3678,-4.338,-4.3404,-4.3326,-4.3271,-4.3271,-4.3451,-4.395,-4.4099,-4.4347,-4.4594,-4.4717,-4.4963,-4.5331,-4.5574,-4.5817,-4.6059,-4.618,-4.6301,-4.6326,-4.618,-4.5939,-4.5574,-4.5086,-4.4717,-4.4594,-4.4594,-4.4717,-4.484,-4.4963,-4.5208,-4.5453,-4.5696,-4.5817,-4.6059,-4.618,-4.6301,-4.6301,-4.6276,-4.6276,-4.6276,-4.6357,-4.6178,-4.5962,-4.5623,-4.5389,-4.528,-4.5367,-4.5609,-4.5928,-4.656,-4.7053,-4.7363,-4.7539,-4.79,-4.7881,-4.7701,-4.7619,-4.7607,-4.7436,-4.7199,-4.7252,-4.7598,-4.7794,-4.7964,-4.8187,-4.8573,-4.881,-4.876,-4.8765,-4.9069,-4.919,-4.8627,-4.8163,-4.8299,-4.852,-4.8673,-4.8894,-4.9168,-4.9471,-4.9756,-5.0055,-5.0235,-5.0154,-5.0201,-5.0459,-5.0494,-5.0351,-5.0336,-5.0741,-5.1083,-5.0953,-5.0597,-5.1055,-5.1353,-5.0932,-5.0755,-5.1106,-5.1211,-5.1005,-5.1089,-5.1282,-5.147,-5.1648,-5.1593,-5.1752,-5.2138,-5.2397,-5.2383,-5.2593,-5.2675,-4.457,-4.395,-4.3576,-4.3451,-4.3326,-4.3302,-4.3302,-4.3326,-4.3326,-4.3326,-4.3326,-4.3326,-4.3576,-4.395,-4.4223,-4.447,-4.4717,-4.5086,-4.5453,-4.5817,-4.5939,-4.6059,-4.618,-4.6301,-4.5939,-4.5696,-4.5331,-4.4963,-4.4594,-4.4347,-4.4347,-4.447,-4.447,-4.4594,-4.484,-4.5086,-4.5331,-4.5574,-4.5817,-4.6059,-4.618,-4.6326,-4.6301,-4.6326,-4.6301,-4.6307,-4.6178,-4.5847,-4.5623,-4.5526,-4.5441,-4.5367,-4.5715,-4.6139,-4.6665,-4.7184,-4.7494,-4.8021,-4.8212,-4.8224,-4.8134,-4.8536,-4.8345,-4.7761,-4.7585,-4.7461,-4.7748,-4.788,-4.8049,-4.8218,-4.8604,-4.9015,-4.909,-4.93,-4.9515,-4.9264,-4.887,-4.8622,-4.8597,-4.8659,-4.858,-4.8956,-4.935,-4.959,-4.9884,-5.0215,-5.0659,-5.07,-5.0925,-5.1272,-5.1549,-5.152,-5.1432,-5.133,-5.1343,-5.1585,-5.15,-5.2,-5.2281,-5.1973,-5.1813,-5.1761,-5.179,-5.1717,-5.1554,-5.1632,-5.1819,-5.229,-5.2606,-5.2883,-5.3366,-5.3587,-5.3473,-5.3431,-5.3533]}]]